     2              OBSERVATION DATA    GPS                 RINEX VERSION / TYPE
TRRINEXO V2.8.4 LH                                          PGM / RUN BY / DATE
                                                            COMMENT
BIT 2 OF LLI (+4) FLAGS DATA COLLECTED UNDER "AS" CONDITION COMMENT
Original Marker Name: 0088                                  COMMENT
Campaign Name: coachelle valley 1990                        COMMENT
4-Character Station Name: 0088                              COMMENT
6-Character Antenna Code: TRMSST                            COMMENT
Vertical Measurement Point: TGP                             COMMENT
Vertical Offset to Rinex Ref. Point: 0.0629                 COMMENT
Radial Measurement Point: NGP                               COMMENT
Radial Offset to Rinex Ref. Point: 0.2334                   COMMENT
Antenna Height from Field Measurement: 1.4660 m             COMMENT
Original XYZ: -2346154.5731 -4752987.0160 3536521.6058      COMMENT
New XYZ position is based on association with SCEC monument COMMENT
E1D0U4X4+0011. Position of that monument is believed to be  COMMENT
valid to within 1 m horizontally; vertical accuracy         COMMENT
should be no worse than 3-times this value.                 COMMENT
                                                            COMMENT
Revised Rinex header created by UCSD GPS archive for        COMMENT
GSAC on 19-Apr-1999 (1999:109) 16:17:32 GMT                 COMMENT
For assistance contact dagnew@ucsd.edu or hjohnson@ucsd.edu COMMENT
                                                            COMMENT
(THOU)                                                      MARKER NAME
UNKNOWN OBSERVER RIVERSIDE COUNTY FCWCD                     OBSERVER / AGENCY
495 TRIMBLE 4000 SST 4.11 / 4.10                            REC # / TYPE / VERS
32 TR 4000SST L1/L2 GEO                                     ANT # / TYPE
 -2346156.0000 -4752979.0000  3536523.0000                  APPROX POSITION XYZ
        1.3844        0.0000        0.0000                  ANTENNA: DELTA H/E/N
     1     2     0                                          WAVELENGTH FACT L1/2
     3    C1    L1    L2                                    # / TYPES OF OBSERV
     0                                                      INTERVAL
  1990    10    22    10    42   45.000000                  TIME OF FIRST OBS
  1990    10    22    17    41   60.000000                  TIME OF LAST OBS
     0                                                      # OF SATELLITES
                                                            END OF HEADER
 90 10 22 10 42 45.0000000  0  5 02 06 11 18 15
  20768268.992          -0.794 7
  22128470.094          -0.23316
  23942360.563          -0.97816
  22185082.164          -0.43816
  24609299.094          -0.48815
 90 10 22 10 43  0.0000000  0  5 02 06 11 18 15
  20767105.211       -6124.172 7
  22121928.102      -34372.063 6
  23949537.320       37715.741 6
  22193291.422       43131.279 6
  24602591.617      -35268.968 5
 90 10 22 10 43 15.0000000  0  5 02 06 11 18 15
  20765946.883      -12206.148 7        -0.01913
  22115385.453      -68750.821 6        -0.23311
  23956729.445       75504.453 6        -0.11611
  22201508.547       86313.741 7
  24595879.563      -70508.040 5        -0.21011
 90 10 22 10 43 30.0000000  0  5 02 06 11 18 15
  20764797.852      -18244.012 7     -4704.842 3
  22108841.016     -103133.616 6    -26792.007 1
  23963932.555      113367.716 6     29503.719 1
  22209735.398      129549.602 7        -0.26511
  24589181.430     -105714.386 5    -27433.710 1
 90 10 22 10 43 45.0000000  0  5 02 06 11 18 15
  20763659.203      -24232.238 7     -9370.994 3
  22102298.234     -137514.633 6    -53582.404 1
  23971153.313      151310.781 6     59069.738 1
  22217974.367      172844.146 7     33735.741 1
  24582492.867     -140882.109 5    -54837.105 1
 90 10 22 10 44  0.0000000  0  5 02 06 11 18 15
  20762525.578      -30189.172 7    -14012.750 3
  22095752.555     -171912.054 6    -80385.585 1
  23978384.813      189315.009 5     88683.419 1
  22226220.852      216178.797 7     67502.996 1
  24575803.297     -176028.850 5    -82224.159 1
 90 10 22 10 44 15.0000000  0  5 02 06 11 18 15
  20761398.727      -36103.151 7    -18621.041 3
  22089205.773     -206313.830 6   -107192.159 1
  23985632.234      227391.896 6    118353.704 1
  22234477.523      259565.018 7    101310.433 1
  24569124.078     -211142.578 5   -109585.483 1
 90 10 22 10 44 30.0000000  0  5 02 06 11 18 15
  20760282.766      -41967.912 7    -23190.976 3
  22082660.484     -240713.541 6   -133997.113 1
  23992892.734      265547.348 6    148085.233 1
  22242744.672      303008.740 7    135162.681 1
  24562444.508     -246216.829 5   -136916.069 1
 90 10 22 10 44 45.0000000  0  5 02 06 11 18 15
  20759178.234      -47782.326 7    -27721.687 3
  22076115.227     -275109.961 6   -160799.508 1
  24000166.430      303782.166 5    177878.588 1
  22251022.258      346510.860 7    169060.431 1
  24555778.234     -281249.868 5   -164214.502 1
 90 10 22 10 45  0.0000000  0  5 02 06 11 18 15
  20758080.305      -53547.907 7    -32214.342 3
  22069571.227     -309504.291 6   -187600.287 1
  24007463.367      342094.421 6    207732.289 1
  22259310.859      390069.357 6    203002.110 1
  24549122.750     -316242.651 5   -191481.587 1
 90 10 22 10 45 15.0000000  0  5 02 06 11 18 15
  20756991.492      -59271.893 7    -36674.592 3
  22063023.359     -343903.554 6   -214404.901 1
  24014762.883      380476.752 6    237640.572 1
  22267607.688      433677.196 6    236982.236 1
  24542468.313     -351202.034 5   -218722.641 1
 90 10 22 10 45 30.0000000  0  5 02 06 11 18 15
  20755909.805      -64953.168 7    -41101.549 3
  22056478.695     -378306.196 6   -241212.156 1
  24022081.414      418930.098 6    267604.220 1
  22275916.742      477335.017 6    271001.313 1
  24535825.227     -386126.509 5   -245936.506 1
 90 10 22 10 45 45.0000000  0  5 02 06 11 18 15
  20754837.172      -70590.710 7    -45494.435 3
  22049929.227     -412711.036 6   -268021.109 1
  24029411.977      457455.303 6    297623.865 1
  22284232.672      521043.541 6    305059.901 1
  24529184.836     -421014.585 5   -273121.989 1
 90 10 22 10 46  0.0000000  0  5 02 06 11 18 15
  20753775.039      -76168.394 7    -49840.678 3
  22043384.328     -447101.757 6   -294819.070 1
  24036759.359      496068.265 6    327711.879 1
  22292564.773      564818.910 6    339170.581 1
  24522557.891     -455849.551 5   -300266.110 1
 90 10 22 10 46 15.0000000  0  5 02 06 11 18 15
  20752730.328      -81662.192 7    -54121.565 3
  22036848.305     -481454.077 6   -321587.110 1
  24044132.258      534792.656 6    357886.737 1
  22300910.227      608684.699 6    373351.708 1
  24515942.688     -490607.025 5   -327349.833 1
 90 10 22 10 46 30.0000000  0  5 02 06 11 18 15
  20751693.758      -87109.762 7    -58366.428 3
  22030311.820     -515805.464 6   -348354.424 1
  24051510.461      573590.547 6    388118.859 1
  22309267.195      652603.020 6    407573.775 1
  24509329.102     -525323.909 5   -354401.936 1
 90 10 22 10 46 45.0000000  0  5 02 06 11 18 15
  20750664.797      -92514.649 7    -62578.029 3
  22023778.711     -550158.944 6   -375123.358 1
  24058906.508      612458.208 6    418405.337 1
  22317634.742      696570.267 6    441833.968 1
  24502734.719     -560003.635 5   -381425.068 1
 90 10 22 10 47  0.0000000  0  5 02 06 11 18 15
  20749644.078      -97876.433 7    -66756.035 3
  22017239.156     -584514.062 6   -401893.579 1
  24066320.500      651395.719 6    448746.257 1
  22326010.992      740586.279 6    476132.156 1
  24496144.133     -594644.853 5   -408418.199 1
 90 10 22 10 47 15.0000000  0  5 02 06 11 18 15
  20748633.586     -103192.696 7    -70898.581 3
  22010702.602     -618868.151 6   -428662.992 1
  24073740.992      690405.210 6    479143.253 1
  22334396.063      784653.423 6    510470.198 1
  24489560.297     -629244.943 5   -435379.291 1
 90 10 22 10 47 30.0000000  0  5 02 06 11 18 15
  20747630.219     -108464.853 7    -75006.755 3
  22004161.305     -653222.356 6   -455432.497 1
  24081176.469      729485.097 6    509595.105 1
  22342791.328      828770.106 6    544846.824 1
  24482985.148     -663804.841 5   -462309.061 1
 90 10 22 10 47 45.0000000  0  5 02 06 11 18 15
  20746636.031     -113688.416 7    -79077.056 3
  21997624.750     -687571.897 6   -482198.369 1
  24088625.891      768639.617 6    540105.123 1
  22351198.453      872940.631 6    579265.422 1
  24476417.867     -698319.570 5   -489203.634 1
 90 10 22 10 48  0.0000000  0  5 02 06 11 18 15
  20745650.227     -118869.492 7    -83114.252 3
  21991092.367     -721922.494 6   -508965.063 1
  24096093.195      807862.496 6    570668.400 1
  22359612.719      917158.780 6    613721.118 1
  24469856.445     -732794.901 5   -516067.503 1
 90 10 22 10 48 15.0000000  0  5 02 06 11 18 15
  20744672.813     -124005.999 7    -87116.728 3
  21984554.344     -756272.005 6
  24103569.820      847155.352 6    601286.195 1
  22368036.422      961426.176 6    648215.192 1
  24463306.148     -767228.321 5
 90 10 22 10 48 30.0000000  0  5 02 06 11 18 15
  20743703.211     -129097.157 7    -91083.864 3
  21978015.484     -790619.308 6
  24111059.938      886518.672 5    631958.900 1
  22376469.523     1005743.219 6    682747.950 1
  24456750.516     -801618.514 5
 90 10 22 10 48 45.0000000  0  5 02 06 11 18 15
  20742744.117     -134141.810 7    -95014.759 3
  21971478.180     -824963.219 6
  24118562.320      925953.262 5    662687.130 1
  22384913.344     1050110.676 6    717319.991 1
  24450219.070     -835963.851 5
 90 10 22 10 49  0.0000000  0  5 02 06 11 18 15
  20741791.484     -139147.145 7    -98915.025 3
  21964947.078     -859310.647 6
  24126081.945      965451.687 5    693465.126 1
  22393364.070     1094521.201 6    751925.592 1
  24443693.672     -870271.255 5
 90 10 22 10 49 15.0000000  0  6 02 06 11 18 15 13
  20740848.016     -144109.473 7   -102781.768 3
  21958410.305     -893657.528 6   -642784.549 1
  24133609.648     1005017.492 5    724295.616 1
  22401822.859     1138978.559 6    786567.689 1
  24437174.516     -904536.454 5
  24590437.820          -0.39815
 90 10 22 10 49 30.0000000  0  6 02 06 11 18 15 13
  20739911.867     -149028.455 7   -106614.739 3
  21951873.055     -928003.078 6   -669547.307 1
  24141153.773     1044650.874 5    755178.769 1
  22410293.492     1183482.724 6    821246.254 1
  24430656.984     -938758.489 5   -577018.002 1
  24578168.773      -64481.920 5
 90 10 22 10 49 45.0000000  0  6 02 06 11 18 15 13
  20738982.719     -153903.002 7   -110413.082 3
  21945339.461     -962346.162 6   -696308.145 1
  24148705.914     1084352.511 5    786115.088 1
  22418770.047     1228034.357 6    855961.812 1
  24424159.305     -972935.980 5   -603649.785 1
  24565895.742     -128969.428 5
 90 10 22 10 50  0.0000000  0  6 02 06 11 18 15 13
  20738063.234     -158736.763 7   -114179.644 3
  21938804.352     -996690.043 6   -723069.607 1
  24156269.133     1124118.549 5    817101.604 1
  22427255.852     1272629.667 6    890711.398 1
  24417658.875    -1007071.695 5   -630249.003 1
  24553625.711     -193466.142 5
 90 10 22 10 50 15.0000000  0  6 02 06 11 18 15 13
  20737152.000     -163528.732 7   -117913.643 3
  21932267.102    -1031033.495 6   -749830.733 1
  24163852.180     1163949.772 5    848138.890 1
  22435751.352     1317269.566 6    925495.732 1
  24411168.813    -1041164.373 5   -656814.723 1
  24541347.516     -257970.667 5
 90 10 22 10 50 30.0000000  0  6 02 06 11 18 15 13
  20736248.781     -168276.609 7   -121613.281 3
  21925732.102    -1065374.014 6   -776589.581 1
  24171443.156     1203848.010 5    879228.411 1
  22444255.305     1361955.911 6    960316.263 1
  24404692.320    -1075211.500 5   -683344.918 1
  24529074.734     -322480.080 5        -0.28711
 90 10 22 10 50 45.0000000  0  6 02 06 11 18 15 13
  20735352.148     -172981.998 7   -125279.816 3
  21919198.359    -1099713.010 6   -803347.235 1
  24179049.148     1243811.509 5    910368.804 1
  22452765.672     1406686.698 6    995171.420 1
  24398222.117    -1109214.062 5   -709840.414 1
  24516793.727     -386995.668 5    -50272.151 1
 90 10 22 10 51  0.0000000  0  6 02 06 11 18 15 13
  20734464.953     -177643.175 8   -128911.906 3
  21912666.320    -1134048.572 6   -830102.217 1
  24186665.234     1283841.676 5    941561.127 1
  22461287.375     1451463.695 6   1030062.588 1
  24391761.852    -1143169.904 5   -736299.483 1
  24504519.953     -451515.506 5   -100547.359 1
 90 10 22 10 51 15.0000000  0  6 02 06 11 18 15 13
  20733585.344     -182263.869 7   -132512.443 3
  21906131.641    -1168384.136 6   -856857.195 1
  24194297.547     1323934.433 5    972802.234 1
  22469815.508     1496282.778 6   1064986.538 1
  24385302.211    -1177082.560 5   -762724.902 1
  24492239.297     -516042.747 5   -150828.326 1
 90 10 22 10 51 30.0000000  0  6 02 06 11 18 15 13
  20732716.570     -186837.741 7   -136076.494 3
  21899597.047    -1202712.930 6   -883606.904 1
  24201940.203     1364095.914 5   1004096.897 1
  22478352.672     1541150.241 6   1099948.194 1
  24378861.164    -1210944.813 5   -789111.049 1
  24479959.609     -580570.688 5   -201109.800 1
 90 10 22 10 51 45.0000000  0  6 02 06 11 18 15 13
  20731854.148     -191361.634 7   -139601.608 3
  21893070.008    -1237031.808 6   -910348.881 1
  24209594.258     1404329.097 5   1035447.427 1
  22486899.367     1586068.647 6   1134949.547 1
  24372430.109    -1244753.211 5   -815455.233 1
  24467681.547     -645095.726 5
 90 10 22 10 52  0.0000000  0  6 02 06 11 18 15 13
  20731002.242     -195841.099 7   -143092.100 3
  21886539.055    -1271345.940 6   -937087.162 1
  24217262.063     1444628.201 5   1066849.321 1
  22495456.016     1631032.107 6   1169986.006 1
  24366010.758    -1278512.859 5   -841761.442 1
  24455400.023     -709622.643 5
 90 10 22 10 52 15.0000000  0  6 02 06 11 18 15 13
  20730158.992     -200272.104 8   -146544.829 3
  21880010.008    -1305650.851 6   -963818.254 1
  24224942.844     1484996.933 5   1098305.456 1
  22504020.922     1676044.910 6   1205060.919 1
  24359592.289    -1312219.049 5   -868026.012 1
  24443119.359     -774146.933 5        -0.43211
 90 10 22 10 52 30.0000000  0  6 02 06 11 18 15 13
  20729324.992     -204654.823 8   -149959.934 3
  21873483.172    -1339946.439 6   -990542.090 1
  24232641.492     1525434.964 5   1129815.594 1
  22512597.484     1721106.594 6   1240173.920 1
  24353181.398    -1345871.626 5   -894248.793 1
  24430844.555     -838668.144 5    -50276.640 1
 90 10 22 10 52 45.0000000  0  6 02 06 11 18 15 13
  20728500.734     -208991.958 8   -153339.521 3
  21866957.109    -1374235.116 6  -1017260.531 1
  24240351.734     1565939.245 5   1161377.346 1
  22521182.203     1766214.157 6   1275322.671 1
  24346797.547    -1379472.829 5   -920431.509 1
  24418563.594     -903188.551 5   -100552.261 1
 90 10 22 10 53  0.0000000  0  6 02 06 11 18 15 13
  20727684.789     -213276.113 8   -156677.825 3
  21860435.414    -1408509.466 6  -1043967.817 1
  24248072.633     1606516.672 5   1192996.127 1
  22529776.148     1811374.477 6   1310512.523 1
  24340414.617    -1413014.980 5   -946568.234 1
  24406288.500     -967700.733 5
 90 10 22 10 53 15.0000000  0  6 02 06 11 18 15 13
  20726878.039     -217519.958 7   -159984.716 3
  21853913.500    -1442781.865 6  -1070673.584 1
  24255806.406     1647154.391 5   1224661.861 1
  22538376.422     1856574.857 6   1345733.594 1
  24334036.695    -1446510.281 5   -972668.460 1
  24394011.875    -1032216.877 5
 90 10 22 10 53 30.0000000  0  6 02 06 11 18 15 13
  20726078.258     -221723.262 7   -163260.017 3
  21847394.797    -1477051.699 6  -1097377.343 1
  24263547.430     1687852.431 6   1256374.604 1
  22546986.297     1901815.008 6   1380985.658 1
  24327672.648    -1479957.987 5   -998731.595 1
  24381734.180    -1096735.936 5        -0.38811
 90 10 22 10 53 45.0000000  0  6 02 06 11 18 15 13
  20725284.023     -225888.665 7   -166505.778 3
  21840871.141    -1511321.352 6  -1124080.968 1
  24271302.008     1728608.061 5   1288132.235 1
  22555601.734     1947092.270 6   1416266.640 1
  24321313.609    -1513359.992 5  -1024759.104 1
  24369457.688    -1161260.172 5    -50278.999 1
 90 10 22 10 54  0.0000000  0  6 02 06 11 18 15 13
  20724499.016     -230013.459 7   -169719.897 3
  21834351.461    -1545588.013 6  -1150782.260 1
  24279069.961     1769423.482 5   1319936.446 1
  22564224.680     1992409.108 6   1451578.458 1
  24314968.633    -1546713.507 5  -1050748.846 1
  24357175.750    -1225786.518 5   -100559.254 1
 90 10 22 10 54 15.0000000  0  6 02 06 11 18 15 13
  20723722.570     -234094.871 7   -172900.220 3
  21827829.945    -1579848.356 6  -1177478.624 1
  24286848.977     1810301.451 5   1351789.403 1
  22572857.719     2037768.107 6   1486923.124 1
  24308633.984    -1580015.107 5  -1076698.128 1
  24344898.500    -1290311.535 5
 90 10 22 10 54 30.0000000  0  6 02 06 11 18 15 13
  20722954.305     -238128.247 7   -176043.104 3
  21821315.102    -1614097.669 6  -1204166.394 1
  24294640.164     1851246.183 5   1383694.385 1
  22581497.344     2083173.473 6   1522303.930 1
  24302309.883    -1613259.738 5  -1102603.009 1
  24332621.727    -1354830.235 5
 90 10 22 10 54 45.0000000  0  6 02 06 11 18 15 13
  20722194.859     -242119.566 7   -179153.221 3
  21814798.555    -1648341.614 6  -1230849.984 1
  24302446.336     1892251.330 5   1415646.427 1
  22590144.836     2128618.733 6   1557715.811 1
  24295988.125    -1646452.977 5  -1128467.874 1
  24320341.039    -1419348.314 4        -0.11211
 90 10 22 10 55  0.0000000  0  6 02 06 11 18 15 13
  20721443.039     -246067.781 7   -182229.746 3
  21808280.945    -1682578.913 6  -1257528.379 2
  24310256.172     1933317.624 5   1447646.158 1
  22598800.406     2174104.922 6   1593159.599 1
  24289683.219    -1679593.500 5  -1154291.591 1
  24308062.656    -1483864.117 4    -50272.155 1
 90 10 22 10 55 15.0000000  0  6 02 06 11 18 15 13
  20720701.445     -249971.852 7   -185271.872 3
  21801769.055    -1716808.163 6  -1284200.511 1
  24318085.719     1974446.078 5   1479694.301 1
  22607463.805     2219633.201 6   1628636.176 1
  24283389.484    -1712679.380 5  -1180072.773 1
  24295788.000    -1548375.861 5   -100541.045 1
 90 10 22 10 55 30.0000000  0  6 02 06 11 18 15 13
  20719967.289     -253830.959 7   -188278.969 3
  21795259.188    -1751028.180 6  -1310865.456 1
  24325925.563     2015637.401 5   1511791.413 1
  22616136.617     2265204.009 6   1664145.891 1
  24277104.445    -1745709.464 5  -1205810.486 1
  24283515.438    -1612882.455 5   -150805.900 1
 90 10 22 10 55 45.0000000  0  6 02 06 11 18 15 13
  20719239.672     -257647.588 7   -191252.964 3
  21788744.508    -1785241.369 6  -1337525.085 2
  24333768.766     2056888.620 5   1543935.210 1
  22624816.188     2310814.390 6   1699686.448 1
  24270822.977    -1778685.832 5  -1231506.343 1
  24271237.781    -1677386.046 4   -201068.433 1
 90 10 22 10 56  0.0000000  0  6 02 06 11 18 15 13
  20718522.219     -261421.949 7   -194194.024 3
  21782235.828    -1819447.665 6  -1364179.336 1
  24341631.180     2098199.184 5   1576125.251 1
  22633502.352     2356463.683 6   1735257.324 1
  24264559.125    -1811608.359 5  -1257160.250 1
  24258964.164    -1741886.470 4   -251328.508 1
 90 10 22 10 56 15.0000000  0  6 02 06 11 18 15 13
  20717811.758     -265152.583 7   -197101.009 3
  21775730.547    -1853645.219 6  -1390826.771 2
  24349506.945     2139570.356 5   1608362.510 1
  22642195.820     2402153.319 6   1770859.624 1
  24258305.961    -1844474.963 5  -1282770.572 1
  24246693.289    -1806381.641 5   -301584.444 1
 90 10 22 10 56 30.0000000  0  6 02 06 11 18 15 13
  20717110.102     -268840.631 7   -199974.816 3
  21769224.172    -1887835.136 6  -1417468.264 1
  24357392.523     2181000.568 5   1640645.796 1
  22650897.523     2447881.753 6   1806492.162 1
  24252067.484    -1877286.391 5  -1308337.903 1
  24234420.703    -1870872.530 5   -351837.085 1
 90 10 22 10 56 45.0000000  0  6 02 06 11 18 15 13
  20716416.563     -272484.136 7   -202813.905 3
  21762720.430    -1922014.860 6  -1444101.817 1
  24365286.688     2222491.638 5   1672976.497 1
  22659607.688     2493650.817 6   1842156.365 1
  24245828.570    -1910040.261 5  -1333860.364 1
  24222151.547    -1935356.245 4   -402084.137 1
 90 10 22 10 57  0.0000000  0  6 02 06 11 18 15 13
  20715732.023     -276081.782 8   -205617.261 3
  21756216.539    -1956183.012 6  -1470726.345 1
  24373193.414     2264044.476 5   1705355.311 1
  22668324.430     2539461.719 6   1877853.179 1
  24239604.594    -1942734.719 5  -1359336.581 1
  24209879.789    -1999831.215 4   -452324.353 1
 90 10 22 10 57 15.0000000  0  6 02 06 11 18 15 13
  20715058.195     -279635.072 8   -208386.055 3
  21749715.852    -1990340.709 6  -1497342.733 2
  24381112.180     2305657.245 5   1737780.849 1
  22677049.172     2585312.605 6   1913581.142 1
  24233403.109    -1975370.971 5  -1384767.401 1
  24197611.172    -2064298.443 4   -502558.559 1
 90 10 22 10 57 30.0000000  0  6 02 06 11 18 15 13
  20714387.578     -283147.822 8   -211123.258 3
  21743219.070    -2024491.613 6  -1523953.821 2
  24389044.500     2347325.964 5   1770249.964 1
  22685780.211     2631199.389 6   1949337.079 1
  24227192.648    -2007952.242 5  -1410155.382 1
  24185345.930    -2128761.275 5   -552789.325 1
 90 10 22 10 57 45.0000000  0  6 02 06 11 18 15 13
  20713726.578     -286617.780 8   -213827.119 3
  21736721.133    -2058633.075 6  -1550557.555 2
  24396980.070     2389052.694 5   1802764.292 1
  22694520.031     2677124.119 6   1985122.582 1
  24221002.602    -2040476.011 5  -1435498.593 1
  24173080.820    -2193217.051 5   -603014.597 1
 90 10 22 10 58  0.0000000  0  6 02 06 11 18 15 13
  20713075.516     -290047.024 8   -216499.251 3
  21730227.234    -2092767.010 6  -1577155.420 2
  24404934.773     2430835.081 5   1835321.983 1
  22703266.945     2723084.345 6   2020935.747 1
  24214831.344    -2072943.728 5  -1460798.066 1
  24160814.508    -2257667.395 5   -653235.614 1
 90 10 22 10 58 15.0000000  0  6 02 06 11 18 15 13
  20712430.727     -293429.972 8   -219135.310 3
  21723730.359    -2126887.477 6  -1603742.789 2
  24412895.516     2472678.347 5   1867927.130 1
  22712019.656     2769085.226 6   2056780.585 1
  24208662.992    -2105349.370 5  -1486049.207 1
  24148553.539    -2322106.481 5   -703447.895 1
 90 10 22 10 58 30.0000000  0  6 02 06 11 18 15 13
  20711795.164     -296772.197 8   -221739.641 3
  21717241.195    -2160999.772 7  -1630323.795 2
  24420869.508     2514576.749 5   1900575.232 1
  22720779.234     2815121.072 6   2092652.668 1
  24202505.344    -2137698.153 5  -1511256.052 1
  24136294.125    -2386539.099 5   -753655.112 1
 90 10 22 10 58 45.0000000  0  6 02 06 11 18 15 13
  20711167.313     -300068.610 7   -224308.277 3
  21710752.297    -2195098.560 6  -1656894.272 2
  24428852.086     2556535.065 5   1933270.031 1
  22729548.977     2861196.862 6   2128555.877 1
  24196360.109    -2169984.293 5  -1536414.053 1
  24124034.547    -2450959.559 5   -803852.866 1
 90 10 22 10 59  0.0000000  0  6 02 06 11 18 15 13
  20710550.578     -303319.295 7   -226841.283 3
  21704265.234    -2229183.769 6  -1683454.169 2
  24436847.578     2598552.892 5   1966011.170 1
  22738323.344     2907312.152 6   2164489.867 1
  24190237.281    -2202207.764 5  -1561523.222 1
  24111775.633    -2515367.827 5   -854041.117 1
 90 10 22 10 59 15.0000000  0  6 02 06 11 18 15 13
  20709938.406     -306527.579 7   -229341.241 3
  21697782.320    -2263258.199 6  -1710005.672 2
  24444855.234     2640626.744 5   1998795.993 1
  22747106.641     2953463.343 6   2200451.837 1
  24184112.453    -2234371.406 5  -1586585.789 1
  24099522.602    -2579766.541 5   -904221.942 1
 90 10 22 10 59 30.0000000  0  6 02 06 11 18 15 13
  20709336.992     -309689.978 7   -231805.450 3
  21691300.898    -2297318.214 7  -1736545.937 2
  24452872.258     2682759.818 5   2031626.935 1
  22755897.398     2999653.822 6   2236444.406 1
  24177996.469    -2266471.318 5  -1611598.697 1
  24087269.266    -2644151.820 5   -954392.270 1
 90 10 22 10 59 45.0000000  0  6 02 06 11 18 15 13
  20708742.133     -312812.997 7   -234238.974 3
  21684821.352    -2331369.948 7  -1763079.748 2
  24460897.352     2724945.144 5   2064498.601 1
  22764693.852     3045876.825 6   2272462.328 1
  24171905.711    -2298513.738 5  -1636566.813 1
  24075021.242    -2708529.651 5  -1004556.809 1
 90 10 22 11  0  0.0000000  0  6 02 06 11 18 15 13
  20708155.836     -315892.642 7   -236638.694 3
  21678343.313    -2365409.196 6  -1789603.824 2
  24468936.867     2767186.493 4   2097413.912 1
  22773496.984     3092136.049 6   2308508.472 1
  24165817.594    -2330493.817 5  -1661486.336 1
  24062772.328    -2772895.571 5  -1054712.072 1
 90 10 22 11  0 15.0000000  0  6 02 06 11 18 15 13
  20707578.711     -318928.890 7   -239004.603 3
  21671867.828    -2399435.570 6  -1816117.874 2
  24476986.398     2809483.778 4   2130372.810 1
  22782307.156     3138431.214 6   2344582.623 1
  24159754.914    -2362411.053 5  -1686356.883 1
  24050524.047    -2837249.085 5  -1104857.661 1
 90 10 22 11  0 30.0000000  0  6 02 06 11 18 15 13
  20707009.133     -321923.679 7   -241338.200 3
  21665396.938    -2433450.864 7  -1842623.293 2
  24485048.055     2851834.765 4   2163373.561 1
  22791121.875     3184759.967 6   2380682.941 1
  24153678.320    -2394267.149 5  -1711179.829 1
  24038279.109    -2901591.738 5  -1154994.765 1
 90 10 22 11  0 45.0000000  0  6 02 06 11 18 15 13
  20706445.703     -324884.474 8   -243645.313 3
  21658924.000    -2467462.169 6  -1869125.607 2
  24493111.422     2894231.543 4   2196410.007 1
  22799942.711     3231114.825 6   2416803.605 1
  24147632.953    -2426068.795 5  -1735960.302 1
  24026040.266    -2965930.644 5  -1205128.967 1
 90 10 22 11  1  0.0000000  0  6 02 06 11 18 15 13
  20705889.609     -327806.677 7   -245922.350 3
  21652453.945    -2501464.724 6  -1895621.105 2
  24501191.617     2936678.451 5   2229485.516 1
  22808768.625     3277499.940 6   2452947.840 1
  24141590.703    -2457811.500 5  -1760694.841 1
  24013795.594    -3030260.761 5  -1255256.363 1
 90 10 22 11  1 15.0000000  0  6 02 06 11 18 15 13
  20705341.023     -330690.423 7   -248169.432 3
  21645981.680    -2535458.449 6  -1922109.712 2
  24509276.141     2979175.001 5   2262599.718 1
  22817602.992     3323914.674 6   2489115.161 1
  24135563.625    -2489494.769 5  -1785383.127 1
  24001556.281    -3094581.691 5  -1305376.546 1
 90 10 22 11  1 30.0000000  0  6 02 06 11 18 15 13
  20704799.008     -333536.412 7   -250387.087 3
  21639514.789    -2569443.498 6  -1948591.564 2
  24517372.945     3021720.339 5   2295751.940 1
  22826440.813     3370358.476 6   2525305.128 1
  24129542.055    -2521118.936 5  -1810025.312 1
  23989318.781    -3158893.699 5  -1355489.784 1
 90 10 22 11  1 45.0000000  0  6 02 06 11 18 15 13
  20704264.805     -336343.464 7   -252574.397 3
  21633052.477    -2603418.601 6  -1975065.666 2
  24525480.984     3064315.373 5   2328942.878 1
  22835283.773     3416832.039 6   2561518.303 1
  24123538.891    -2552681.920 5  -1834619.826 1
  23977082.453    -3223195.132 5  -1405594.814 1
 90 10 22 11  2  0.0000000  0  6 02 06 11 18 15 13
  20703737.070     -339114.768 7   -254733.851 3
  21626584.352    -2637386.668 6  -2001534.293 2
  24533590.219     3106956.541 5   2362169.772 1
  22844133.125     3463332.011 6   2597752.040 1
  24117542.586    -2584186.830 5  -1859169.084 1
  23964848.250    -3287488.738 5  -1455693.714 1
 90 10 22 11  2 15.0000000  0  6 02 06 11 18 15 13
  20703219.438     -341841.869 7   -256858.860 3
  21620124.680    -2671338.918 6  -2027990.595 2
  24541717.617     3149652.013 5   2395438.957 1
  22852987.648     3509866.584 6   2634012.740 1
  24111559.742    -2615624.723 5  -1883666.143 1
  23952615.492    -3351765.647 5  -1505779.619 1
 90 10 22 11  2 30.0000000  0  6 02 06 11 18 15 13
  20702708.203     -344528.189 8   -258952.093 3
  21613666.367    -2705278.434 6  -2054436.974 2
  24549852.602     3192398.335 4   2428747.767 1
  22861848.781     3556432.180 6   2670297.617 1
  24105591.328    -2646998.412 5  -1908113.137 1
  23940385.320    -3416028.517 5  -1555854.578 1
 90 10 22 11  2 45.0000000  0  6 02 06 11 18 15 13
  20702203.180     -347178.386 8   -261017.181 3
  21607213.156    -2739209.549 7  -2080876.804 2
  24557996.516     3235190.414 4   2462092.222 1
  22870714.461     3603023.980 6   2706602.912 1
  24099626.359    -2678312.510 5  -1932513.715 1
  23928159.836    -3480281.713 5  -1605921.976 1
 90 10 22 11  3  0.0000000  0  6 02 06 11 18 15 13
  20701707.016     -349787.871 7   -263050.542 3
  21600756.898    -2773127.481 7  -2107306.361 2
  24566148.102     3278032.530 4   2495475.652 1
  22879586.977     3649645.851 6   2742931.638 1
  24093681.930    -2709562.025 5  -1956863.968 1
  23915937.242    -3544520.158 5  -1655977.924 1
 90 10 22 11  3 15.0000000  0  6 02 06 11 18 15 13
  20701217.875     -352355.988 7   -265051.672 3
  21594306.641    -2807031.184 7  -2133724.822 2
  24574312.281     3320925.215 5   2528898.509 1
  22888465.055     3696298.558 6   2779284.392 1
  24087760.070    -2740745.306 5  -1981162.607 1
  23903716.547    -3608742.870 5  -1706021.568 1
 90 10 22 11  3 30.0000000  0  6 02 06 11 18 15 13
  20700735.695     -354888.383 8   -267024.971 3
  21587854.758    -2840925.966 7  -2160136.342 2
  24582482.508     3363862.519 5   2562356.125 1
  22897345.531     3742976.184 6   2815656.566 1
  24081831.633    -2771867.831 5  -2005413.906 1
  23891499.336    -3672954.701 5  -1756056.772 1
 90 10 22 11  3 45.0000000  0  6 02 06 11 18 15 13
  20700261.273     -357381.700 8   -268967.810 3
  21581406.938    -2874808.139 7  -2186538.031 2
  24590660.570     3406847.489 5   2595850.908 1
  22906233.344     3789681.861 6   2852050.605 1
  24075915.664    -2802925.562 5  -2029614.735 1
  23879280.617    -3737151.920 5  -1806080.545 1
 90 10 22 11  4  0.0000000  0  6 02 06 11 18 15 13
  20699794.539     -359835.199 7   -270879.628 3
  21574963.898    -2908677.001 7  -2212929.358 2
  24598850.750     3449880.453 5   2629383.079 1
  22915128.078     3836415.869 6   2888466.705 1
  24070023.703    -2833917.888 5  -2053764.561 1
  23867067.313    -3801333.520 5  -1856092.178 1
 90 10 22 11  4 15.0000000  0  6 02 06 11 18 15 13
  20699335.711     -362249.633 8   -272761.001 3
  21568518.359    -2942532.989 7  -2239310.641 2
  24607049.344     3492960.391 5   2662951.885 1
  22924025.187     3883177.205 6   2924904.106 1
  24064136.961    -2864845.174 5  -2077863.728 1
  23854857.313    -3865499.860 5  -1906091.905 1
 90 10 22 11  4 30.0000000  0  6 02 06 11 18 15 13
  20698884.539     -364623.014 7   -274610.386 3
  21562079.586    -2976373.628 7  -2265679.966 2
  24615257.047     3536089.148 5   2696558.722 1
  22932927.977     3929967.841 6   2961364.339 1
  24058270.133    -2895704.684 5  -2101910.064 1
  23842651.180    -3929648.403 5  -1956077.776 1
 90 10 22 11  4 45.0000000  0  6 02 06 11 18 15 13
  20698438.898     -366954.740 7   -276427.326 3
  21555645.781    -3010197.920 7  -2292036.557 2
  24623474.125     3579267.058 5   2730203.843 1
  22941839.141     3976787.894 6   2997847.491 1
  24052401.055    -2926495.097 5  -2125902.576 1
  23830447.250    -3993778.000 5  -2006048.897 1
 90 10 22 11  5  0.0000000  0  6 02 06 11 18 15 13
  20698003.781     -369249.589 7   -278215.515 3
  21549210.227    -3044010.647 7  -2318384.128 2
  24631696.313     3622488.871 5   2763883.169 1
  22950753.836     4023631.983 6   3034349.386 1
  24046558.008    -2957221.236 5  -2149845.009 1
  23818245.625    -4057893.205 5  -2056008.790 1
 90 10 22 11  5 15.0000000  0  6 02 06 11 18 15 13
  20697572.898     -371507.076 7   -279974.594 3
  21542779.320    -3077810.975 7  -2344722.045 2
  24639928.484     3665754.889 5   2797596.953 1
  22959671.086     4070500.730 6   3070870.491 1
  24040719.070    -2987881.895 5  -2173736.445 1
  23806049.266    -4121993.001 5  -2105956.686 1
 90 10 22 11  5 30.0000000  0  6 02 06 11 18 15 13
  20697152.063     -373724.214 7   -281702.232 3
  21536350.219    -3111595.541 7  -2371047.675 2
  24648173.211     3709067.830 5   2831347.305 1
  22968596.383     4117396.902 6   3107412.975 1
  24034902.289    -3018473.741 5  -2197574.220 1
  23793854.125    -4186073.775 5  -2155889.737 1
 90 10 22 11  5 45.0000000  0  6 02 06 11 18 15 13
  20696736.836     -375901.387 7   -283398.728 3
  21529924.023    -3145364.307 7  -2397361.001 2
  24656422.305     3752427.189 5   2865133.815 1
  22977524.773     4164319.844 6   3143976.296 1
  24029090.180    -3048996.928 5  -2221358.495 1
  23781661.523    -4250135.299 5  -2205807.808 1
 90 10 22 11  6  0.0000000  0  6 02 06 11 18 15 13
  20696328.992     -378043.078 7   -285067.579 3
  21523499.188    -3179121.589 7  -2423665.382 2
  24664682.242     3795828.041 5   2898952.642 1
  22986459.148     4211264.673 6   3180556.680 1
  24023299.578    -3079455.521 5  -2245092.467 1
  23769471.641    -4314181.701 5  -2255714.060 1
 90 10 22 11  6 15.0000000  0  6 02 06 11 18 15 13
  20695929.680     -380146.922 7   -286706.937 3
  21517077.867    -3212864.836 7  -2449958.826 2
  24672949.328     3839272.548 4   2932805.514 1
  22995397.508     4258233.344 6   3217155.647 1
  24017514.617    -3109846.721 5  -2268773.896 1
  23757290.750    -4378210.305 5  -2305606.485 1
 90 10 22 11  6 30.0000000  0  6 02 06 11 18 15 13
  20695537.227     -382211.907 7   -288316.016 3
  21510660.422    -3246592.715 7  -2476240.288 2
  24681225.586     3882761.295 5   2966692.845 1
  23004339.930     4305226.913 6   3253774.015 1
  24011739.258    -3140168.597 5  -2292401.329 1
  23745110.703    -4442219.920 5  -2355484.086 1
 90 10 22 11  6 45.0000000  0  6 02 06 11 18 15 13
  20695151.508     -384238.831 7   -289895.436 3
  21504244.898    -3280305.474 7  -2502509.972 2
  24689508.984     3926293.365 5   3000613.908 1
  23013286.320     4352244.451 6   3290411.052 1
  24005983.648    -3170421.727 5  -2315975.198 1
  23732932.148    -4506210.576 5  -2405346.951 1
 90 10 22 11  7  0.0000000  0  6 02 06 11 18 15 13
  20694772.695     -386226.528 7   -291444.292 3
  21497832.242    -3314001.850 7  -2528766.883 2
  24697801.906     3969869.581 5   3034569.439 1
  23022238.633     4399286.535 6   3327067.210 1
  24000247.523    -3200604.442 5  -2339494.190 1
  23720755.969    -4570180.543 5  -2455193.661 1
 90 10 22 11  7 15.0000000  0  6 02 06 11 18 15 13
  20694402.422     -388175.281 7   -292962.804 3
  21491425.484    -3347681.882 7  -2555011.061 2
  24706104.508     4013489.289 5   3068558.794 1
  23031195.016     4446352.728 6   3363742.159 1
  23994505.859    -3230716.772 5  -2362958.321 1
  23708591.234    -4634129.701 5  -2505024.168 1
 90 10 22 11  7 30.0000000  0  6 02 06 11 18 15 13
  20694038.547     -390084.655 7   -294450.633 3
  21485018.570    -3381344.825 7  -2581241.921 2
  24714413.219     4057152.662 5   3102582.212 1
  23040155.539     4493443.143 6   3400435.994 1
  23988795.586    -3260757.906 5  -2386366.975 1
  23696425.406    -4698057.157 5  -2554837.753 1
 90 10 22 11  7 45.0000000  0  6 02 06 11 18 15 13
  20693682.547     -391954.396 7   -295907.579 3
  21478616.797    -3414990.071 7  -2607458.997 2
  24722727.734     4100859.528 5   3136639.514 1
  23049121.695     4540557.819 6   3437148.719 1
  23983091.305    -3290727.418 5  -2409719.829 1
  23684263.797    -4761962.381 5  -2604634.046 1
 90 10 22 11  7 59.9990000  0  6 02 06 11 18 15 13
  20693333.714     -393788.764 7   -297336.958 3
  21472214.808    -3448619.666 7  -2633663.872 2
  24731051.550     4144602.401 5   3170724.872 1
  23058092.019     4587688.937 6   3473874.262 1
  23977396.417    -3320627.078 5  -2433018.252 1
  23672106.800    -4825844.971 5  -2654412.662 1
 90 10 22 11  8 14.9990000  0  6 02 06 11 18 15 13
  20692992.229     -395582.906 7   -298734.990 3
  21465819.823    -3482232.117 7  -2659855.398 2
  24739384.300     4188392.233 5   3204846.841 1
  23067063.269     4634847.903 6   3510621.500 1
  23971728.769    -3350454.892 5  -2456260.702 1
  23659953.745    -4889707.547 5  -2704175.709 1
 90 10 22 11  8 29.9990000  0  6 02 06 11 18 15 13
  20692658.831     -397337.328 7   -300102.072 3
  21459428.253    -3515825.901 7  -2686032.365 2
  24747726.112     4232225.145 5   3239002.317 1
  23076043.675     4682030.591 6   3547387.218 1
  23966063.128    -3380209.456 5  -2479446.074 1
  23647807.597    -4953546.228 5  -2753920.145 1
 90 10 22 11  8 44.9990000  0  6 02 06 11 18 15 13
  20692330.769     -399055.676 7   -301441.044 3
  21453033.722    -3549404.377 7  -2712197.408 2
  24756077.409     4276097.061 5   3273188.330 1
  23085025.292     4729232.781 6   3584168.144 1
  23960421.183    -3409894.231 5  -2502577.041 1
  23635661.120    -5017364.112 5  -2803648.355 1
 90 10 22 11  8 59.9990000  0  6 02 06 11 18 15 13
  20692011.550     -400734.217 7   -302748.999 3
  21446651.050    -3582963.578 7  -2738347.440 2
  24764431.128     4320011.368 5   3307407.239 1
  23094011.425     4776457.735 6   3620966.802 1
  23954773.636    -3439504.899 5  -2525650.270 1
  23623521.136    -5081157.190 5  -2853357.228 1
 90 10 22 11  9 14.9990000  0  6 02 06 11 18 15 13
  20691700.581     -402368.940 7   -304022.814 3
  21440271.526    -3616499.111 7  -2764479.020 2
  24772794.245     4363971.818 5   3341662.155 1
  23103003.300     4823709.623 6   3657786.444 1
  23949164.987    -3469036.829 5  -2548662.152 1
  23611389.456    -5144921.001 5  -2903043.305 1
 90 10 22 11  9 29.9990000  0  6 02 06 11 18 15 13
  20691396.440     -403964.677 7   -305266.248 3
  21433890.581    -3650015.472 7  -2790595.668 2
  24781167.456     4407973.345 4   3375949.052 1
  23111999.198     4870983.448 6   3694623.196 1
  23943546.456    -3498494.492 5  -2571616.168 1
  23599259.769    -5208659.919 5  -2952710.000 1
 90 10 22 11  9 44.9990000  0  6 02 06 11 18 15 13
  20691100.808     -405521.370 7   -306479.256 3
  21427518.925    -3683512.245 7  -2816697.055 2
  24789546.675     4452015.770 5   3410267.817 1
  23120999.151     4918278.818 6   3731476.727 1
  23937962.354    -3527877.373 5  -2594511.895 1
  23587135.815    -5272373.408 5  -3002356.871 1
 90 10 22 11  9 59.9990000  0  6 02 06 11 18 15 13
  20690811.269     -407038.427 7   -307661.382 3
  21421146.651    -3716988.546 7  -2842782.472 2
  24797937.534     4496099.436 4   3444618.704 1
  23130001.714     4965596.107 6   3768347.336 1
  23932389.636    -3557184.692 5  -2617348.768 1
  23575016.300    -5336060.239 5  -3051982.962 1
 90 10 22 11 10 14.9990000  0  6 02 06 11 18 15 13
  20690530.964     -408516.058 7   -308812.772 3
  21414781.167    -3750444.428 7  -2868851.986 2
  24806335.347     4540223.659 5   3479001.237 1
  23139011.065     5012934.728 6   3805234.567 1
  23926826.120    -3586415.873 6  -2640126.277 1
  23562905.636    -5399720.155 5  -3101588.066 1
 90 10 22 11 10 29.9990000  0  6 02 06 11 18 15 13
  20690258.198     -409953.931 7   -309933.198 3
  21408418.440    -3783879.203 7  -2894905.055 2
  24814739.550     4584388.666 5   3513415.512 1
  23148023.565     5060294.955 6   3842138.628 1
  23921273.058    -3615570.351 6  -2662844.033 1
  23550795.831    -5463352.535 6  -3151171.729 1
 90 10 22 11 10 44.9990000  0  6 02 06 11 18 15 13
  20689990.136     -411356.346 7   -311025.988 3
  21402057.472    -3817296.919 7  -2920944.835 2
  24823151.315     4628589.615 5   3547857.812 1
  23157038.284     5107672.136 6   3879055.916 1
  23915743.003    -3644652.258 6  -2685505.254 1
  23538690.597    -5526961.162 5  -3200736.891 1
 90 10 22 11 10 59.9990000  0  6 02 06 11 18 15 13
  20689732.604     -412717.815 7   -312086.872 3
  21395704.261    -3850691.842 7  -2946966.857 2
  24831571.503     4672831.787 5   3582332.261 1
  23166058.808     5155071.099 6   3915990.167 1
  23910229.612    -3673655.582 6  -2708105.234 1
  23526591.284    -5590540.428 6  -3250279.176 1
 90 10 22 11 11 14.9990000  0  6 02 06 11 18 15 13
  20689480.753     -414037.290 7   -313115.034 3
  21389353.573    -3884062.483 7  -2972969.950 2
  24839999.479     4717116.225 5   3616839.605 1
  23175080.190     5202492.967 6   3952942.266 1
  23904717.167    -3702578.769 6  -2730642.770 1
  23514499.644    -5654088.566 6  -3299797.198 1
 90 10 22 11 11 29.9990000  0  6 02 06 11 18 15 13
  20689236.573     -415317.557 7   -314112.648 3
  21383006.776    -3917411.428 7  -2998956.142 2
  24848433.151     4761439.654 5   3651377.378 1
  23184109.831     5249934.822 6   3989909.959 1
  23899227.495    -3731424.304 5  -2753119.791 1
  23502411.745    -5717607.845 5  -3349292.724 1
 90 10 22 11 11 44.9990000  0  7 02 06 11 18 15 13 09
  20689000.112     -416556.419 7   -315077.997 3
  21376665.464    -3950736.079 7  -3024923.402 2
  24856874.448     4805804.053 5   3685947.052 1
  23193140.995     5297398.379 5   4026894.542 1
  23893762.761    -3760189.730 6  -2775534.386 1
  23490331.011    -5781095.776 6  -3398763.838 1
  24405687.683          -0.34512
 90 10 22 11 11 59.9990000  0  7 02 06 11 18 15 13 09
  20688771.120     -417758.657 7   -316014.809 3
  21370328.901    -3984041.020 7  -3050875.306 2
  24865324.190     4850204.195 5   3720544.561 1
  23202176.690     5344878.471 5   4063892.011 1
  23888298.784    -3788879.257 6  -2797889.835 1
  23478255.886    -5844556.914 6  -3448214.073 1
  24396229.386      -49728.498 3
 90 10 22 11 12 14.9990000  0  7 02 06 11 18 15 13 09
  20688551.347     -418916.295 7   -316916.868 3
  21363995.659    -4017317.763 7  -3076805.230 2
  24873783.683     4894648.133 5   3755176.215 1
  23211216.175     5392383.130 5   4100908.629 1
  23882860.269    -3817484.282 6  -2820179.447 1
  23466184.940    -5907982.414 6  -3497636.522 1
  24386757.886      -99478.092 2
 90 10 22 11 12 29.9990000  0  7 02 06 11 18 15 13 09
  20688339.050     -420035.100 7   -317788.670 3
  21357670.034    -4050571.827 7  -3102717.480 2
  24882245.784     4939129.487 4   3789836.995 1
  23220262.214     5439906.155 6   4137939.553 1
  23877427.894    -3846010.724 6  -2842407.834 1
  23454122.651    -5971377.447 6  -3547035.265 1
  24377285.769     -149255.014 2
 90 10 22 11 12 44.9990000  0  7 02 06 11 18 15 13 09
  20688134.269     -421117.273 7   -318631.917 3
  21351343.698    -4083805.269 7  -3128613.662 2
  24890717.495     4983645.942 3   3824525.158 1
  23229307.808     5487445.152 6   4174982.927 1
  23872019.581    -3874460.095 6  -2864576.155 1
  23442062.706    -6034743.651 6  -3596411.500 1
  24367809.550     -199061.142 2
 90 10 22 11 12 59.9990000  0  7 02 06 11 18 15 13 09
  20687934.167     -422158.488 7   -319443.251 3
  21345025.167    -4117013.248 7  -3154490.012 2
  24899193.409     5028201.507 5   3859243.738 1
  23238357.870     5535004.220 6   4212041.941 1
  23866606.159    -3902827.251 5  -2886680.424 1
  23430012.151    -6098076.579 6  -3645761.834 1
  24358325.276     -248891.902 2        -0.48511
 90 10 22 11 13 14.9990000  0  7 02 06 11 18 15 13 09
  20687744.636     -423155.196 7   -320219.904 3
  21338710.933    -4150192.022 7  -3180343.604 2
  24907679.948     5072799.462 5   3893995.401 1
  23247413.847     5582586.469 6   4249119.010 1
  23861226.511    -3931108.430 5  -2908717.684 1
  23417966.425    -6161372.195 6  -3695083.086 1
  24348844.628     -298743.552 2    -38845.965 1
 90 10 22 11 13 29.9990000  0  7 02 06 11 18 15 13 09
  20687562.362     -424111.018 7   -320964.702 3
  21332401.339    -4183344.989 7  -3206177.084 2
  24916174.745     5117435.830 4   3928777.033 1
  23256472.308     5630188.042 6   4286211.145 1
  23855862.917    -3959306.984 5  -2930690.591 1
  23405927.534    -6224633.716 6  -3744377.767 1
  24339348.917     -348619.794 2    -77710.535 1
 90 10 22 11 13 44.9990000  0  7 02 06 11 18 15 13 09
  20687388.925     -425027.215 7   -321678.622 3
  21326097.354    -4216473.189 7  -3231991.266 2
  24924676.026     5162108.925 2
  23265531.745     5677807.489 6   4323317.211 1
  23850509.683    -3987423.874 5  -2952599.849 1
  23393893.854    -6287861.942 6  -3793646.500 1
  24329852.386     -398521.459 2   -116594.938 1
 90 10 22 11 13 59.9990000  0  6 02 06 18 15 13 09
  20687223.464     -425903.288 7   -322361.274 3
  21319799.581    -4249575.496 7  -3257785.270 2
  23274599.315     5725445.068 6   4360437.400 1
  23845179.284    -4015458.002 5  -2974444.598 1
  23381869.839    -6351055.964 6  -3842888.601 1
  24320355.917     -448447.850 3   -155498.526 1
 90 10 22 11 14 14.9990000  0  6 02 06 18 15 13 09
  20687062.362     -426742.311 7   -323015.063 3
  21313504.690    -4282654.843 7  -3283561.385 2
  23283666.315     5773097.240 6   4397568.957 1
  23839861.651    -4043411.947 5  -2996226.887 1
  23369851.386    -6414218.204 6  -3892105.925 1
  24310849.308     -498401.918 3   -194423.799 1
 90 10 22 11 14 29.9990000  0  6 02 06 18 15 13 09
  20686908.823     -427547.553 7   -323642.524 3
  21307211.464    -4315714.237 7  -3309321.952 2
  23292736.479     5820760.508 6   4434709.163 1
  23834558.097    -4071288.935 6  -3017949.196 1
  23357835.987    -6477351.643 5  -3941300.779 1
  24301335.394     -548386.887 3   -233373.124 1
 90 10 22 11 14 44.9990000  0  6 02 06 18 15 13 09
  20686762.558     -428311.866 7   -324238.089 3
  21300925.464    -4348746.146 7  -3335061.103 2
  23301810.479     5868441.912 6   4471863.496 1
  23829273.425    -4099081.097 6  -3039605.402 1
  23345830.417    -6540448.539 6  -3990467.203 1
  24291819.229     -598395.164 3   -272340.563 1
 90 10 22 11 14 59.9990000  0  6 02 06 18 15 13 09
  20686627.901     -429035.628 7   -324802.058 3
  21294644.956    -4381750.749 7  -3360778.974 2
  23310888.526     5916140.724 6   4509031.398 1
  23823996.230    -4126788.947 6  -3061195.913 1
  23333830.831    -6603509.082 6  -4039605.284 1
  24282297.190     -648427.116 3   -311326.489 1
 90 10 22 11 15 14.9990000  0  6 02 06 18 15 13 09
  20686495.972     -429717.892 7   -325333.690 3
  21288372.972    -4414726.550 7  -3386474.402 2
  23319966.190     5963857.822 6   4546213.560 1
  23818735.440    -4154411.055 5  -3082719.619 1
  23321835.722    -6666531.791 6  -4088713.887 1
  24272776.245     -698481.501 4   -350329.884 1
 90 10 22 11 15 29.9990000  0  6 02 06 18 15 13 09
  20686377.206     -430356.724 7   -325831.484 3
  21282101.276    -4447671.508 7  -3412145.796 2
  23329051.401     6011594.807 6   4583411.200 1
  23813496.979    -4181944.597 6  -3104174.318 1
  23309852.651    -6729514.149 5  -4137791.042 1
  24263246.690     -748556.245 4   -389349.183 1
 90 10 22 11 15 44.9990000  0  6 02 06 18 15 13 09
  20686261.823     -430955.723 7   -326298.238 3
  21275840.269    -4480588.948 7  -3437795.753 2
  23338137.831     6059347.430 6   4620621.047 1
  23808284.636    -4209392.874 6  -3125562.560 1
  23297872.784    -6792459.428 5  -4186839.319 1
  24253713.073     -798654.725 4   -428386.959 1
 90 10 22 11 15 59.9990000  0  6 02 06 18 15 13 09
  20686157.198     -431509.424 7   -326729.699 3
  21269580.503    -4513472.974 7  -3463419.664 2
  23347230.081     6107121.044 6   4657847.225 1
  23803071.167    -4236750.439 6  -3146880.135 1
  23285903.714    -6855361.782 5  -4235854.133 1
  24244175.479     -848771.264 3   -467438.773 1
 90 10 22 11 16 14.9990000  0  6 02 06 18 15 13 09
  20686057.417     -432021.649 7   -327128.835 3
  21263328.097    -4546327.326 7  -3489020.461 2
  23356324.933     6154911.396 6   4695086.450 1
  23797876.706    -4264020.594 5  -3168129.599 1
  23273941.980    -6918224.622 6  -4284838.138 1
  24234634.909     -898909.595 4   -506507.570 1
 90 10 22 11 16 29.9990000  0  6 02 06 18 15 13 09
  20685970.386     -432489.609 7   -327493.476 3
  21257081.144    -4579148.690 7  -3514595.551 2
  23365422.683     6202721.470 6   4732341.055 1
  23792706.097    -4291199.892 5  -3189308.273 1
  23261989.003    -6981044.390 6  -4333788.602 1
  24225088.503     -949066.568 3   -545590.933 1
 90 10 22 11 16 44.9990000  0  6 02 06 18 15 13 09
  20685888.167     -432916.284 7   -327825.953 3
  21250843.284    -4611939.716 7  -3540147.000 2
  23374523.011     6250547.819 6   4769608.330 1
  23787559.925    -4318291.026 6  -3210418.221 1
  23250042.128    -7043823.684 6  -4382707.527 1
  24215540.362     -999245.173 2   -584691.138 1
 90 10 22 11 16 59.9990000  0  6 02 06 18 15 13 09
  20685812.097     -433304.608 7   -328128.543 3
  21244609.065    -4644703.009 7  -3565676.835 2
  23383627.831     6298387.316 6   4806885.863 1
  23782414.448    -4345296.295 6  -3231461.266 1
  23238102.167    -7106565.253 6  -4431597.061 1
  24205985.526    -1049447.899 3   -623810.108 1
 90 10 22 11 17 14.9990000  0  6 02 06 18 15 13 09
  20685749.409     -433651.738 7   -328399.031 3
  21238379.386    -4677435.601 7  -3591182.743 2
  23392731.386     6346242.265 6   4844175.446 1
  23777287.019    -4372212.975 6  -3252435.289 1
  23226170.104    -7169265.693 6  -4480454.543 1
  24196432.433    -1099671.909 3
 90 10 22 11 17 29.9990000  0  6 02 06 18 15 13 09
  20685688.565     -433962.740 7   -328641.369 3
  21232155.073    -4710142.172 7  -3616668.387 2
  23401841.753     6394107.652 6   4881473.135 1
  23772185.909    -4399045.447 6  -3273343.691 1
  23214244.862    -7231929.637 6  -4529283.580 1
  24186867.229    -1149922.003 3
 90 10 22 11 17 44.9990000  0  6 02 06 18 15 13 09
  20685639.058     -434231.055 7   -328850.446 3
  21225937.401    -4742815.622 7  -3642128.209 2
  23410953.222     6441989.725 6   4918783.845 1
  23767095.464    -4425786.678 6  -3294181.013 1
  23202329.534    -7294549.879 6  -4578078.566 1
  24177301.073    -1200191.298 4
 90 10 22 11 17 59.9990000  0  6 02 06 18 15 13 09
  20685593.558     -434456.140 7   -329025.839 3
  21219725.964    -4775455.302 7  -3667561.724 2
  23420066.862     6489888.458 6   4956107.517 1
  23762028.769    -4452435.622 6  -3314946.415 1
  23190420.987    -7357125.633 6  -4626838.891 1
  24167732.440    -1250479.199 3        -0.37111
 90 10 22 11 18 14.9990000  0  6 02 06 18 15 13 09
  20685557.870     -434641.020 7
  21213521.417    -4808063.939 7  -3692971.054 2
  23429183.495     6537801.048 6   4993442.005 1
  23756973.612    -4478995.259 6  -3335642.220 1
  23178521.065    -7419659.223 6  -4675566.344 1
  24158160.339    -1300788.340 3    -39202.265 1
 90 10 22 11 18 29.9990000  0  6 02 06 18 15 13 09
  20685533.761     -434782.164 7
  21207323.862    -4840637.596 7  -3718353.125 2
  23438305.065     6585730.475 5   5030789.629 1
  23751936.222    -4505461.797 6  -3356265.472 1
  23166630.237    -7482146.782 6  -4724257.937 1
  24148583.823    -1351115.159 3    -78417.943 1
 90 10 22 11 18 44.9990000  0  6 02 06 18 15 13 09
  20685513.050     -434880.136 7
  21201132.620    -4873176.582 7  -3743708.172 2
  23447428.722     6633675.628 5   5068149.471 1
  23746918.815    -4531835.213 6  -3376816.175 1
  23154748.292    -7544588.692 6  -4772913.975 1
  24139001.886    -1401460.119 3   -117647.770 1
 90 10 22 11 18 59.9990000  0  6 02 06 18 15 13 09
  20685503.190     -434937.989 7
  21194944.425    -4905683.835 7  -3769038.494 2
  23456555.729     6681633.310 5   5105519.113 1
  23741918.058    -4558118.186 6  -3397296.410 1
  23142875.698    -7606987.556 6  -4821536.450 1
  24129415.519    -1451826.054 3   -156893.945 1
 90 10 22 11 19 14.9990000  0  6 02 06 18 15 13 09
  20685501.511     -434954.321 7
  21188766.331    -4938157.461 7  -3794342.621 2
  23465683.198     6729604.928 5   5142899.572 1
  23736927.690    -4584309.046 5  -3417704.855 1
  23131008.370    -7669341.316 6  -4870123.788 1
  24119826.487    -1502211.385 3   -196155.217 1
 90 10 22 11 19 29.9990000  0  6 02 06 18 15 13 09
  20685504.956     -434931.954 7
  21182591.972    -4970599.797 7  -3819622.359 2
  23474811.089     6777587.290 5   5180288.460 1
  23731968.979    -4610410.239 6  -3438043.430 1
  23119152.659    -7731652.389 6  -4918677.848 1
  24110235.394    -1552618.388 3   -235433.389 1
 90 10 22 11 19 44.9990000  0  6 02 06 18 15 13 09
  20685514.870     -434868.144 7
  21176426.956    -5003007.951 7  -3844875.463 2
  23483944.542     6825582.775 5   5217687.518 1
  23727014.042    -4636418.632 6  -3458309.697 1
  23107303.987    -7793917.614 6  -4967196.196 1
  24100642.620    -1603044.341 4   -274726.293 1
 90 10 22 11 19 59.9990000  0  6 02 06 18 15 13 09
  20685536.722     -434762.941 7
  21170265.253    -5035381.614 7  -3870101.689 2
  23493080.339     6873590.915 5   5255096.455 1
  23722090.995    -4662333.618 6  -3478503.176 1
  23095462.792    -7856136.527 6  -5015678.464 1
  24091043.144    -1653488.974 4   -314033.858 1
 90 10 22 11 20 14.9990000  0  6 02 06 18 15 13 09
  20685564.800     -434616.528 7
  21164111.222    -5067720.547 7  -3895300.849 2
  23502218.815     6921611.716 5   5292515.246 1
  23717166.714    -4688154.983 6  -3498623.704 1
  23083632.542    -7918308.714 6  -5064124.307 1
  24081441.589    -1703952.396 4   -353355.996 1
 90 10 22 11 20 29.9990000  0  6 02 06 18 15 13 09
  20685601.558     -434429.403 7
  21157962.815    -5100025.123 7  -3920473.241 2
  23511359.175     6969643.969 5   5329942.974 1
  23712279.503    -4713883.329 6  -3518671.753 1
  23071808.972    -7980434.269 6  -5112533.824 1
  24071830.698    -1754434.927 4   -392693.004 1
 90 10 22 11 20 44.9990000  0  6 02 06 18 15 13 09
  20685645.386     -434203.790 7
  21151821.675    -5132297.205 7  -3945620.318 2
  23520498.276     7017685.346 5   5367377.815 1
  23707390.706    -4739520.029 6  -3538648.391 1
  23059997.167    -8042515.128 6  -5160908.501 1
  24062221.394    -1804938.422 4   -432046.390 1
 90 10 22 11 20 59.9990000  0  6 02 06 18 15 13 09
  20685691.769     -433935.935 7
  21145687.026    -5164532.779 7  -3970738.943 2
  23529646.378     7065739.483 5   5404822.586 1
  23702535.237    -4765061.276 6  -3558550.654 1
  23048193.323    -8104547.202 6  -5209245.178 1
  24052612.050    -1855459.117 4   -471413.098 1
 90 10 22 11 21 14.9990000  0  6 02 06 18 15 13 09
  20685753.597     -433631.588 7        -0.35813
  21139560.065    -5196737.324 7  -3995833.392 2
  23538793.269     7113800.132 5   5442272.452 1
  23697691.964    -4790512.381 6  -3578382.659 1
  23036397.315    -8166535.970 6  -5257548.111 1
  24042992.792    -1906002.466 5   -510797.514 1
 90 10 22 11 21 29.9990000  0  6 02 06 18 15 13 09
  20685818.784     -433279.681 7       273.854 3
  21133441.050    -5228899.070 7  -4020894.486 2
  23547940.675     7161878.395 5   5479736.030 1
  23692866.354    -4815861.726 6  -3598135.396 1
  23024608.464    -8228469.698 6  -5305808.153 1
  24033372.448    -1956557.188 5   -550190.813 1
 90 10 22 11 21 44.9990000  0  6 02 06 18 15 13 09
  20685893.159     -432892.446 7       575.599 3
  21127326.386    -5261030.506 7  -4045931.969 2
  23557091.737     7209961.304 5   5517203.208 1
  23688067.479    -4841121.857 6  -3617818.589 1
  23012831.151    -8290360.357 6  -5354034.645 1
  24023745.198    -2007135.486 5   -589602.462 1
 90 10 22 11 21 59.9990000  0  6 02 06 18 15 13 09
  20685975.909     -432461.236 7       911.606 3
  21121217.573    -5293122.382 7  -4070938.619 2
  23566243.620     7258057.364 5   5554680.661 1
  23683269.690    -4866283.081 6  -3637424.731 1
  23001063.659    -8352198.523 6  -5402220.216 1
  24014122.042    -2057728.389 5   -629025.469 1
 90 10 22 11 22 14.9990000  0  6 02 06 18 15 13 09
  20686062.870     -431989.194 7      1279.426 3
  21115118.284    -5325177.667 7  -4095916.762 2
  23575396.972     7306163.285 5   5592165.778 1
  23678498.769    -4891348.379 6  -3656956.129 1
  22989305.776    -8413987.070 6  -5450367.138 1
  24004487.292    -2108338.822 5   -668462.220 1
 90 10 22 11 22 29.9990000  0  6 02 06 18 15 13 09
  20686162.940     -431473.577 7      1681.204 3
  21109026.620    -5357193.040 7  -4120863.806 2
  23584554.722     7354281.486 5   5629660.485 1
  23673748.315    -4916314.853 6  -3676410.511 1
  22977558.698    -8475722.885 6  -5498472.953 1
  23994855.300    -2158963.795 5   -707910.224 1
 90 10 22 11 22 44.9990000  0  6 02 06 18 15 13 09
  20686269.909     -430919.248 7      2113.149 3
  21102940.347    -5389173.086 7  -4145783.320 2
  23593712.659     7402406.863 5   5667160.778 1
  23669024.479    -4941186.562 6  -3695791.053 1
  22965818.448    -8537410.278 6  -5546541.064 1
  23985215.542    -2209607.861 5   -747373.121 1
 90 10 22 11 22 59.9990000  0  6 02 06 18 15 13 09
  20686382.565     -430324.112 7      2576.895 3
  21096861.081    -5421115.536 7  -4170673.532 2
  23602873.269     7450541.267 5   5704668.118 1
  23664304.573    -4965961.373 6  -3715096.079 1
  22954089.011    -8599046.597 5  -5594569.340 1
  23975577.175    -2260268.976 5   -786849.258 1
 90 10 22 11 23 14.9990000  0  6 02 06 18 15 13 09
  20686501.495     -429686.814 7      3073.485 3
  21090790.417    -5453018.716 7  -4195533.155 2
  23612034.784     7498685.588 5   5742183.164 1
  23659611.769    -4990637.426 6  -3734324.161 1
  22942370.433    -8660630.514 6  -5642556.816 1
  23965933.269    -2310945.375 4   -826337.419 1
 90 10 22 11 23 29.9990000  0  6 02 06 18 15 13 09
  20686632.737     -429009.811 7      3601.015 3
  21084727.433    -5484884.783 7  -4220363.852 2
  23621197.808     7546837.176 5   5779703.887 1
  23654934.058    -5015216.787 6  -3753476.898 1
  22930662.612    -8722163.780 6  -5690504.800 1
  23956288.878    -2361639.437 5   -865839.204 1
 90 10 22 11 23 44.9990000  0  6 02 06 18 15 13 09
  20686767.222     -428290.957 7      4161.165 3
  21078671.409    -5516711.205 7  -4245163.664 2
  23630363.823     7594997.986 5   5817231.774 1
  23650275.284    -5039697.166 6  -3772552.511 1
  22918963.769    -8783643.690 6  -5738411.211 1
  23946637.800    -2412348.871 5   -905353.091 1
 90 10 22 11 23 59.9990000  0  6 02 06 18 15 13 09
  20686909.573     -427537.548 7      4748.232 3
  21072620.120    -5548504.881 7  -4269937.952 2
  23639528.378     7643160.409 5   5854760.920 1
  23645635.526    -5064085.107 6  -3791556.085 1
  22907274.854    -8845077.081 6  -5786281.381 1
  23936980.862    -2463080.354 5   -944884.078 1
 90 10 22 11 24 14.9990000  0  6 02 06 18 15 13 09
  20687062.183     -426743.411 7      5367.040 3
  21066577.425    -5580259.480 7  -4294681.801 2
  23648694.308     7691330.311 5   5892295.914 1
  23641007.987    -5088374.224 6  -3810482.666 1
  22895595.995    -8906457.509 6  -5834110.283 1
  23927326.448    -2513827.922 4   -984427.674 1
 90 10 22 11 24 29.9990000  0  6 02 06 18 15 13 09
  20687220.784     -425913.321 7      6013.866 3
  21060540.737    -5611979.140 7  -4319398.416 2
  23657862.464     7739502.855 5   5929832.956 1
  23636407.714    -5112569.150 6  -3829335.831 1
  22883922.628    -8967789.270 6  -5881901.258 1
  23917666.347    -2564595.847 4  -1023987.037 1
 90 10 22 11 24 44.9990000  0  6 02 06 18 15 13 09
  20687385.183     -425044.046 7      6691.224 3
  21054512.378    -5643660.619 7  -4344085.284 2
  23667029.456     7787680.931 5   5967374.311 1
  23631815.933    -5136666.249 6  -3848112.780 1
  22872261.995    -9029068.495 6  -5929651.299 1
  23907997.519    -2615380.816 3  -1063559.742 1
 90 10 22 11 24 59.9990000  0  6 02 06 18 15 13 09
  20687559.620     -424130.437 7      7403.124 3
  21048493.042    -5675298.414 7  -4368738.113 2
  23676201.370     7835868.966 5   6004923.424 1
  23627252.956    -5160660.283 6  -3866809.430 1
  22860612.370    -9090289.965 6  -5977356.332 1
  23898336.964    -2666177.663 5  -1103141.632 1
 90 10 22 11 25 14.9990000  0  6 02 06 18 15 13 09
  20687741.370     -423177.136 7      8145.951 3
  21042482.386    -5706896.930 7  -4393360.333 2
  23685370.659     7884062.296 5   6042476.671 1
  23622710.815    -5184555.287 6  -3885428.896 1
  22848973.089    -9151457.662 6  -6025019.463 1
  23888665.112    -2716990.582 4  -1142736.165 1
 90 10 22 11 25 29.9990000  0  6 02 06 18 15 13 09
  20687928.464     -422188.576 7      8916.258 3
  21036473.808    -5738459.890 7  -4417954.844 2
  23694542.597     7932256.662 6   6080030.708 1
  23618177.714    -5208355.069 6  -3903974.156 1
  22837341.495    -9212575.635 6  -6072643.850 1
  23878989.503    -2767823.616 4  -1182346.282 1
 90 10 22 11 25 44.9990000  0  6 02 06 18 15 13 09
  20688126.542     -421154.901 7      9721.714 3
  21030475.972    -5769977.378 7  -4442513.926 2
  23703715.019     7980461.298 6   6117592.763 1
  23613668.855    -5232049.357 6  -3922437.227 1
  22825723.589    -9273633.700 6  -6120221.542 1
  23869315.737    -2818666.947 5  -1221964.486 1
 90 10 22 11 25 59.9990000  0  6 02 06 18 15 13 09
  20688329.315     -420081.674 7     10557.994 3
  21024485.659    -5801454.666 7  -4467041.683 2
  23712889.315     8028670.248 6   6155158.187 1
  23609184.761    -5255643.839 6  -3940822.514 1
  22814115.675    -9334636.972 6  -6167756.567 1
  23859639.628    -2869525.860 5  -1261594.775 1
 90 10 22 11 26 14.9990000  0  6 02 06 18 15 13 09
  20688542.323     -418970.283 7     11424.007 3
  21018502.284    -5832892.860 7  -4491538.982 2
  23722063.339     8076882.040 5   6192725.820 1
  23604709.323    -5279139.384 6  -3959130.722 1
  22802516.909    -9395586.442 6  -6215249.638 1
  23849956.933    -2920401.736 4  -1301238.319 1
 90 10 22 11 26 29.9990000  0  6 02 06 18 15 13 09
  20688760.878     -417821.766 7     12318.956 3
  21012526.995    -5864292.569 7  -4516006.284 2
  23731238.229     8125095.438 5   6230294.697 1
  23600264.253    -5302536.630 6  -3977362.310 1
  22790927.425    -9456482.488 6  -6262701.092 1
  23840271.706    -2971295.063 5  -1340895.420 1
 90 10 22 11 26 44.9990000  0  6 02 06 18 15 13 09
  20688986.581     -416627.584 7     13249.484 3
  21006562.229    -5895645.040 7  -4540436.774 2
  23740414.558     8173318.578 5   6267871.152 1
  23595826.151    -5325826.991 6  -3995510.642 1
  22779352.237    -9517316.322 6  -6310104.079 1
  23830586.800    -3022197.266 5  -1380559.494 1
 90 10 22 11 26 59.9990000  0  6 02 06 18 15 13 09
  20689223.737     -415389.048 7     14214.583 3
  21000604.847    -5926951.129 7  -4564831.125 2
  23749593.034     8221549.851 5   6305453.959 1
  23591413.784    -5349011.169 6  -4013576.228 1
  22767783.823    -9578088.685 6  -6357459.148 1
  23820897.823    -3073109.314 5  -1420231.239 1
 90 10 22 11 27 14.9990000  0  6 02 06 18 15 13 09
  20689466.112     -414110.540 7     15210.822 3
  20994654.792    -5958214.884 7  -4589192.494 3
  23758770.550     8269784.706 5   6343039.557 1
  23587021.737    -5372092.983 6  -4031562.038 1
  22756233.331    -9638803.723 6  -6404769.565 1
  23811206.331    -3124035.388 5  -1459913.851 1
 90 10 22 11 27 29.9990000  0  6 02 06 18 15 13 09
  20689716.206     -412794.053 7     16236.660 3
  20988712.956    -5989438.013 7  -4613522.204 2
  23767948.862     8318020.674 5   6380626.017 1
  23582650.456    -5395074.324 6  -4049469.553 1
  22744689.034    -9699462.985 6  -6452036.507 1
  23801514.229    -3174977.462 5  -1499608.997 1
 90 10 22 11 27 44.9990000  0  6 02 06 18 15 13 09
  20689974.183     -411440.603 7     17291.288 3
  20982780.448    -6020621.251 7  -4637820.827 3
  23777129.815     8366256.738 5   6418212.567 1
  23578293.730    -5417956.019 6  -4067299.442 1
  22733157.495    -9760066.889 6  -6499260.325 1
  23791815.503    -3225936.031 5  -1539316.940 1
 90 10 22 11 27 59.9990000  0  6 02 06 18 15 13 09
  20690239.675     -410047.355 7     18376.936 3
  20976853.292    -6051761.533 7  -4662085.977 3
  23786309.870     8414494.976 5   6455800.790 1
  23573960.003    -5440734.723 6  -4085049.067 1
  22721632.253    -9820612.282 6  -6546438.551 1
  23782115.042    -3276908.379 4  -1579035.681 1
 90 10 22 11 28 14.9990000  0  6 02 06 18 15 13 09
  20690512.261     -408619.335 7     19489.677 3
  20970935.847    -6082863.664 7  -4686321.403 2
  23795487.581     8462730.567 5   6493386.977 1
  23569642.878    -5463415.479 6  -4102722.389 1
  22710124.276    -9881103.846 6  -6593574.831 1
  23772414.472    -3327899.328 5  -1618768.893 1
 90 10 22 11 28 29.9990000  0  6 02 06 18 15 13 09
  20690792.355     -407144.220 7     20639.107 3
  20965027.355    -6113914.792 7  -4710517.084 2
  23804667.784     8510975.410 5   6530980.352 1
  23565356.409    -5485985.087 6  -4120309.073 1
  22698625.034    -9941528.755 6  -6640659.168 1
  23762707.136    -3378896.350 4  -1658506.784 1
 90 10 22 11 28 44.9990000  0  6 02 06 18 15 13 09
  20691081.409     -405627.361 7     21821.076 3
  20959127.534    -6144920.056 7  -4734677.029 2
  23813850.870     8559223.752 5   6568576.453 1
  23561076.776    -5508448.853 6  -4137813.294 1
  22687139.894   -10001891.807 6  -6687695.290 1
  23753004.745    -3429904.228 5  -1698253.185 1
 90 10 22 11 28 59.9990000  0  6 02 06 18 15 13 09
  20691376.894     -404071.801 7     23033.194 3
  20953233.831    -6175881.999 7  -4758803.216 3
  23823030.753     8607472.565 5   6606172.943 1
  23556819.644    -5530809.208 6  -4155236.929 1
  22675662.862   -10062195.750 6  -6734685.374 1
  23743295.979    -3480925.764 5  -1738010.166 1
 90 10 22 11 29 14.9990000  0  6 02 06 18 15 13 09
  20691679.901     -402477.961 7     24275.146 3
  20947351.065    -6206800.773 7  -4782895.771 2
  23832210.933     8655720.722 5   6643768.908 1
  23552580.339    -5553066.879 6  -4172580.553 1
  22664198.753   -10122440.784 6  -6781629.564 1
  23733580.136    -3531961.444 4  -1777778.244 1
 90 10 22 11 29 29.9990000  0  6 02 06 18 15 13 09
  20691990.479     -400840.988 7     25550.711 3
  20941477.495    -6237671.259 7  -4806950.690 2
  23841392.831     8703972.938 5   6681368.034 1
  23548360.800    -5575216.373 6  -4189839.895 1
  22652748.933   -10182621.445 6  -6828523.575 1
  23723865.354    -3583006.055 3  -1817553.329 1
 90 10 22 11 29 44.9990000  0  6 02 06 18 15 13 09
  20692310.370     -399164.951 7     26856.710 3
  20935612.386    -6268497.241 7  -4830970.939 2
  23850574.245     8752225.072 5   6718967.112 1
  23544171.784    -5597261.271 6  -4207017.725 1
  22641307.003   -10242741.152 6  -6875370.090 1
  23714150.917    -3634063.580 4  -1857338.363 1
 90 10 22 11 29 59.9990000  0  6 02 06 18 15 13 09
  20692637.081     -397446.963 7     28195.400 3
  20929754.394    -6299275.472 7  -4854953.976 2
  23859756.214     8800479.638 5   6756568.087 1
  23539995.401    -5619198.320 6  -4224111.530 1
  22629879.823   -10302796.796 6  -6922166.694 1
  23704433.815    -3685130.772 5  -1897130.954 1
 90 10 22 11 30 14.9990000  0  6 02 06 18 15 13 09
  20692972.487     -395689.173 7     29565.101 3
  20923906.175    -6330007.896 7  -4878901.320 2
  23868939.565     8848734.039 5   6794168.901 1
  23535837.987    -5641029.542 5  -4241122.844 1
  22618463.995   -10362790.337 6  -6968914.894 1
  23694714.886    -3736209.744 5  -1936932.747 1
 90 10 22 11 30 29.9990000  0  6 02 06 18 15 13 09
  20693313.980     -393891.846 7     30965.616 3
  20918067.761    -6360694.270 7  -4902812.778 2
  23878122.237     8896987.902 5   6831769.312 1
  23531708.800    -5662754.852 6  -4258051.643 1
  22607059.464   -10422721.409 6  -7015614.427 1
  23684992.511    -3787300.402 5  -1976743.658 1
 90 10 22 11 30 44.9990000  0  6 02 06 18 15 13 09
  20693661.964     -392060.648 7     32392.519 3
  20912234.886    -6391339.872 7  -4926692.462 2
  23887305.933     8945235.391 5   6869364.765 1
  23527598.722    -5684379.441 6  -4274901.942 1
  22595665.729   -10482595.225 6  -7062269.346 1
  23675270.464    -3838408.032 5  -2016567.755 1
 90 10 22 11 30 59.9990000  0  6 02 06 18 15 13 09
  20694018.940     -390189.319 7     33850.695 3
  20906412.050    -6421938.360 7  -4950535.440 3
  23896485.347     8993482.414 5   6906959.865 1
  23523492.315    -5705897.202 5  -4291669.018 1
  22584284.839   -10542405.226 6  -7108874.544 1
  23665540.292    -3889526.296 5  -2056400.169 1
 90 10 22 11 31 14.9990000  0  6 02 06 18 15 13 09
  20694383.667     -388275.497 7     35341.983 3
  20900599.120    -6452487.058 7  -4974339.620 2
  23905665.167     9041731.034 5   6944556.215 1
  23519425.050    -5727305.145 6  -4308350.508 1
  22572916.058   -10602148.648 6  -7155427.849 1
  23655811.620    -3940652.673 5  -2096238.924 1
 90 10 22 11 31 29.9990000  0  6 02 06 18 15 13 09
  20694755.300     -386319.625 7     36866.042 3
  20894795.089    -6482985.802 7  -4998104.868 2
  23914847.503     9089980.628 5   6982153.294 1
  23515369.761    -5748603.181 6  -4324946.363 1
  22561559.854   -10661825.336 6  -7201929.162 1
  23646082.394    -3991787.386 5  -2136084.139 1
 90 10 22 11 31 44.9990000  0  6 02 06 18 15 13 09
  20695133.769     -384320.389 7     38423.884 3
  20889001.729    -6513433.069 7  -5021830.016 2
  23924027.714     9138232.165 5   7019751.887 1
  23511347.417    -5769789.812 6  -4341455.412 1
  22550215.737   -10721433.483 6  -7248377.061 1
  23636347.339    -4042928.589 5  -2175934.435 1
 90 10 22 11 31 59.9990000  0  6 02 06 18 15 13 09
  20695523.854     -382280.746 7     40013.215 3
  20883217.120    -6543831.825 7  -5045517.356 3
  23933209.823     9186482.239 5   7057349.344 1
  23507332.183    -5790868.001 6  -4357879.963 1
  22538885.433   -10780976.132 6  -7294773.919 1
  23626611.659    -4094079.432 5  -2215792.206 1
 90 10 22 11 32 14.9990000  0  6 02 06 18 15 13 09
  20695919.519     -380206.453 7     41629.541 3
  20877441.831    -6574187.048 7  -5069170.782 2
  23942390.933     9234724.826 5   7094940.960 1
  23503336.722    -5811843.138 6  -4374224.212 1
  22527565.308   -10840458.328 6  -7341123.661 1
  23616880.940    -4145245.210 5  -2255661.677 1
 90 10 22 11 32 29.9990000  0  6 02 06 18 15 13 09
  20696320.651     -378095.508 7     43274.431 3
  20871672.683    -6604496.556 7  -5092788.582 3
  23951568.987     9282961.954 5   7132528.310 1
  23499368.737    -5832712.487 6  -4390486.021 1
  22516258.534   -10899877.632 6  -7387424.407 1
  23607137.229    -4196423.659 4  -2295540.972 1
 90 10 22 11 32 44.9990000  0  6 02 06 18 15 13 09
  20696730.198     -375938.893 7     44954.909 3
  20865915.565    -6634751.234 7  -5116363.656 3
  23960748.144     9331202.340 5   7170118.219 1
  23495419.667    -5853467.124 6  -4406658.446 1
  22504965.112   -10959224.719 6  -7433668.884 1
  23597395.651    -4247605.762 4  -2335423.083 1
 90 10 22 11 32 59.9990000  0  6 02 06 18 15 13 09
  20697149.987     -373737.751 7     46670.086 3
  20860168.323    -6664951.596 7  -5139896.405 3
  23969930.862     9379444.466 5   7207709.494 1
  23491484.792    -5874107.446 5  -4422741.818 1
  22493683.792   -11018500.290 6  -7479857.635 1
  23587657.409    -4298792.231 4  -2375308.646 1
 90 10 22 11 33 14.9990000  0  6 02 06 18 15 13 09
  20697574.995     -371501.603 7     48412.536 3
  20854429.792    -6695106.906 7  -5163394.050 3
  23979109.589     9427678.273 5   7245294.279 1
  23487584.034    -5894642.998 6  -4438743.519 1
  22482419.229   -11077713.487 6  -7525997.772 1
  23577915.175    -4349992.339 4  -2415204.815 1
 90 10 22 11 33 29.9990000  0  6 02 06 18 15 13 09
  20698008.823     -369221.268 7     50189.413 3
  20848701.425    -6725207.730 7  -5186849.238 3
  23988287.808     9475912.855 5   7282879.663 1
  23483696.714    -5915064.411 6  -4454656.296 1
  22471161.894   -11136854.690 6  -7572081.822 1
  23568171.698    -4401196.951 5  -2455104.488 1
 90 10 22 11 33 44.9990000  0  6 02 06 18 15 13 09
  20698449.300     -366905.153 7     51994.182 3
  20842982.800    -6755262.095 7  -5210268.228 3
  23997463.886     9524139.681 5   7320459.028 1
  23479836.456    -5935379.675 6  -4470486.349 1
  22459919.886   -11195931.680 6  -7618115.837 1
  23558426.753    -4452413.830 5  -2495013.729 1
 90 10 22 11 33 59.9990000  0  6 02 06 18 15 13 09
  20698897.972     -364545.048 7     53833.220 3
  20837273.308    -6785261.414 7  -5233644.314 3
  24006639.159     9572366.727 5   7358038.542 1
  23475991.190    -5955580.113 6  -4486226.941 1
  22448691.987   -11254935.840 6  -7664093.105 1
  23548677.464    -4503634.599 5  -2534925.994 1
 90 10 22 11 34 14.9990000  0  6 02 06 18 15 13 09
  20699355.183     -362142.427 7     55705.397 3
  20831575.565    -6815206.859 7  -5256978.422 3
  24015819.214     9620592.091 5   7395616.756 1
  23472167.440    -5975666.756 6  -4501878.864 1
  22437478.917   -11313868.612 6  -7710014.734 1
  23538932.104    -4554860.741 5  -2574842.496 1
 90 10 22 11 34 29.9990000  0  6 02 06 18 15 13 09
  20699821.042     -359695.748 7     57611.896 3
  20825887.511    -6845096.673 7  -5280269.194 3
  24024995.487     9668817.027 5   7433194.645 1
  23468365.987    -5995637.952 5  -4517440.831 1
  22426276.503   -11372727.731 6  -7755878.979 1
  23529181.440    -4606090.322 4  -2614761.608 1
 90 10 22 11 34 44.9990000  0  6 02 06 18 15 13 09
  20700294.901     -357204.735 7     59552.940 3
  20820211.269    -6874930.229 7  -5303516.122 3
  24034174.175     9717041.596 5   7470772.196 1
  23464583.597    -6015493.376 5  -4532912.576 1
  22415090.753   -11431512.702 6  -7801685.444 1
  23519431.995    -4657322.881 5  -2654683.056 1
 90 10 22 11 34 59.9990000  0  6 02 06 18 15 13 09
  20700776.815     -354670.658 7     61527.549 3
  20814543.261    -6904708.400 7  -5326719.895 3
  24043351.433     9765264.169 5   7508348.220 1
  23460832.229    -6035233.860 6  -4548294.750 1
  22403918.847   -11490224.190 6  -7847434.640 1
  23509682.159    -4708559.506 5  -2694607.717 1
 90 10 22 11 35 14.9990000  0  6 02 06 18 15 13 09
  20701267.128     -352095.898 7     63533.851 3
  20808888.433    -6934433.115 7  -5349882.009 3
  24052524.464     9813482.362 5   7545920.845 1
  23457100.620    -6054861.379 6  -4563588.900 1
  22392760.855   -11548864.071 6  -7893128.046 1
  23499933.128    -4759802.119 5  -2734536.997 1
 90 10 22 11 35 29.9990000  0  6 02 06 18 15 13 09
  20701761.979     -349488.542 7     65565.553 3
  20803239.823    -6964112.397 7  -5373008.719 3
  24061698.737     9861687.284 5   7583483.110 1
  23453376.620    -6074383.949 5  -4578801.298 1
  22381614.065   -11607440.315 6  -7938771.863 1
  23490175.800    -4811058.817 5  -2774477.280 1
 90 10 22 11 35 44.9990000  0  6 02 06 18 15 13 09
  20702266.940     -346846.756 7     67624.088 3
  20797601.604    -6993744.045 7  -5396098.316 3
  24070872.581     9909880.622 5   7621036.355 1
  23449676.159    -6093799.238 5  -4593930.069 1
  22370480.269   -11665950.518 6  -7984364.218 1
  23480421.667    -4862327.652 5  -2814427.021 1
 90 10 22 11 35 59.9990000  0  6 02 06 18 15 13 09
  20702776.214     -344163.455 7     69714.970 3
  20791973.831    -7023320.645 7  -5419145.019 3
  24080042.315     9958069.451 5   7658586.131 1
  23446014.464    -6113100.016 6  -4608969.627 1
  22359360.362   -11724387.410 6  -8029899.452 1
  23470664.956    -4913601.084 5  -2854380.318 1
 90 10 22 11 36 14.9990000  0  6 02 06 18 15 13 09
  20703295.917     -341436.469 7     71839.891 3
  20786353.847    -7052839.637 7  -5442146.831 3
  24089208.808    10006255.774 5   7696133.885 1
  23442366.714    -6132283.756 6  -4623917.983 1
  22348255.190   -11782748.493 6  -8075375.613 1
  23460903.347    -4964876.736 5  -2894335.361 1
 90 10 22 11 36 29.9990000  0  6 02 06 18 15 13 09
  20703822.620     -338668.757 7     73996.548 3
  20780747.448    -7082303.885 7  -5465105.979 3
  24098376.276    10054436.014 5   7733676.935 1
  23438737.386    -6151353.303 6  -4638777.355 1
  22337163.042   -11841036.262 6  -8120794.648 1
  23451148.425    -5016157.451 5  -2934294.375 1
 90 10 22 11 36 44.9990000  0  6 02 06 18 15 13 09
  20704358.128     -335855.746 7     76188.509 3
  20775152.800    -7111708.270 7  -5488018.485 3
  24107546.620    10102614.505 5   7771218.640 1
  23435124.276    -6170303.592 5  -4653543.802 1
  22326085.690   -11899245.732 6  -8166152.668 1
  23441387.573    -5067438.389 5  -2974253.506 1
 90 10 22 11 36 59.9990000  0  6 02 06 18 15 13 09
  20704901.433     -333003.151 7     78411.307 3
  20769567.433    -7141058.321 7  -5510888.661 3
  24116710.862    10150785.273 5   7808754.303 1
  23431543.573    -6189140.102 6  -4668221.605 1
  22315021.636   -11957382.104 6  -8211453.743 1
  23431632.964    -5118725.161 5  -3014217.232 1
 90 10 22 11 37 14.9990000  0  6 02 06 18 15 13 09
  20705452.604     -330111.917 7     80664.214 3
  20763993.565    -7170354.746 7  -5533717.049 3
  24125877.722    10198946.904 5   7846282.845 1
  23427988.636    -6207863.702 6  -4682811.390 1
  22303971.401   -12015446.110 6  -8256698.405 1
  23421869.097    -5170018.371 5  -3054185.946 1
 90 10 22 11 37 29.9990000  0  6 02 06 18 15 13 09
  20706009.315     -327181.245 7     82947.852 3
  20758428.026    -7199596.244 7  -5556502.630 3
  24135040.995    10247100.124 5   7883804.829 1
  23424439.636    -6226473.143 6  -4697312.280 1
  22292937.901   -12073436.250 6  -8301885.528 1
  23412107.144    -5221316.773 5  -3094158.703 1
 90 10 22 11 37 44.9990000  0  6 02 06 18 15 13 09
  20706575.323     -324209.251 7     85263.694 3
  20752875.339    -7228780.449 7  -5579243.568 3
  24144201.425    10295246.749 5   7921321.654 1
  23420919.878    -6244966.109 6  -4711722.367 1
  22281915.854   -12131350.396 6  -8347013.428 1
  23402346.964    -5272618.264 5  -3134133.868 1
 90 10 22 11 37 59.9990000  0  6 02 06 18 15 13 09
  20707148.104     -321194.506 7     87612.836 3
  20747332.745    -7257905.617 7  -5601938.504 3
  24153364.581    10343387.918 5   7958834.285 1
  23417412.417    -6263340.783 5  -4726040.287 1
  22270909.972   -12189186.537 6  -8392080.541 1
  23392581.823    -5323921.160 5  -3174110.175 1
 90 10 22 11 38 14.9990000  0  6 02 06 18 15 13 09
  20707729.300     -318137.532 7     89994.891 3
  20741801.229    -7286972.191 7  -5624587.788 3
  24162523.003    10391522.677 5   7996341.862 1
  23413948.440    -6281597.634 6  -4740266.385 1
  22259919.120   -12246944.957 6  -8437087.101 1
  23382818.198    -5375226.069 5  -3214087.980 1
 90 10 22 11 38 29.9990000  0  6 02 06 18 15 13 09
  20708318.144     -315041.049 7     92407.736 3
  20736279.831    -7315982.518 7  -5647193.238 3
  24171678.745    10439647.890 5   8033842.034 1
  23410494.917    -6299739.314 6  -4754402.742 1
  22248941.831   -12304628.166 6  -8482035.045 1
  23373056.980    -5426535.292 5  -3254069.219 1
 90 10 22 11 38 44.9990000  0  6 02 06 18 15 13 09
  20708915.378     -311904.736 7     94851.618 3
  20730770.276    -7344935.934 7  -5669754.340 3
  24180837.339    10487763.892 5   8071335.023 1
  23407075.347    -6317764.829 6  -4768448.591 1
  22237980.394   -12362235.340 6  -8526923.750 1
  23363290.456    -5477848.250 5  -3294053.293 1
 90 10 22 11 38 59.9990000  0  6 02 06 18 15 13 09
  20709520.229     -308727.511 7     97327.380 3
  20725273.425    -7373830.823 7  -5692269.839 3
  24189992.480    10535871.523 5   8108821.484 1
  23403650.854    -6335673.024 6  -4782403.035 1
  22227032.276   -12419764.998 6  -8571752.051 1
  23353524.370    -5529163.400 5  -3334039.154 1
 90 10 22 11 39 14.9990000  0  6 02 06 18 15 13 09
  20710131.472     -305514.600 7     99830.944 3
  20719784.284    -7402672.301 7  -5714743.717 3
  24199145.487    10583965.341 5   8146297.191 1
  23400265.987    -6353468.835 6  -4796269.861 1
  22216097.511   -12477222.006 6  -8616523.738 1
  23343759.167    -5580485.960 5  -3374030.730 1
 90 10 22 11 39 29.9990000  0  6 02 06 18 15 13 09
  20710750.190     -302269.064 7    102359.932 3
  20714306.651    -7431463.178 7  -5737178.165 3
  24208292.870    10632041.498 5   8183759.128 1
  23396904.159    -6371155.205 5  -4810051.445 1
  22205178.167   -12534608.821 6  -8661240.736 1
  23333995.120    -5631818.913 5  -3414030.430 1
 90 10 22 11 39 44.9990000  0  6 02 06 18 15 13 09
  20711374.581     -298982.042 7    104921.245 3
  20708839.331    -7460194.190 7  -5759565.961 3
  24217440.362    10680108.751 5   8221214.131 1
  23393565.206    -6388722.877 6  -4823740.526 1
  22194273.495   -12591916.325 6  -8705895.929 1
  23324223.745    -5683153.033 5  -3454031.037 1
 90 10 22 11 39 59.9990000  0  6 02 06 18 15 13 09
  20712008.503     -295649.365 7    107518.134 3
  20703383.065    -7488860.580 7  -5781903.404 3
  24226585.706    10728171.171 5   8258665.351 1
  23390243.909    -6406167.414 6  -4837333.655 1
  22183385.222   -12649139.979 6  -8750485.787 1
  23314458.370    -5734483.503 5  -3494028.791 1
 90 10 22 11 40 14.9990000  0  6 02 06 18 15 13 09
  20712650.534     -292273.587 7    110148.610 3
  20697939.854    -7517464.791 7  -5804192.402 3
  24235731.198    10776225.983 5   8296110.673 1
  23386949.683    -6423491.019 6  -4850832.569 1
  22172511.136   -12706281.962 7  -8795011.996 1
  23304688.644    -5785813.037 5  -3534025.823 1
 90 10 22 11 40 29.9990000  0  6 02 06 18 15 13 09
  20713302.511     -288854.772 7    112812.623 3
  20692508.464    -7546006.532 7  -5826432.724 3
  24244871.315    10824272.895 5   8333549.818 1
  23383671.683    -6440693.621 5  -4864237.183 1
  22161653.323   -12763341.894 7  -8839474.273 1
  23294921.237    -5837141.378 5  -3574021.941 1
 90 10 22 11 40 44.9990000  0  6 02 06 18 15 13 09
  20713959.737     -285398.232 7    115506.029 3
  20687088.831    -7574491.026 7  -5848628.432 3
  24254010.323    10872305.888 4   8370978.136 1
  23380425.331    -6457780.289 5  -4877551.450 1
  22150810.050   -12820324.840 7  -8883876.552 1
  23285149.245    -5888473.795 5  -3614021.200 1
 90 10 22 11 40 59.9990000  0  6 02 06 18 15 13 09
  20714626.339     -281897.219 7    118234.094 3
  20681680.042    -7602911.016 7  -5870773.876 3
  24263155.136    10920331.910 4   8408401.010 1
  23377190.769    -6474743.936 5  -4890769.880 1
  22139982.472   -12877223.659 7  -8928213.291 1
  23275384.659    -5939803.022 5  -3654017.998 1
 90 10 22 11 41 14.9990000  0  6 02 06 18 15 13 09
  20715301.792     -278351.122 7    120997.287 3
  20676284.745    -7631265.571 7  -5892868.333 3
  24272293.042    10968350.923 4   8445818.390 1
  23373995.800    -6491583.883 6  -4903891.897 1
  22129171.104   -12934037.368 7  -8972483.700 1
  23265615.456    -5991128.308 5  -3694011.741 1
 90 10 22 11 41 29.9990000  0  6 02 06 18 15 13 09
  20715983.956     -274763.102 7    123793.144 3
  20670899.933    -7659557.447 7  -5914913.947 3
  24281424.698    11016359.682 4   8483227.836 1
  23370808.433    -6508302.925 5  -4916919.711 1
  22118375.714   -12990768.470 7  -9016689.742 1
  23255850.698    -6042452.498 5  -3734004.602 1
 90 10 22 11 41 44.9990000  0  6 02 06 18 15 13 09
  20716674.112     -271136.937 7    126618.726 3
  20665527.628    -7687790.080 7  -5936913.397 3
  24290559.737    11064354.292 4   8520626.209 1
  23367648.589    -6524904.415 5  -4929855.947 1
  22107595.089   -13047420.520 7  -9060834.191 1
  23246085.183    -6093779.072 5  -3773999.305 1
 90 10 22 11 41 59.9990000  0  6 02 06 18 15 13 09
  20717370.589     -267472.354 7    129474.249 3
  20660167.315    -7715963.040 7  -5958866.340 3
  24299688.323    11112334.274 4   8558013.228 1
  23364509.581    -6541388.031 5  -4942700.319 1
  22096829.112   -13103993.216 7  -9104916.804 1
  23236315.058    -6145107.868 5  -3813995.770 1
 90 10 22 11 42 14.9990000  0  6 02 06 18 15 13 09
  20718075.151     -263765.884 7    132362.401 3
  20654818.815    -7744072.539 7  -5980769.843 3
  24308816.597    11160303.123 4   8595391.546 1
  23361407.800    -6557750.161 6  -4955450.006 1
  22086080.354   -13160482.349 7  -9148934.300 1
  23226545.659    -6196434.960 5  -3853990.903 1
 90 10 22 11 42 29.9990000  0  6 02 06 18 15 13 09
  20718790.901     -260009.352 7    135289.568 3
  20649482.706    -7772110.177 7  -6002617.352 3
  24317944.214    11208268.720 4   8632767.320 1
  23358304.362    -6573982.150 5  -4968098.310 1
  22075347.644   -13216879.291 7  -9192879.965 1
  23216783.394    -6247751.983 5  -3893978.189 1
 90 10 22 11 42 44.9990000  0  6 02 06 18 15 13 09
  20719514.081     -256212.904 7    138247.837 3
  20644159.308    -7800085.526 7  -6024416.330 3
  24327069.019    11256220.687 4   8670132.524 1
  23355238.503    -6590093.870 5  -4980652.891 1
  22064631.464   -13273194.018 6  -9236761.561 1
  23207017.714    -6299068.576 5  -3933965.146 1
 90 10 22 11 42 59.9990000  0  6 02 06 18 15 13 09
  20720242.933     -252372.741 7    141240.180 3
  20638849.831    -7827994.595 7  -6046163.656 3
  24336195.745    11304162.250 4   8707489.576 1
  23352201.737    -6606081.492 5  -4993110.766 1
  22053931.206   -13329422.517 7  -9280575.976 1
  23197256.870    -6350380.952 5  -3973948.807 1
 90 10 22 11 43 14.9990000  0  6 02 06 18 15 13 09
  20720982.894     -248486.544 7    144268.381 3
  20633550.308    -7855834.893 7  -6067857.393 3
  24345313.347    11352095.592 4   8744840.233 1
  23349183.776    -6621942.502 6  -5005469.981 1
  22043250.019   -13385561.958 7  -9324320.993 1
  23187491.073    -6401686.683 5  -4013927.284 1
 90 10 22 11 43 29.9990000  0  6 02 06 18 15 13 09
  20721733.597     -244556.587 7    147330.681 3
  20628264.855    -7883608.213 7  -6089498.934 3
  24354435.050    11400018.424 4   8782182.738 1
  23346187.901    -6637678.609 5  -5017731.871 1
  22032581.073   -13441613.894 7  -9367997.814 1
  23177726.237    -6452987.480 5  -4053901.928 1
 90 10 22 11 43 44.9990000  0  6 02 06 18 15 13 09
  20722485.995     -240590.991 7    150420.758 3
  20622992.409    -7911322.116 7  -6111094.181 3
  24363550.378    11447922.482 4   8819510.565 1
  23343213.956    -6653297.859 5  -5029902.698 1
  22021931.050   -13497586.445 7  -9411612.784 1
  23167963.190    -6504291.394 5  -4093878.991 1
 90 10 22 11 43 59.9990000  0  6 02 06 18 15 13 09
  20723250.112     -236584.485 7    153542.714 3
  20617728.940    -7938971.340 7  -6132639.029 3
  24372664.433    11495812.103 3   8856827.151 1
  23340263.776    -6668794.799 5  -5041978.236 1
  22011295.956   -13553474.081 7  -9455161.580 1
  23158200.925    -6555592.882 5  -4133854.179 1
 90 10 22 11 44 14.9990000  0  6 02 06 18 15 13 09
  20724018.144     -232537.072 7    156696.539 3
  20612480.722    -7966555.543 7  -6154133.211 3
  24381770.831    11543687.313 3   8894132.476 1
  23337341.823    -6684169.351 6  -5053958.397 1
  22000677.237   -13609276.207 7  -9498643.751 1
  23148441.058    -6606891.732 5  -4173827.294 1
 90 10 22 11 44 29.9990000  0  6 02 06 18 15 13 09
  20724798.636     -228436.136 7    159892.069 3
  20607247.276    -7994061.935 7  -6175566.761 3
  24390884.901    11591560.195 4   8931436.029 1
  23334442.792    -6699408.516 6  -5065833.063 1
  21990076.089   -13664979.950 7  -9542049.248 1
  23138681.378    -6658175.137 5  -4213788.390 1
 90 10 22 11 44 44.9990000  0  6 02 06 18 15 13 09
  20725589.151     -224286.176 7    163125.811 3
  20602026.440    -8021494.405 7  -6196942.709 3
  24399990.183    11639426.681 4   8968734.583 1
  23331565.136    -6714516.538 6  -5077605.539 1
  21979494.776   -13720589.168 7  -9585381.096 1
  23128926.401    -6709447.008 5  -4253740.489 1
 90 10 22 11 44 59.9990000  0  6 02 06 18 15 13 09
  20726443.831     -219802.558 7    166619.538 3
  20596874.370    -8048567.894 7  -6218038.932 3
  24409154.167    11687570.774 4   9006249.458 1
  23328770.464    -6729208.507 6  -5089053.812 1
  21968985.214   -13775818.736 7  -9628417.118 1
  23119226.487    -6760422.672 5  -4293461.774 1
 90 10 22 11 45 14.9990000  0  6 02 06 18 15 13 09
  20727318.386     -215194.280 7    170210.403 3
  20591752.245    -8075491.308 7  -6239018.221 2
  24418328.120    11735783.156 4   9043817.543 1
  23326012.847    -6743693.297 6  -5100340.662 1
  21958508.261   -13830877.664 7  -9671320.178 1
  23109540.604    -6811310.837 5  -4333114.913 1
 90 10 22 11 45 29.9990000  0  6 02 06 18 15 13 09
  20728206.894     -210525.597 7    173848.343 3
  20586644.503    -8102328.207 7  -6259930.093 3
  24427503.370    11783999.322 4   9081388.616 1
  23323283.620    -6758034.738 6  -5111515.802 1
  21948050.253   -13885829.721 7  -9714139.948 1
  23099864.706    -6862175.406 5  -4372749.599 1
 90 10 22 11 45 44.9990000  0  6 02 06 18 15 13 09
  20729104.019     -205811.441 7    177521.707 3
  20581551.003    -8129093.832 7  -6280786.428 3
  24436676.370    11832203.887 4   9118950.626 1
  23320577.269    -6772247.776 6  -5122590.890 1
  21937612.292   -13940689.583 7  -9756887.890 1
  23090183.370    -6913031.322 5  -4412377.617 1
 90 10 22 11 45 59.9990000  0  6 02 06 18 15 13 09
  20730009.964     -201048.044 7    181233.448 3
  20576471.933    -8155783.579 7  -6301583.633 3
  24445849.026    11880400.531 4   9156506.429 1
  23317901.370    -6786328.159 6  -5133562.606 1
  21927190.206   -13995452.872 7  -9799560.575 1
  23080509.987    -6963874.251 5  -4451995.456 1
 90 10 22 11 46 14.9990000  0  6 02 06 18 15 13 09
  20730928.065     -196228.729 7    184988.755 3
  20571407.706    -8182390.607 7  -6322316.378 2
  24455015.933    11928595.734 4   9194061.138 1
  23315245.222    -6800269.038 6  -5144425.618 1
  21916787.901   -14050112.756 7  -9842152.688 1
  23070839.355    -7014697.430 5  -4491597.921 1
 90 10 22 11 46 29.9990000  0  6 02 06 18 15 13 09
  20731854.175     -191363.626 7    188779.743 3
  20566359.800    -8208924.748 7  -6342992.331 2
  24464191.269    11976779.087 5   9231606.628 1
  23312620.526    -6814080.068 6  -5155187.445 1
  21906403.558   -14104678.929 6  -9884671.778 1
  23061168.901    -7065510.692 5  -4531192.665 1
 90 10 22 11 46 44.9990000  0  6 02 06 18 15 13 09
  20732790.448     -186445.868 7    192611.768 3
  20561325.620    -8235378.751 7  -6363605.844 2
  24473353.659    12024957.247 5   9269148.052 1
  23310022.573    -6827754.573 6  -5165842.892 1
  21896040.151   -14159144.275 6  -9927112.299 1
  23051504.097    -7116306.954 5  -4570774.159 1
 90 10 22 11 46 59.9990000  0  6 02 06 18 15 13 09
  20733736.667     -181475.523 7    196484.760 3
  20556306.964    -8261752.425 7  -6384156.761 2
  24482524.409    12073129.722 5   9306685.058 1
  23307444.745    -6841292.308 6  -5176391.759 1
  21885694.097   -14213508.311 6  -9969473.871 1
  23041841.058    -7167085.919 5  -4610342.167 1
 90 10 22 11 47 14.9990000  0  6 02 06 18 15 13 09
  20734689.315     -176462.932 7    200390.677 3
  20551302.448    -8288055.797 7  -6404652.893 3
  24491685.417    12121285.765 5   9344209.255 1
  23304889.948    -6854703.223 6  -5186841.813 1
  21875368.511   -14267781.162 7 -10011764.410 1
  23032178.831    -7217857.774 5  -4649904.662 1
 90 10 22 11 47 29.9990000  0  6 02 06 18 15 13 09
  20735652.315     -171408.302 7    204329.348 3
  20546309.159    -8314288.802 7  -6425094.197 2
  24500846.245    12169424.887 5   9381720.283 1
  23302361.105    -6867987.988 6  -5197193.559 1
  21865057.730   -14321962.743 7 -10053983.805 1
  23022514.339    -7268622.725 5  -4689461.743 1
 90 10 22 11 47 44.9990000  0  6 02 06 18 15 13 09
  20736620.300     -166313.905 7    208299.010 3
  20541330.386    -8340453.454 7  -6445482.234 2
  24510003.925    12217544.811 4   9419216.335 1
  23299857.581    -6881148.378 6  -5207448.418 1
  21854764.019   -14376054.919 7 -10096133.542 1
  23012856.315    -7319382.528 5  -4729014.827 1
 90 10 22 11 47 59.9990000  0  6 02 06 18 15 13 09
  20737598.815     -161172.764 7    212305.094 3
  20536365.862    -8366542.312 7  -6465811.212 3
  24519159.237    12265651.945 4   9456702.430 1
  23297377.190    -6894176.755 6  -5217600.397 1
  21844488.425   -14430050.397 7 -10138207.935 1
  23003200.745    -7370129.927 5  -4768558.251 1
 90 10 22 11 48 14.9990000  0  6 02 06 18 15 13 09
  20738587.042     -155986.161 7    216346.604 3
  20531415.206    -8392556.416 7  -6486081.942 3
  24528308.526    12313744.991 4   9494177.522 1
  23294918.378    -6907074.309 6  -5227650.434 1
  21834231.940   -14483949.846 7 -10180207.495 1
  22993546.706    -7420866.022 5  -4808092.864 1
 90 10 22 11 48 29.9990000  0  6 02 06 18 15 13 09
  20739581.831     -150760.380 7    220418.635 3
  20526477.972    -8418501.654 7  -6506299.015 2
  24537455.175    12361817.325 4   9531636.481 1
  23292494.683    -6919847.399 6  -5237603.473 1
  21823992.644   -14537759.432 7 -10222137.030 1
  22983893.667    -7471596.739 5  -4847623.288 1
 90 10 22 11 48 44.9990000  0  6 02 06 18 15 13 09
  20740583.175     -145492.920 7    224523.144 3
  20521554.417    -8444375.320 7  -6526460.315 3
  24546602.503    12409871.269 4   9569081.102 1
  23290090.987    -6932493.201 6  -5247457.351 1
  21813771.050   -14591476.220 7 -10263994.260 1
  22974242.151    -7522319.510 5  -4887147.505 1
 90 10 22 11 48 59.9990000  0  6 02 06 18 15 13 09
  20741594.198     -140183.206 7    228660.584 3
  20516646.065    -8470176.386 7  -6546565.038 3
  24555747.034    12457906.987 4   9606511.543 1
  23287705.628    -6945010.921 6  -5257211.409 1
  21803566.698   -14645099.434 7 -10305778.577 1
  22964588.878    -7573033.362 5  -4926664.787 1
 90 10 22 11 49 14.9990000  0  6 02 06 18 15 13 09
  20742611.526     -134832.632 7    232829.865 3
  20511749.714    -8495906.186 7  -6566614.234 2
  24564881.308    12505922.689 4   9643926.351 1
  23285347.206    -6957401.849 6  -5266866.678 1
  21793379.776   -14698629.846 7 -10347490.578 1
  22954939.284    -7623739.482 5  -4966176.051 1
 90 10 22 11 49 29.9990000  0  6 02 06 18 15 13 09
  20743637.120     -129442.603 7    237029.888 3
  20506866.378    -8521565.613 7  -6586608.598 3
  24574015.433    12553916.666 4   9681324.271 1
  23283008.565    -6969667.246 6  -5276424.122 1
  21783211.401   -14752068.690 7 -10389131.226 1
  22945294.745    -7674439.069 5  -5005682.204 1
 90 10 22 11 49 44.9990000  0  6 02 06 18 15 13 09
  20744669.870     -124014.260 7    241259.762 3
  20501996.237    -8547155.458 7  -6606548.734 3
  24583141.761    12601887.688 4   9718704.299 1
  23280698.628    -6981807.827 6  -5285884.290 1
  21773058.987   -14805416.835 7 -10430701.201 1
  22935644.323    -7725132.824 5  -5045183.847 1
 90 10 22 11 49 59.9990000  0  6 02 06 18 15 13 09
  20745711.042     -118546.500 7    245520.356 3
  20497139.675    -8572674.353 7  -6626433.583 2
  24592263.011    12649836.536 3   9756067.060 1
  23278416.276    -6993822.360 6  -5295246.259 1
  21762924.776   -14858672.866 7 -10472199.401 1
  22926001.589    -7775819.623 5  -5084680.010 1
 90 10 22 11 50 14.9990000  0  6 02 06 18 15 13 09
  20746759.948     -113035.548 7    249814.608 3
  20492298.573    -8598118.260 7  -6646260.003 3
  24601385.081    12697766.641 3   9793415.178 1
  23276152.839    -7005706.990 6  -5304507.004 1
  21752808.151   -14911832.617 7 -10513622.573 1
  22916358.644    -7826495.163 5  -5124167.452 1
 90 10 22 11 50 29.9990000  0  5 02 06 15 13 09
  20747814.065     -107488.306 7    254137.137 3
  20487468.831    -8623493.432 7  -6666032.860 2
  23273912.401    -7017468.360 6  -5313671.691 1
  21742709.644   -14964902.365 7 -10554975.612 1
  22906718.620    -7877166.253 5  -5163651.409 1
 90 10 22 11 50 44.9990000  0  5 02 06 15 13 09
  20748880.214     -101891.963 7    258497.920 3
  20482656.511    -8648787.191 7  -6685742.277 2
  23271710.347    -7029093.553 6  -5322730.289 1
  21732631.409   -15017869.193 7 -10596248.458 1
  22897076.081    -7927819.775 5  -5203121.691 1
 90 10 22 11 50 59.9990000  0  5 02 06 15 13 09
  20749952.745      -96258.737 7    262887.446 3
  20477856.706    -8674011.346 7  -6705397.460 2
  23269518.534    -7040594.290 6  -5331691.908 1
  21722567.729   -15070744.861 7 -10637450.262 1
  22887441.659    -7978467.637 5  -5242587.552 1
 90 10 22 11 51 14.9990000  0  5 02 06 15 13 09
  20751031.878      -90581.903 7    267310.955 3
  20473072.987    -8699158.476 7  -6724992.627 2
  23267359.386    -7051963.639 6  -5340551.134 1
  21712525.269   -15123522.286 7 -10678575.527 1
  22877806.854    -8029102.809 5  -5282043.482 1
 90 10 22 11 51 29.9990000  0  5 02 06 15 13 09
  20752119.440      -84867.050 7    271764.082 3
  20468299.323    -8724234.236 7  -6744532.184 2
  23265214.440    -7063207.129 6  -5349312.298 1
  21702500.401   -15176206.761 7 -10719628.361 1
  22868169.636    -8079730.698 5  -5321493.814 1
 90 10 22 11 51 44.9990000  0  5 02 06 15 13 09
  20753215.644      -79108.496 7    276251.263 3
  20463541.831    -8749232.899 7  -6764011.663 2
  23263099.034    -7074319.196 6  -5357971.052 1
  21692492.823   -15228792.438 7 -10760604.200 1
  22858536.776    -8130345.693 5  -5360934.035 1
 90 10 22 11 51 59.9990000  0  5 02 06 15 13 09
  20754321.433      -73298.799 7    280778.299 3
  20458801.956    -8774146.230 7  -6783424.644 2
  23261010.394    -7085292.106 6  -5366521.360 1
  21682506.362   -15281271.397 7 -10801496.894 1
  22848911.776    -8180939.743 5  -5400357.987 1
 90 10 22 11 52 14.9990000  0  5 02 06 15 13 09
  20755433.355      -67453.988 7    285332.696 3
  20454073.386    -8798990.134 7  -6802783.537 2
  23258946.800    -7096141.638 6  -5374975.529 1
  21672537.034   -15333659.298 7 -10842318.630 1
  22839283.292    -8231528.626 5  -5439777.869 1
 90 10 22 11 52 29.9990000  0  5 02 06 15 13 09
  20756553.706      -61571.742 7    289916.263 3
  20449360.433    -8823761.825 7  -6822086.148 2
  23256906.261    -7106865.130 6  -5383331.485 1
  21662586.511   -15385953.442 7 -10883067.308 1
  22829658.589    -8282109.864 5  -5479191.824 1
 90 10 22 11 52 44.9990000  0  5 02 06 15 13 09
  20757679.347      -55649.993 7    294530.609 3
  20444659.831    -8848458.919 7  -6841330.641 3
  23254888.987    -7117460.239 5  -5391587.416 1
  21652653.214   -15438151.577 7 -10923741.177 1
  22820032.104    -8332680.867 5  -5518597.808 1
 90 10 22 11 52 59.9990000  0  5 02 06 15 13 09
  20758812.058      -49692.245 7    299173.009 3
  20439975.308    -8873084.615 7  -6860519.500 3
  23252897.526    -7127930.624 5  -5399746.148 1
  21642738.823   -15490256.974 7 -10964342.777 1
  22810410.933    -8383245.000 5  -5557998.408 1
 90 10 22 11 53 14.9990000  0  5 02 06 15 13 09
  20759956.964      -43678.906 7    303858.724 3
  20435305.581    -8897619.464 7  -6879637.561 3
  23250931.979    -7138256.826 6  -5407792.541 1
  21632844.167   -15542249.718 7 -11004856.593 1
  22800792.839    -8433782.627 5  -5597378.388 1
 90 10 22 11 53 29.9990000  0  5 02 06 15 13 09
  20761108.644      -37624.540 7    308576.412 3
  20430651.269    -8922077.164 7  -6898695.514 3
  23248990.284    -7148452.866 6  -5415737.494 1
  21622967.839   -15594143.748 7 -11045293.497 1
  22791181.979    -8484307.886 5  -5636748.679 1
 90 10 22 11 53 44.9990000  0  5 02 06 15 13 09
  20762268.815      -31530.026 7    313325.381 3
  20426012.565    -8946458.436 7  -6917693.906 3
  23247072.831    -7158519.350 6  -5423581.501 1
  21613111.675   -15645939.681 7 -11085653.964 1
  22781571.206    -8534821.330 5  -5676109.827 1
 90 10 22 11 53 59.9990000  0  5 02 06 15 13 09
  20763435.972      -25397.930 7    318103.638 3
  20421385.183    -8970765.701 7  -6936634.630 3
  23245190.183    -7168458.730 6  -5431326.469 1
  21603274.448   -15697639.857 7 -11125939.804 1
  22771954.214    -8585325.280 5  -5715463.555 1
 90 10 22 11 54 14.9990000  0  5 02 06 15 13 09
  20764611.058      -19223.307 7    322915.033 3
  20416775.839    -8994993.448 7  -6955513.396 3
  23243321.440    -7178265.466 6  -5438968.070 1
  21593455.558   -15749238.879 7 -11166146.823 1
  22762344.800    -8635814.491 5  -5754805.773 1
 90 10 22 11 54 29.9990000  0  5 02 06 15 13 09
  20765795.058      -13000.447 7    327764.013 3
  20412181.769    -9019135.557 7  -6974325.429 3
  23241479.128    -7187933.979 6  -5446501.980 1
  21583656.589   -15800730.830 7 -11206270.413 1
  22752746.933    -8686282.940 5  -5794131.836 1
 90 10 22 11 54 44.9990000  0  5 02 06 15 13 09
  20766986.862       -6733.981 7    332646.965 3
  20407603.214    -9043196.681 7  -6993074.355 3
  23239668.120    -7197469.111 6  -5453931.939 1
  21573876.940   -15852120.008 7 -11246313.916 1
  22743145.714    -8736735.198 6  -5833445.278 1
 90 10 22 11 54 59.9990000  0  5 02 06 15 13 09
  20768190.620        -417.341 7    337569.019 3
  20403041.042    -9067169.669 7  -7011754.595 3
  23237877.995    -7206863.973 6  -5461252.620 1
  21564119.378   -15903399.405 7 -11286271.884 1
  22733548.776    -8787164.239 5  -5872740.638 1
 90 10 22 11 55 14.9990000  0  5 02 06 15 13 09
  20769402.081        5952.836 7    342532.792 3
  20398496.347    -9091051.047 7  -7030363.455 3
  23236113.245    -7216114.721 6  -5468460.976 1
  21554383.230   -15954565.544 7 -11326141.590 1
  22723958.034    -8837566.392 5  -5912015.035 1
 90 10 22 11 55 29.9990000  0  5 02 06 15 13 09
  20770625.612       12388.400 7    347547.511 3
  20393971.456    -9114828.770 7  -7048891.547 3
  23234385.073    -7225209.869 6  -5475548.101 1
  21544670.620   -16005606.136 7 -11365913.474 1
  22714375.550    -8887929.930 5  -5951259.335 1
 90 10 22 11 55 44.9990000  0  5 02 06 15 13 09
  20771860.019       18867.707 7    352596.323 3
  20389461.995    -9138524.080 7  -7067355.421 3
  23232672.276    -7234170.890 6  -5482530.711 1
  21534978.003   -16056542.642 7 -11405604.249 1
  22704790.120    -8938276.101 5  -5990490.132 1
 90 10 22 11 55 59.9990000  0  5 02 06 15 13 09
  20773101.058       25396.269 7    357683.515 3
  20384970.440    -9162131.000 7  -7085750.421 3
  23230996.776    -7242991.642 6  -5489404.022 1
  21525304.753   -16107369.075 7 -11445209.253 1
  22695220.370    -8988598.770 6  -6029702.585 1
 90 10 22 11 56 14.9990000  0  5 02 06 15 13 09
  20774352.464       31964.717 7    362801.784 3
  20380494.144    -9185658.601 7  -7104083.619 3
  23229344.831    -7251681.282 6  -5496175.164 1
  21515653.448   -16158094.374 7 -11484735.455 1
  22685645.487    -9038907.271 5  -6068904.016 1
 90 10 22 11 56 29.9990000  0  5 02 06 15 13 09
  20775607.917       38565.750 7    367945.440 3
  20376030.042    -9209113.882 7  -7122360.464 3
  23227716.065    -7260247.257 6  -5502849.938 1
  21506017.979   -16208725.486 7 -11524188.263 1
  22676067.026    -9089208.529 5  -6108099.806 1
 90 10 22 11 56 44.9990000  0  5 02 06 15 13 09
  20776870.753       45203.830 7    373117.964 3
  20371581.073    -9232492.132 7  -7140577.284 3
  23226114.745    -7268684.943 6  -5509424.765 1
  21496402.808   -16259257.972 7 -11563564.229 1
  22666498.354    -9139497.890 5  -6147286.328 1
 90 10 22 11 56 59.9990000  0  5 02 06 15 13 09
  20778141.089       51878.616 7    378319.100 3
  20367148.050    -9255793.434 7  -7158734.147 3
  23224531.534    -7276994.625 6  -5515899.832 1
  21486805.878   -16309691.665 7 -11602863.196 1
  22656934.698    -9189775.315 5  -6186463.524 1
 90 10 22 11 57 14.9990000  0  5 02 06 15 13 09
  20779419.222       58593.887 7    383551.776 3
  20362728.667    -9279013.752 7  -7176827.897 3
  23222971.308    -7285172.639 6  -5522272.306 1
  21477227.214   -16360022.591 7
  22647364.980    -9240036.972 5
 90 10 22 11 57 29.9990000  0  5 02 06 15 13 09
  20780706.886       65351.748 7    388817.640 3
  20358325.995    -9302150.715 7  -7194856.701 3
  23221444.823    -7293216.375 6  -5528540.168 1
  21467669.558   -16410248.408 7
  22637808.175    -9290280.506 5
 90 10 22 11 57 44.9990000  0  5 02 06 15 13 09
  20781999.276       72154.773 7    394118.695 3
  20353938.394    -9325201.248 7  -7212818.155 3
  23219944.097    -7301123.088 6  -5534701.217 1
  21458133.417   -16460366.217 7 -11720271.921 1
  22628247.362    -9340502.992 5  -6303913.653 1
 90 10 22 11 57 59.9990000  0  5 02 06 15 13 09
  20783303.808       79003.329 7    399455.231 3
  20349568.933    -9348164.820 7  -7230711.852 3
  23218461.659    -7308892.416 6  -5540755.236 1
  21448616.925   -16510375.361 7 -11759240.077 1
  22618699.815    -9390703.756 5  -6343031.119 1
 90 10 22 11 58 14.9990000  0  5 02 06 15 13 09
  20784613.714       85892.341 7    404823.294 3
  20345214.800    -9371046.091 7  -7248541.413 3
  23217007.292    -7316529.293 6  -5546706.048 1
  21439118.925   -16560280.157 7 -11798126.927 1
  22609148.479    -9440887.484 5  -6382135.320 1
 90 10 22 11 58 29.9990000  0  5 02 06 15 13 09
  20785930.269       92810.470 7    410214.045 3
  20340875.065    -9393855.952 7  -7266315.336 3
  23215574.284    -7324044.793 6  -5552562.280 1
  21429640.144   -16610091.883 7 -11836941.249 1
  22599604.784    -9491065.368 6  -6421234.954 1
 90 10 22 11 58 44.9990000  0  5 02 06 15 13 09
  20787254.339       99766.237 7    415634.122 3
  20336549.284    -9416585.839 7  -7284026.935 3
  23214175.097    -7331430.264 6  -5558317.194 1
  21420180.159   -16659801.652 7 -11875676.130 1
  22590057.354    -9541228.472 5  -6460323.094 1
 90 10 22 11 58 59.9990000  0  5 02 06 15 13 09
  20788584.753      106757.269 7    421081.675 3
  20332237.644    -9439237.787 7  -7301677.799 3
  23212788.331    -7338688.145 6  -5563972.691 1
  21410741.753   -16709411.630 7 -11914333.253 1
  22580510.144    -9591379.030 5  -6499401.432 1
 90 10 22 11 59 14.9990000  0  5 02 06 15 13 09
  20789922.667      113790.107 7    426561.804 3
  20327944.753    -9461805.014 7  -7319262.652 3
  23211437.534    -7345811.835 6  -5569523.585 1
  21401318.894   -16758915.204 7 -11952907.463 1
  22570973.144    -9641510.475 5  -6538464.884 1
 90 10 22 11 59 29.9990000  0  5 02 06 15 13 09
  20791268.862      120867.471 7    432076.628 3
  20323666.300    -9484284.254 7  -7336778.943 3
  23210107.097    -7352798.031 6  -5574967.383 1
  21391920.948   -16808309.141 7 -11991396.240 1
  22561436.214    -9691619.437 5  -6577510.820 1
 90 10 22 11 59 44.9990000  0  5 02 06 15 13 09
  20792622.487      127985.280 7    437622.969 3
  20319405.550    -9506679.428 7  -7354229.724 3
  23208798.409    -7359650.720 6  -5580307.133 1
  21382541.839   -16857597.138 7 -12029802.458 1
  22551906.847    -9741709.622 5  -6616542.141 1
 90 10 22 11 59 59.9990000  0  5 02 06 15 13 09
  20793984.628      135143.366 7    443200.697 3
  20315159.495    -9528990.310 7  -7371614.822 3
  23207516.472    -7366369.897 6  -5585542.860 1
  21373182.737   -16906779.164 7 -12068126.105 1
  22542372.831    -9791781.130 5  -6655558.883 1
 90 10 22 12  0 14.9990000  0  5 02 06 15 13 09
  20795356.519      142345.088 7    448812.424 3
  20310929.925    -9551213.295 7  -7388931.437 3
  23206267.355    -7372952.522 6  -5590672.185 1
  21363844.698   -16955851.750 7 -12106364.474 1
  22532851.128    -9841830.332 5  -6694558.253 1
 90 10 22 12  0 29.9990000  0  5 02 06 15 13 09
  20796735.737      149590.447 7    454458.156 3
  20306718.534    -9573348.099 7  -7406179.338 3
  23205042.433    -7379398.467 6  -5595694.981 1
  21354527.839   -17004814.232 7 -12144517.046 1
  22523330.761    -9891856.793 5  -6733539.912 1
 90 10 22 12  0 44.9990000  0  5 02 06 15 13 09
  20798121.339      156874.533 7    460134.062 3
  20302522.370    -9595399.563 7  -7423362.296 3
  23203846.042    -7385712.631 6  -5600615.114 1
  21345230.433   -17053671.402 7 -12182587.557 1
  22513813.229    -9941865.525 5  -6772507.771 1
 90 10 22 12  0 59.9990000  0  5 02 06 15 13 09
  20799515.151      164195.243 7    465838.503 3
  20298341.323    -9617369.125 7  -7440481.440 3
  23202665.870    -7391896.664 6  -5605433.824 1
  21335953.401   -17102424.949 7 -12220577.324 1
  22504298.925    -9991858.166 5  -6811463.058 1
 90 10 22 12  1 14.9990000  0  5 02 06 15 13 09
  20800915.362      171554.297 7    471572.828 3
  20294176.534    -9639254.923 7  -7457535.310 3
  23201519.175    -7397948.824 6  -5610149.778 1
  21326694.987   -17151073.118 7 -12258484.980 1
  22494796.081   -10041832.648 6  -6850404.211 1
 90 10 22 12  1 29.9990000  0  5 02 06 15 13 09
  20802322.034      178951.677 7    477337.018 3
  20290028.464    -9661056.718 7  -7474523.724 3
  23200384.714    -7403868.913 6  -5614762.836 1
  21317457.308   -17199615.377 7 -12296310.107 1
  22485284.972   -10091788.718 5  -6889331.010 1
 90 10 22 12  1 44.9990000  0  5 02 06 15 13 09
  20803737.909      186387.836 7    483131.424 3
  20285895.605    -9682773.800 7  -7491446.126 3
  23199276.401    -7409656.056 6  -5619272.283 1
  21308240.292   -17248050.998 7 -12334052.141 1
  22475785.706   -10141725.723 5  -6928242.961 1
 90 10 22 12  1 59.9990000  0  5 02 06 15 13 09
  20805157.573      193861.699 7    488955.207 3
  20281779.472    -9704406.592 7  -7508302.841 3
  23198216.519    -7415311.520 6  -5623679.111 1
  21299042.159   -17296380.790 7 -12371711.716 1
  22466285.870   -10191644.220 5  -6967140.476 1
 90 10 22 12  2 14.9990000  0  5 02 06 15 13 09
  20806588.159      201372.786 7    494807.997 3
  20277678.269    -9725955.570 7  -7525094.256 3
  23197162.604    -7420835.843 6  -5627983.815 1
  21289866.464   -17344605.088 7 -12409289.092 1
  22456787.636   -10241544.612 5  -7006023.884 1
 90 10 22 12  2 29.9990000  0  5 02 06 15 13 09
  20808027.479      208924.617 7    500692.540 3
  20273595.136    -9747417.023 7  -7541817.464 3
  23196129.237    -7426225.405 6  -5632183.470 1
  21280711.183   -17392720.325 7 -12446781.472 1
  22447297.698   -10291423.136 5  -7044890.266 1
 90 10 22 12  2 44.9990000  0  5 02 06 15 13 09
  20809470.448      216511.655 7    506604.516 3
  20269526.354    -9768795.989 7  -7558476.397 3
  23195135.347    -7431485.492 6  -5636282.209 1
  21271574.784   -17440731.424 7 -12484192.710 1
  22437809.878   -10341284.995 5  -7083743.649 1
 90 10 22 12  2 59.9990000  0  5 02 06 15 13 09
  20810921.847      224143.833 7    512551.662 3
  20265475.839    -9790082.229 7  -7575063.079 3
  23194159.323    -7436606.302 6  -5640272.454 1
  21262461.089   -17488628.073 7 -12521514.769 1
  22428327.347   -10391119.894 5  -7122576.047 1
 90 10 22 12  3 14.9990000  0  5 02 06 15 13 09
  20812382.073      231817.260 7    518530.950 3
  20261442.714    -9811279.426 7  -7591580.374 3
  23193206.425    -7441591.508 6  -5644157.040 1
  21253366.948   -17536414.230 7 -12558750.726 1
  22418851.112   -10440931.681 6  -7161390.404 1
 90 10 22 12  3 29.9990000  0  5 02 06 15 13 09
  20813849.534      239528.329 7    524539.581 3
  20257425.081    -9832390.936 7  -7608030.901 3
  23192290.612    -7446444.556 6  -5647938.615 1
  21244294.112   -17584092.937 7 -12595902.955 1
  22409370.620   -10490723.412 6  -7200189.159 1
 90 10 22 12  3 44.9990000  0  5 02 06 15 13 09
  20815325.347      247282.854 7    530582.066 3
  20253424.925    -9853410.511 7  -7624409.787 3
  23191380.894    -7451159.258 6  -5651612.399 1
  21235242.620   -17631658.231 7 -12632966.815 1
  22399905.651   -10540488.976 6  -7238967.524 1
 90 10 22 12  3 59.9990000  0  5 02 06 15 13 09
  20816806.995      255077.172 7    536655.558 3
  20249441.831    -9874341.618 7  -7640719.740 3
  23190514.542    -7455739.474 6  -5655181.382 1
  21226212.894   -17679113.340 7 -12669944.814 1
  22390437.019   -10590231.864 6  -7277728.208 1
 90 10 22 12  4 14.9990000  0  5 02 06 15 13 09
  20818299.675      262910.207 7    542759.215 3
  20245475.620    -9895185.081 7  -7656961.401 3
  23189666.729    -7460186.224 6  -5658646.391 1
  21217201.839   -17726459.250 7 -12706837.725 1
  22380979.620   -10639953.009 6  -7316471.943 1
 90 10 22 12  4 29.9990000  0  5 02 06 15 13 09
  20819796.628      270781.847 7    548892.958 3
  20241524.995    -9915940.644 7  -7673134.568 3
  23188844.073    -7464499.730 6  -5662007.556 1
  21208215.058   -17773695.867 7 -12743645.470 1
  22371519.276   -10689652.167 6  -7355198.559 1
 90 10 22 12  4 44.9990000  0  5 02 06 15 13 09
  20821303.308      278690.408 7    555055.466 3
  20237592.315    -9936609.648 7  -7689240.284 3
  23188056.253    -7468681.315 6  -5665265.928 1
  21199245.362   -17820824.278 7 -12780368.890 1
  22362060.792   -10739330.535 6  -7393908.975 1
 90 10 22 12  4 59.9990000  0  5 02 06 15 13 09
  20822815.604      286641.728 7    561251.296 3
  20233677.417    -9957185.959 7  -7705273.773 3
  23187285.542    -7472725.027 6  -5668416.881 1
  21190299.034   -17867838.406 7 -12817003.269 1
  22352620.479   -10788982.083 6  -7432598.485 1
 90 10 22 12  5 14.9990000  0  5 02 06 15 13 09
  20824336.198      294633.599 7    567478.727 3
  20229778.604    -9977671.440 7  -7721236.484 3
  23186539.448    -7476633.059 6  -5671462.089 1
  21181374.362   -17914740.420 7 -12853550.289 1
  22343176.792   -10838608.681 6  -7471268.566 1
 90 10 22 12  5 29.9990000  0  5 02 06 15 13 09
  20825864.745      302666.029 7    573737.759 3
  20225898.065    -9998066.148 7  -7737128.464 2
  23185830.612    -7480405.283 6  -5674401.485 1
  21172471.222   -17961530.117 7 -12890009.784 1
  22333731.714   -10888210.417 6  -7509919.257 1
 90 10 22 12  5 44.9990000  0  5 02 06 15 13 09
  20827397.503      310732.738 7    580023.509 3
  20222032.065   -10018375.822 7  -7752954.184 3
  23185130.448    -7484047.475 6  -5677239.562 1
  21163586.683   -18008213.311 7 -12926386.296 1
  22324292.761   -10937792.808 6  -7548554.883 1
 90 10 22 12  5 59.9990000  0  5 02 06 15 13 09
  20828943.495      318840.429 7    586341.189 3
  20218185.503   -10038593.295 7  -7768708.060 3
  23184459.597    -7487553.423 6  -5679971.461 1
  21154724.503   -18054782.904 7 -12962674.284 1
  22314867.151   -10987349.016 6  -7587170.103 1
 90 10 22 12  6 14.9990000  0  5 02 06 15 13 09
  20830493.073      326989.388 7    592691.026 3
  20214356.362   -10058718.135 7  -7784389.757 3
  23183822.315    -7490922.942 6  -5682597.074 1
  21145883.784   -18101238.514 7 -12998873.454 1
  22305440.753   -11036878.416 6  -7625764.448 1
 90 10 22 12  6 29.9990000  0  5 02 06 15 13 09
  20832052.651      335180.366 7    599073.598 3
  20210543.198   -10078749.422 7  -7799998.551 3
  23183204.136    -7494154.910 6  -5685115.470 1
  21137065.573   -18147579.254 7 -13034983.116 1
  22296023.315   -11086380.176 6  -7664337.252 1
 90 10 22 12  6 44.9990000  0  5 02 06 15 13 09
  20833618.729      343412.458 7    605488.213 3
  20206749.120   -10098687.862 7  -7815534.994 3
  23182609.159    -7497250.101 6  -5687527.323 1
  21128270.011   -18193805.575 7 -13071003.620 1
  22286605.792   -11135854.916 6  -7702888.981 1
 90 10 22 12  6 59.9990000  0  5 02 06 15 13 09
  20835194.636      351691.884 7    611939.720 3
  20202973.979   -10118526.666 7  -7830993.799 3
  23182058.792    -7500202.561 6  -5689827.930 1
  21119496.354   -18239911.044 7 -13106929.948 1
  22277198.214   -11185295.985 6  -7741414.487 1
 90 10 22 12  7 14.9990000  0  5 02 06 15 13 09
  20836777.761      360012.431 7    618423.260 3
  20199216.917   -10138272.009 7  -7846379.782 3
  23181517.300    -7503018.278 6  -5692021.999 1
  21110744.159   -18285901.731 7 -13142766.834 1
  22267799.815   -11234709.482 6  -7779918.504 1
 90 10 22 12  7 29.9990000  0  5 02 06 15 13 09
  20838365.628      368365.641 7    624932.256 3
  20195476.136   -10157931.853 7  -7861699.136 3
  23181010.714    -7505705.184 6  -5694115.708 1
  21102013.042   -18331785.764 7 -13178520.611 1
  22258399.354   -11284103.441 6  -7818407.308 1
 90 10 22 12  7 44.9990000  0  5 02 06 15 13 09
  20839963.737      376759.342 7    631472.798 3
  20191752.698   -10177498.300 7  -7876945.721 3
  23180529.144    -7508255.789 6  -5696103.182 1
  21093303.995   -18377555.163 7 -13214185.080 1
  22248998.940   -11333469.785 6  -7856874.580 1
 90 10 22 12  7 59.9990000  0  5 02 06 15 13 09
  20841569.597      385192.338 7    638043.956 3
  20188047.409   -10196972.140 7  -7892120.144 3
  23180071.698    -7510670.883 6  -5697985.085 1
  21084614.394   -18423210.637 7 -13249760.767 1
  22239618.612   -11382809.296 6  -7895320.950 1
 90 10 22 12  8 14.9990000  0  5 02 06 15 13 09
  20843181.058      393663.885 7    644645.158 3
  20184357.753   -10216353.593 7  -7907222.571 3
  23179634.792    -7512951.509 6  -5699762.197 1
  21075950.339   -18468752.803 7 -13285248.158 1
  22230227.831   -11432122.312 6  -7933746.675 1
 90 10 22 12  8 29.9990000  0  5 02 06 15 13 09
  20844800.464      402177.117 7    651278.846 3
  20180688.503   -10235639.483 7  -7922250.536 3
  23179219.745    -7515094.323 6  -5701431.913 1
  21067304.495   -18514178.177 7 -13320644.539 1
  22220853.042   -11481405.652 6  -7972149.283 1
 90 10 22 12  8 44.9990000  0  5 02 06 15 13 09
  20846428.620      410731.474 7    657944.575 3
  20177036.604   -10254829.904 7  -7937204.109 3
  23178844.050    -7517099.926 6  -5702994.732 1
  21058682.714   -18559486.946 7 -13355950.064 1
  22211475.940   -11530659.387 6  -8010528.812 1
 90 10 22 12  8 59.9990000  0  5 02 06 15 13 09
  20848064.894      419323.227 7    664639.446 3
  20173402.104   -10273928.581 7  -7952086.192 3
  23178481.690    -7518972.104 6  -5704453.571 1
  21050081.745   -18604683.069 7 -13391167.814 1
  22202111.745   -11579887.258 6  -8048888.191 1
 90 10 22 12  9 14.9990000  0  5 02 06 15 13 09
  20849708.159      427957.701 7    671367.604 3
  20169786.565   -10292929.912 7  -7966892.427 2
  23178147.495    -7520705.505 6  -5705804.289 1
  21041504.355   -18649760.759 7 -13426293.271 1
  22192747.222   -11629083.595 6  -8087223.000 1
 90 10 22 12  9 29.9990000  0  5 02 06 15 13 09
  20851360.104      436636.984 7    678130.670 3
  20166189.909   -10311831.623 7  -7981621.036 3
  23177854.644    -7522298.156 6  -5707045.314 1
  21032949.675   -18694717.776 7 -13461324.704 2
  22183392.472   -11678245.999 6  -8125531.358 1
 90 10 22 12  9 44.9990000  0  5 02 06 15 13 09
  20853019.331      445358.125 7    684926.368 3
  20162611.292   -10330636.027 7  -7996273.819 2
  23177571.667    -7523752.566 6  -5708178.608 1
  21024416.323   -18739556.764 7 -13496264.163 1
  22174046.026   -11727377.231 6  -8163815.436 1
 90 10 22 12  9 59.9990000  0  5 02 06 15 13 09
  20854683.956      454119.097 7    691753.096 3
  20159051.058   -10349345.272 7  -8010852.447 3
  23177318.409    -7525070.735 6  -5709205.758 1
  21015905.862   -18784279.524 7 -13531113.059 1
  22164704.894   -11776478.828 6  -8202076.405 1
 90 10 22 12 10 14.9990000  0  5 02 06 15 13 09
  20856360.917      462918.393 7    698609.687 3
  20155509.581   -10367960.256 7  -8025357.638 3
  23177101.034    -7526254.195 6  -5710127.953 1
  21007416.558   -18828887.206 7 -13565872.279 2
  22155360.761   -11825551.920 6  -8240315.181 1
 90 10 22 12 10 29.9990000  0  5 02 06 15 13 09
  20858042.612      471752.372 7    705493.306 3
  20151983.729   -10386484.301 7  -8039791.956 2
  23176895.222    -7527306.231 6  -5710947.717 1
  20998949.933   -18873382.901 7 -13600544.246 1
  22146036.347   -11874599.971 6  -8278534.421 1
 90 10 22 12 10 44.9990000  0  5 02 06 15 13 09
  20859729.331      480627.426 7    712408.930 3
  20148476.534   -10404910.831 7  -8054150.292 2
  23176719.370    -7528220.515 6  -5711660.165 1
  20990503.698   -18917760.380 7 -13635124.091 2
  22136706.065   -11923616.064 6  -8316728.786 1
 90 10 22 12 10 59.9990000  0  5 02 06 15 13 09
  20861429.112      489548.967 7    719360.779 3
  20144990.620   -10423234.125 7  -8068428.179 2
  23176577.003    -7528992.018 6  -5712261.333 1
  20982083.245   -18962014.124 7 -13669607.530 1
  22127382.308   -11972594.927 6  -8354894.128 1
 90 10 22 12 11 14.9990000  0  5 02 06 15 13 09
  20863131.761      498503.025 7    726337.959 3
  20141521.612   -10441467.945 7  -8082636.348 2
  23176454.089    -7529634.516 6  -5712761.986 1
  20973682.698   -19006157.453 7 -13704004.923 1
  22118067.573   -12021549.747 6  -8393040.746 1
 90 10 22 12 11 29.9990000  0  5 02 06 15 13 09
  20864842.284      507497.899 7    733346.949 3
  20138069.370   -10459603.877 7  -8096768.243 2
  23176359.995    -7530139.460 6  -5713155.449 1
  20965306.026   -19050182.291 7 -13738309.984 1
  22108752.925   -12070472.597 6  -8431162.432 1
 90 10 22 12 11 44.9990000  0  5 02 06 15 13 09
  20866560.558      516533.662 7    740387.801 3
  20134637.565   -10477641.323 7  -8110823.394 2
  23176288.190    -7530506.677 6  -5713441.594 1
  20956951.690   -19094088.061 7 -13772522.272 1
  22099454.362   -12119362.698 6  -8469258.607 1
 90 10 22 12 11 59.9990000  0  5 02 06 15 13 09
  20868291.495      525612.288 7    747462.054 3
  20131224.019   -10495578.064 6  -8124800.072 2
  23176249.104    -7530734.401 6
  20948618.269   -19137872.426 7 -13806639.944 2
  22090156.886   -12168217.660 6  -8507327.406 1
 90 10 22 12 12 14.9990000  0  5 02 06 15 13 09
  20870027.128      534731.682 7    754568.074 3
  20127830.589   -10513416.064 7  -8138699.815 2
  23176229.558    -7530824.586 6
  20940310.753   -19181537.313 7 -13840664.525 2
  22080865.636   -12217039.530 6  -8545370.421 1
 90 10 22 12 12 29.9990000  0  5 02 06 15 13 09
  20871770.753      543893.951 7    761707.503 3
  20124454.651   -10531152.861 6  -8152520.695 2
  23176236.308    -7530775.334 6
  20932025.175   -19225080.673 7 -13874594.412 1
  22071581.940   -12265825.896 6  -8583385.772 1
 90 10 22 12 12 44.9990000  0  5 02 06 15 13 09
  20873519.526      553097.817 7    768879.342 3
  20121098.081   -10548789.418 6  -8166263.468 2
  23176270.823    -7530587.688 6
  20923760.792   -19268503.283 7 -13908430.205 1
  22062306.550   -12314577.588 6  -8621374.095 1
 90 10 22 12 12 59.9990000  0  5 02 06 15 13 09
  20875277.909      562339.878 7    776080.943 3
  20117761.315   -10566328.944 6  -8179930.632 2
  23176338.706    -7530264.867 6
  20915521.323   -19311808.289 7 -13942174.356 1
  22053030.792   -12363297.734 6  -8659337.832 1
 90 10 22 12 13 14.9990000  0  5 02 06 15 13 09
  20877043.972      571626.865 7    783317.553 3
  20114442.683   -10583764.449 6  -8193516.741 2
  23176427.175    -7529800.528 6        -0.37311
  20907304.097   -19354988.991 7 -13975821.647 2
  22043768.237   -12411979.359 6  -8697271.547 1
 90 10 22 12 13 29.9990000  0  5 02 06 15 13 09
  20878821.792      580953.578 7    790585.119 3
  20111143.362   -10601100.835 6  -8207025.611 2
  23176531.354    -7529199.728 6       467.766 1
  20899108.597   -19398050.434 7 -14009376.009 2
  22034509.159   -12460627.528 6  -8735179.204 1
 90 10 22 12 13 44.9990000  0  5 02 06 15 13 09
  20880602.597      590316.605 7    797880.981 3
  20107863.331   -10618341.327 6  -8220459.762 2
  23176680.026    -7528465.866 6      1039.596 1
  20890936.870   -19440995.702 7 -14042839.856 2
  22025259.636   -12509245.141 6  -8773063.052 1
 90 10 22 12 13 59.9990000  0  5 02 06 15 13 09
  20882391.308      599720.317 7    805208.544 3
  20104600.589   -10635481.373 6  -8233815.647 2
  23176845.917    -7527594.435 6      1718.646 1
  20882787.331   -19483820.232 7 -14076209.615 2
  22016013.605   -12557827.755 6  -8810919.627 1
 90 10 22 12 14 14.9990000  0  5 02 06 15 13 09
  20884189.964      609164.605 7    812567.727 3
  20101358.870   -10652520.414 6  -8247092.822 2
  23177027.995    -7526585.175 6      2505.065 1
  20874660.245   -19526523.717 7 -14109485.058 2
  22006777.136   -12606375.053 6  -8848748.696 1
 90 10 22 12 14 29.9990000  0  5 02 06 15 13 09
  20885993.112      618647.203 7    819956.759 3
  20098135.753   -10669460.487 6  -8260292.876 2
  23177254.972    -7525440.445 6      3397.053 1
  20866557.933   -19569108.042 7 -14142667.642 2
  21997546.698   -12654888.648 6  -8886551.490 1
 90 10 22 12 14 44.9990000  0  5 02 06 15 13 09
  20887805.675      628169.169 7    827376.473 3
  20094930.487   -10686300.404 6  -8273414.886 2
  23177496.808    -7524159.197 6      4395.442 1
  20858477.753   -19611571.990 7 -14175756.425 2
  21988319.433   -12703367.368 6  -8924327.109 1
 90 10 22 12 14 59.9990000  0  5 02 06 15 13 09
  20889626.862      637731.216 7    834827.415 3
  20091745.550   -10703039.185 6  -8286458.093 2
  23177767.800    -7522741.087 6      5500.441 1
  20850419.940   -19653914.831 7 -14208750.839 2
  21979102.276   -12751810.339 6  -8962074.869 1
 90 10 22 12 15 14.9990000  0  5 02 06 15 13 09
  20891450.792      647333.823 7    842309.964 3
  20088579.917   -10719676.251 6  -8299422.042 2
  23178060.854    -7521185.600 6      6712.508 1
  20842385.214   -19696135.982 7 -14241650.433 2
  21969891.722   -12800216.824 6  -8999794.201 1
 90 10 22 12 15 29.9990000  0  5 02 06 15 13 09
  20893287.706      656976.832 7    849823.996 3
  20085433.261   -10736211.288 6  -8312306.488 2
  23178381.823    -7519492.368 6      8031.889 1
  20834375.105   -19738235.315 7 -14274455.103 2
  21960690.284   -12848586.637 6  -9037484.960 1
 90 10 22 12 15 44.9990000  0  5 02 06 15 13 09
  20895132.472      666659.154 7    857368.655 3
  20082305.198   -10752645.092 6  -8325112.054 2
  23178735.831    -7517662.834 6      9457.501 1
  20826385.565   -19780213.631 7 -14307165.471 2
  21951490.792   -12896920.364 6  -9075147.595 1
 90 10 22 12 15 59.9990000  0  5 02 06 15 13 09
  20896982.120      676388.021 7    864949.585 3
  20079199.472   -10768970.301 6  -8337832.996 2
  23179106.558    -7515689.820 6     10994.903 1
  20818422.315   -19822063.421 7 -14339775.692 2
  21942298.714   -12945210.619 6  -9112776.356 1
 90 10 22 12 16 14.9990000  0  5 02 06 15 13 09
  20898841.120      686158.291 7    872562.786 3
  20076112.753   -10785191.682 6  -8350473.035 2
  23179512.901    -7513578.647 6     12639.963 1
  20810482.261   -19863789.699 7 -14372289.664 2
  21933115.612   -12993462.196 6  -9150374.986 1
 90 10 22 12 16 29.9990000  0  5 02 06 15 13 09
  20900708.183      695966.024 7    880205.172 3
  20073044.456   -10801313.082 6  -8363035.162 2
  23179935.589    -7511332.821 6     14389.964 1
  20802564.214   -19905396.627 7 -14404710.637 2
  21923943.894   -13041679.098 6  -9187946.584 1
 90 10 22 12 16 44.9990000  0  5 02 06 15 13 09
  20902581.870      705810.643 7    887876.306 3
  20069995.331   -10817334.901 6  -8375519.696 2
  23180394.753    -7508953.258 6     16244.157 1
  20794669.644   -19946884.123 7 -14437038.553 2
  21914773.878   -13089861.381 6  -9225491.231 1
 90 10 22 12 16 59.9980000  0  5 02 06 15 13 09
  20904461.092      715693.091 7    895576.912 3
  20066966.311   -10833254.249 6  -8387924.385 2
  23180870.350    -7506438.508 6     18203.699 1
  20786798.693   -19988247.678 7 -14469269.883 2
  21905608.115   -13138004.010 6  -9263004.962 1
 90 10 22 12 17 14.9980000  0  5 02 06 15 13 09
  20906348.061      725614.964 7    903308.236 3
  20063955.998   -10849072.489 6  -8400250.289 2
  23181369.881    -7503787.881 6     20269.119 1
  20778949.748   -20029492.341 7 -14501408.578 2
  21896457.053   -13186112.624 6  -9300492.187 1
 90 10 22 12 17 29.9980000  0  5 02 06 15 13 09
  20908247.162      735578.758 7    911072.225 3
  20060965.303   -10864785.212 6  -8412493.969 2
  23181910.334    -7500998.584 6     22442.588 1
  20771125.514   -20070612.124 7 -14533449.962 2
  21887309.725   -13234180.804 6  -9337947.905 1
 90 10 22 12 17 44.9980000  0  5 02 06 15 13 09
  20910148.787      745581.502 7    918866.563 3
  20057995.561   -10880395.050 6  -8424657.480 2
  23182458.451    -7498073.113 6     24722.175 1
  20763323.037   -20111609.608 7 -14565396.046 2
  21878170.850   -13282210.849 6  -9375373.908 1
 90 10 22 12 17 59.9980000  0  5 02 06 15 13 09
  20912058.990      755628.270 7    926695.214 3
  20055045.889   -10895896.706 6  -8436736.691 2
  23183047.451    -7495006.625 6     27111.643 1
  20755546.326   -20152479.547 7 -14597242.752 2
  21869034.545   -13330197.586 6  -9412766.160 1
 90 10 22 12 18 14.9980000  0  5 02 06 15 13 09
  20913979.795      765716.382 7    934556.078 3
  20052117.193   -10911292.444 6  -8448733.376 2
  23183650.279    -7491802.081 6     29608.674 1
  20747792.256   -20193224.234 7 -14628991.857 2
  21859912.443   -13378143.252 6  -9450126.416 1
 90 10 22 12 18 29.9980000  0  5 02 06 15 13 09
  20915909.904      775849.656 7    942452.132 3
  20049207.506   -10926578.528 6  -8460644.610 2
  23184295.506    -7488455.598 6     32216.323 1
  20740062.787   -20233839.984 7 -14660640.486 2
  21850800.404   -13426043.957 6  -9487451.634 1
 90 10 22 12 18 44.9980000  0  5 02 06 15 13 09
  20917843.936      786021.419 7    950378.182 3
  20046319.592   -10941761.314 6  -8472475.354 2
  23184950.318    -7484973.691 6     34929.485 1
  20732357.334   -20274333.469 7 -14692193.843 2
  21841691.232   -13473906.157 6  -9524746.856 1
 90 10 22 12 18 59.9980000  0  5 02 06 15 13 09
  20919787.279      796233.175 7    958335.387 3
  20043448.600   -10956839.103 6  -8484224.283 2
  23185643.467    -7481354.793 6     37749.412 1
  20724675.186   -20314702.821 7 -14723650.475 2
  21832593.912   -13521727.904 6  -9562010.546 1
 90 10 22 12 19 14.9980000  0  5 02 06 15 13 09
  20921738.889      806488.477 7    966326.531 3
  20040600.545   -10971807.887 6  -8495888.269 2
  23186357.397    -7477595.579 6     40678.654 1
  20717017.990   -20354944.215 7 -14755007.400 2
  21823500.232   -13569505.191 6  -9599239.593 1
 90 10 22 12 19 29.9980000  0  5 02 06 15 13 09
  20923699.006      816781.948 7    974347.416 3
  20037772.139   -10986672.723 6  -8507471.253 2
  23187101.420    -7473701.238 6     43713.201 1
  20709383.748   -20395062.898 7 -14786268.702 2
  21814416.186   -13617243.123 6  -9636437.972 1
 90 10 22 12 19 44.9980000  0  5 02 06 15 13 09
  20925666.857      827116.647 7    982400.423 3
  20034963.795   -11001430.572 6  -8518970.876 2
  23187862.850    -7469668.971 6     46855.228 1
  20701773.271   -20435055.772 7 -14817431.966 2
  21805338.654   -13664938.563 6  -9673603.248 1
 90 10 22 12 19 59.9980000  0  5 02 06 15 13 09
  20927638.381      837493.824 7    990486.536 3
  20032175.889   -11016079.942 6  -8530385.971 2
  23188659.061    -7465497.007 6     50106.101 1
  20694187.115   -20474921.199 7 -14848495.929 2
  21796271.115   -13712589.573 6  -9710733.896 1
 90 10 22 12 20 14.9980000  0  5 02 06 15 13 09
  20929620.920      847912.770 7    998605.190 3
  20029408.975   -11030621.006 6  -8541716.675 2
  23189483.834    -7461186.559 6     53464.893 1
  20686626.115   -20514659.670 7 -14879460.970 2
  21787213.248   -13760196.952 6  -9747830.553 1
 90 10 22 12 20 29.9980000  0  5 02 06 15 13 09
  20931611.264      858369.339 7   1006753.161 3
  20026661.920   -11045057.833 6  -8552966.154 2
  23190325.771    -7456741.784 6     56928.359 1
  20679086.537   -20554275.403 7 -14910330.367 2
  21778160.889   -13807764.527 6  -9784896.193 1
 90 10 22 12 20 44.9980000  0  5 02 06 15 13 09
  20933609.107      868867.034 7   1014933.183 3
  20023935.412   -11059386.677 6  -8564131.488 2
  23191194.279    -7452158.929 6     60499.415 1
  20671572.193   -20593764.412 7 -14941101.019 2
  21769120.107   -13855288.225 6  -9821927.630 1
 90 10 22 12 20 59.9980000  0  5 02 06 15 13 09
  20935615.170      879406.835 7   1023146.007 3
  20021228.975   -11073606.169 6  -8575211.616 2
  23192096.178    -7447437.493 6     64178.447 1
  20664082.967   -20633125.680 7 -14971772.125 2
  21760081.350   -13902766.836 6  -9858923.946 1
 90 10 22 12 21 14.9980000  0  5 02 06 15 13 09
  20937628.443      889986.334 7   1031389.769 3
  20018543.342   -11087718.663 6  -8586208.366 2
  23193023.029    -7442579.841 6     67963.620 1
  20656615.990   -20672361.386 7 -15002345.404 2
  21751054.365   -13950202.517 6  -9895886.809 1
 90 10 22 12 21 29.9980000  0  5 02 06 15 13 09
  20939649.068      900609.204 7   1039667.324 3
  20015878.701   -11101720.306 6  -8597118.739 2
  23193975.084    -7437582.442 6     71857.703 1
  20649174.256   -20711467.631 7 -15032817.793 2
  21742038.529   -13997591.248 6  -9932813.094 1
 90 10 22 12 21 44.9980000  0  5 02 06 15 13 09
  20941677.482      911268.303 7   1047973.110 3
  20013234.764   -11115617.844 6  -8607947.997 2
  23194945.334    -7432452.123 6     75855.329 1
  20641755.990   -20750451.688 7 -15063194.969 2
  21733025.686   -14044940.121 6  -9969708.312 1
 90 10 22 12 21 59.9980000  0  5 02 06 15 13 09
  20943714.295      921968.720 7   1056311.096 3
  20010610.428   -11129405.911 6  -8618691.940 2
  23195949.584    -7427183.969 6     79960.391 1
  20634361.154   -20789308.130 7 -15093472.708 2
  21724027.420   -14092243.303 6 -10006567.926 1
 90 10 22 12 22 14.9980000  0  5 02 06 15 13 09
  20945759.631      932707.581 7   1064679.032 3
  20008007.139   -11143087.231 6  -8629352.712 2
  23196980.545    -7421780.987 6     84170.501 1
  20626991.154   -20828039.405 7 -15123652.911 2
  21715030.725   -14139503.652 6 -10043394.178 1
 90 10 22 12 22 29.9980000  0  5 02 06 15 13 09
  20947807.475      943484.397 7   1073076.541 3
  20005423.998   -11156661.871 6  -8639930.363 2
  23198035.068    -7416243.544 6     88485.377 1
  20619644.068   -20866645.845 7 -15153735.849 2
  21706046.732   -14186721.192 6 -10080187.061 1
 90 10 22 12 22 44.9980000  0  5 02 06 15 13 09
  20949866.506      954301.990 7   1081505.836 3
  20002862.006   -11170126.856 6  -8650422.563 2
  23199114.451    -7410568.695 6     92907.341 1
  20612321.990   -20905124.839 7 -15183719.470 2
  21697071.146   -14233892.543 6 -10116943.959 1
 90 10 22 12 22 59.9980000  0  5 02 06 15 13 09
  20951934.170      965154.952 7   1089962.687 3
  20000319.482   -11183487.577 6  -8660833.508 2
  23200216.326    -7404762.240 6     97431.851 1
  20605023.272   -20943481.616 7 -15213607.858 2
  21688102.178   -14281023.402 6 -10153669.302 1
 90 10 22 12 23 14.9980000  0  5 02 06 15 13 09
  20954005.061      976046.803 7   1098449.843 3
  19997796.928   -11196740.257 6  -8671160.272 2
  23201346.006    -7398820.892 6    102061.473 1
  20597748.264   -20981712.320 7 -15243398.016 2
  21679141.982   -14328109.773 6 -10190359.971 1
 90 10 22 12 23 29.9980000  0  5 02 06 15 13 09
  20956086.514      986978.119 7   1106967.748 3
  19995296.287   -11209883.813 6  -8681402.006 2
  23202504.061    -7392743.863 6    106796.817 1
  20590497.311   -21019816.255 7 -15273089.385 2
  21670189.412   -14375150.636 6 -10227015.184 1
 90 10 22 12 23 44.9980000  0  5 02 06 15 13 09
  20958173.318      997952.270 7   1115519.031 3
  19992816.779   -11222914.839 6  -8691556.053 2
  23203691.795    -7386527.852 6    111640.444 1
  20583270.553   -21057790.052 7 -15302679.348 2
  21661247.686   -14422142.311 6 -10263632.065 1
 90 10 22 12 23 59.9980000  0  5 02 06 15 13 09
  20960269.826     1008969.642 7   1124103.994 3
  19990358.748   -11235832.905 6  -8701622.078 2
  23204893.818    -7380172.384 6    116592.768 1
  20576069.811   -21095633.012 7 -15332167.360 2
  21652315.889   -14469084.386 6 -10300210.310 1
 90 10 22 12 24 14.9980000  0  5 02 06 15 13 09
  20962373.459     1020029.269 7   1132721.883 3
  19987920.795   -11248638.296 6  -8711600.302 2
  23206134.717    -7373678.418 6    121652.984 1
  20568893.264   -21133345.833 7 -15361553.963 2
  21643390.506   -14515977.039 6 -10336750.043 1
 90 10 22 12 24 29.9980000  0  5 02 06 15 13 09
  20964484.646     1031128.598 7   1141370.710 3
  19985505.834   -11261333.566 7  -8721492.722 2
  23207394.709    -7367048.840 6    126818.881 1
  20561741.256   -21170931.100 7 -15390841.176 2
  21634476.272   -14562822.720 6 -10373253.173 1
 90 10 22 12 24 44.9980000  0  5 02 06 15 13 09
  20966606.350     1042266.524 7   1150049.612 3
  19983110.568   -11273919.479 6  -8731299.929 2
  23208676.498    -7360284.649 6    132089.677 1
  20554612.693   -21208389.687 7 -15420029.681 2
  21625572.514   -14609622.298 6 -10409720.375 1
 90 10 22 12 24 59.9980000  0  5 02 06 15 13 09
  20968734.506     1053446.060 7   1158760.937 3
  19980737.561   -11286392.822 7  -8741019.424 2
  23209995.381    -7353382.945 6    137467.616 1
  20547508.537   -21245718.464 7 -15449117.032 2
  21616675.342   -14656372.184 6 -10446148.852 1
 90 10 22 12 25 14.9980000  0  5 02 06 15 13 09
  20970867.193     1064664.011 7   1167502.190 3
  19978385.225   -11298756.808 7  -8750653.699 2
  23211338.232    -7346347.094 6    142950.103 1
  20540429.842   -21282920.468 7 -15478105.593 2
  21607786.436   -14703075.757 6 -10482541.245 1
 90 10 22 12 25 29.9980000  0  5 02 06 15 13 09
  20973012.014     1075925.245 7   1176277.176 3
  19976053.334   -11311006.108 7  -8760198.612 2
  23212694.053    -7339172.309 6    148540.828 1
  20533375.748   -21319990.764 7 -15506991.533 2
  21598909.389   -14749727.514 6 -10518893.267 1
 90 10 22 12 25 44.9980000  0  5 02 06 15 13 09
  20975162.342     1087227.465 7   1185084.101 3
  19973744.232   -11323142.860 7  -8769655.827 2
  23214089.771    -7331860.742 6    154238.138 1
  20526346.826   -21356931.404 7 -15535776.437 2
  21590043.092   -14796329.385 6 -10555206.408 1
 90 10 22 12 25 59.9980000  0  5 02 06 15 13 09
  20977321.936     1098571.857 7   1193923.887 3
  19971456.795   -11335165.645 7  -8779024.229 2
  23215507.420    -7324411.410 6    160042.809 1
  20519341.904   -21393740.979 7 -15564459.219 2
  21581184.053   -14842880.128 6 -10591479.705 1
 90 10 22 12 26 14.9980000  0  5 02 06 15 13 09
  20979485.787     1109957.754 7   1202796.017 3
  19969189.607   -11347074.828 7  -8788304.119 2
  23216953.389    -7316824.912 6    165954.351 1
  20512362.232   -21430420.074 7 -15593040.322 2
  21572335.240   -14889379.861 6 -10627713.257 1
 90 10 22 12 26 29.9980000  0  5 02 06 15 13 09
  20981660.123     1121384.431 7   1211699.915 3
  19966943.357   -11358871.086 6  -8797496.010 2
  23218422.154    -7309102.118 6    171972.104 1
  20505406.795   -21466969.619 7 -15621520.483 2
  21563495.717   -14935829.146 6 -10663907.502 1
 90 10 22 12 26 44.9980000  0  5 02 06 15 13 09
  20983846.561     1132855.275 7   1220638.231 3
  19964721.967   -11370550.738 6  -8806597.036 2
  23219918.623    -7301239.971 6    178098.419 1
  20498476.311   -21503385.893 7 -15649896.794 2
  21554667.904   -14982224.374 6 -10700059.623 1
 90 10 22 12 26 59.9980000  0  5 02 06 15 13 09
  20986034.131     1144365.463 7   1229607.204 3
  19962521.248   -11382118.475 7  -8815610.858 2
  23221438.678    -7293243.112 6    184329.746 1
  20491570.998   -21539673.199 7 -15678172.613 2
  21545849.389   -15028569.904 6 -10736173.019 1
 90 10 22 12 27 14.9980000  0  5 02 06 15 13 09
  20988232.584     1155915.017 7   1238606.855 3
  19960341.365   -11393573.757 7  -8824537.056 2
  23222978.623    -7285111.565 6    190666.014 1
  20484690.600   -21575831.459 7 -15706347.873 2
  21537041.537   -15074865.381 6 -10772247.410 1
 90 10 22 12 27 29.9980000  0  5 02 06 15 13 09
  20990438.897     1167507.007 7   1247639.568 3
  19958183.217   -11404913.185 7  -8833372.976 3
  23224557.842    -7276842.389 6    197109.515 1
  20477834.881   -21611857.540 7 -15734420.137 2
  21528239.209   -15121107.148 6 -10808279.960 1
 90 10 22 12 27 44.9980000  0  5 02 06 15 13 09
  20992653.303     1179138.976 7   1256703.435 3
  19956046.459   -11416139.317 7  -8842120.613 2
  23226160.717    -7268438.335 6    203658.117 1
  20471003.646   -21647753.901 7 -15762391.322 2
  21519448.553   -15167297.750 6 -10844272.639 1
 90 10 22 12 27 59.9980000  0  5 02 06 15 13 09
  20994872.959     1190808.699 7   1265796.720 3
  19953932.115   -11427254.326 7  -8850781.665 3
  23227787.240    -7259901.486 6    210310.214 1
  20464197.334   -21683522.668 7 -15790263.084 2
  21510669.514   -15213439.017 6 -10880226.867 1
 90 10 22 12 28 14.9980000  0  5 02 06 15 13 09
  20997101.701     1202521.756 7   1274923.769 3
  19951839.482   -11438252.139 7  -8859351.393 3
  23229432.647    -7251226.388 6    217070.022 1
  20457415.990   -21719158.108 7 -15818030.949 2
  21501900.568   -15259524.946 6 -10916137.975 1
 90 10 22 12 28 29.9980000  0  5 02 06 15 13 09
  20999341.186     1214275.804 7   1284082.762 3
  19949768.670   -11449134.916 7  -8867831.481 2
  23231112.803    -7242415.258 6    223935.826 1
  20450659.271   -21754662.298 7 -15845696.547 2
  21493136.701   -15305557.823 6 -10952007.748 1
 90 10 22 12 28 44.9980000  0  5 02 06 15 13 09
  21001584.787     1226069.909 7   1293272.968 3
  19947719.928   -11459903.331 7  -8876222.455 2
  23232813.857    -7233469.147 6    230906.805 1
  20443928.357   -21790036.199 7 -15873260.620 2
  21484389.693   -15351537.853 6 -10987836.346 1
 90 10 22 12 28 59.9980000  0  5 02 06 15 13 09
  21003835.857     1237906.569 7   1302496.332 3
  19945691.881   -11470554.742 7  -8884522.258 2
  23234539.959    -7224385.602 6    237984.893 1
  20437223.272   -21825277.101 7 -15900721.062 2
  21475651.186   -15397462.378 6 -11023621.676 1
 90 10 22 12 29 14.9980000  0  5 02 06 15 13 09
  21006094.318     1249784.872 7   1311752.147 3
  19943687.506   -11481089.887 7  -8892731.464 2
  23236297.053    -7215165.912 5    245169.058 1
  20430541.381   -21860385.913 7 -15928078.573 2
  21466922.100   -15443332.272 6 -11059364.452 1
 90 10 22 12 29 29.9980000  0  5 02 06 15 13 09
  21008364.451     1261704.579 7   1321040.225 3
  19941704.607   -11491508.704 7  -8900850.029 2
  23238071.514    -7205810.571 5    252458.925 1
  20423885.084   -21895362.715 7 -15955333.217 2
  21458204.373   -15489147.159 6 -11095064.355 1
 90 10 22 12 29 44.9980000  0  5 02 06 15 13 09
  21010640.818     1273667.970 7   1330362.346 3
  19939744.670   -11501808.929 7  -8908876.183 2
  23239885.365    -7196317.322 6    259856.250 1
  20417254.732   -21930205.212 7 -15982483.207 2
  21449497.100   -15534904.644 6 -11130719.538 1
 90 10 22 12 29 59.9980000  0  5 02 06 15 13 09
  21012924.850     1285672.051 7   1339716.175 3
  19937806.396   -11511993.146 7  -8916811.940 2
  23241711.232    -7186688.928 5    267358.895 1
  20410649.615   -21964916.207 7 -16009530.735 2
  21440799.303   -15580607.432 6 -11166332.100 1
 90 10 22 12 30 14.9980000  0  5 02 06 15 13 09
  21015216.217     1297720.049 7   1349104.224 3
  19935891.576   -11522058.041 7  -8924654.717 3
  23243564.412    -7176922.578 5    274969.029 1
  20404070.428   -21999492.408 7 -16036473.220 2
  21432113.514   -15626251.971 6 -11201899.269 1
 90 10 22 12 30 29.9980000  0  5 02 06 15 13 09
  21017518.850     1309812.152 7   1358526.639 3
  19934000.029   -11532003.104 7  -8932404.122 3
  23245467.326    -7167018.077 6    282686.808 1
  20397516.787   -22033933.592 7 -16063310.500 2
  21423439.381   -15671837.631 6 -11237420.563 1
 90 10 22 12 30 44.9980000  0  5 02 06 15 13 09
  21019826.873     1321945.293 7   1367981.033 3
  19932128.256   -11541831.333 7  -8940062.486 3
  23247371.826    -7156978.470 6    290509.872 1
  20390988.146   -22068242.495 7 -16090044.703 2
  21414775.631   -15717367.137 6 -11272898.101 1
 90 10 22 12 30 59.9980000  0  5 02 06 15 13 09
  21022144.021     1334116.671 7   1377465.214 3
  19930280.092   -11551545.313 7  -8947631.823 2
  23249297.725    -7146806.962 5    298435.710 1
  20384483.209   -22102421.704 7 -16116677.846 2
  21406122.873   -15762843.073 6 -11308333.896 1
 90 10 22 12 31 14.9980000  0  5 02 06 15 13 09
  21024467.240     1346328.181 7   1386980.672 3
  19928454.217   -11561142.770 7  -8955110.361 2
  23251265.662    -7136501.737 6    306465.738 1
  20378004.561   -22136469.451 7 -16143208.546 2
  21397478.850   -15808263.092 6 -11343726.110 1
 90 10 22 12 31 29.9980000  0  5 02 06 15 13 09
  21026796.904     1358579.793 7   1396527.385 3
  19926650.365   -11570623.590 7  -8962498.013 2
  23253247.037    -7126062.767 5    314599.987 1
  20371550.295   -22170385.565 7 -16169636.679 2
  21388847.279   -15853627.152 6 -11379074.722 1
 90 10 22 12 31 44.9980000  0  5 02 06 15 13 09
  21029137.381     1370873.001 7   1406106.501 3
  19924868.326   -11579986.152 7  -8969793.517 2
  23255270.201    -7115488.273 6    322839.842 1
  20365122.139   -22204168.579 7 -16195961.100 2
  21380224.959   -15898933.260 6 -11414378.175 1
 90 10 22 12 31 59.9980000  0  5 02 06 15 13 09
  21031484.951     1383208.793 7   1415718.803 3
  19923109.006   -11589229.162 7  -8976995.868 2
  23257307.850    -7104777.784 6    331185.668 1
  20358719.686   -22237817.210 7 -16222180.803 2
  21371613.256   -15944180.122 6 -11449635.474 1
 90 10 22 12 32 14.9980000  0  5 02 06 15 13 09
  21033842.131     1395583.899 7   1425361.739 3
  19921372.982   -11598355.974 7  -8984107.677 2
  23259369.654    -7093934.862 6    339634.691 1
  20352341.100   -22271334.785 7 -16248298.384 2
  21363015.826   -15989370.891 6 -11484849.056 1
 90 10 22 12 32 29.9980000  0  5 02 06 15 13 09
  21036203.662     1407999.601 7   1435036.304 3
  19919659.014   -11607364.950 7  -8991127.666 2
  23261463.107    -7082958.226 6    348187.886 1
  20345988.428   -22304719.934 7 -16274312.777 2
  21354425.326   -16034503.824 6 -11520017.572 1
 90 10 22 12 32 44.9980000  0  5 02 06 15 13 09
  21038575.389     1420454.414 7   1444741.360 3
  19917965.490   -11616257.308 7  -8998056.774 3
  23263565.037    -7071849.281 5    356844.201 1
  20339659.303   -22337973.952 7 -16300224.997 2
  21345845.529   -16079580.068 6 -11555141.913 1
 90 10 22 12 32 59.9980000  0  5 02 06 15 13 09
  21040951.482     1432949.625 7   1454477.884 3
  19916296.389   -11625031.612 7  -9004893.888 2
  23265702.865    -7060606.916 5    365604.474 1
  20333356.381   -22371095.303 7 -16326033.841 2
  21337280.725   -16124598.058 6 -11590220.861 2
 90 10 22 12 33 14.9980000  0  5 02 06 15 13 09
  21043334.725     1445484.212 7   1464245.090 3
  19914649.451   -11633688.585 7  -9011639.584 3
  23267865.584    -7049232.452 5    374467.700 1
  20327079.053   -22404085.173 7 -16351740.230 2
  21328725.850   -16169558.438 6 -11625254.915 1
 90 10 22 12 33 29.9980000  0  5 02 06 15 13 09
  21045728.842     1458062.107 7   1474046.044 3
  19913025.732   -11642224.107 7  -9018290.645 2
  23270056.600    -7037721.704 5    383437.100 1
  20320825.967   -22436939.432 7 -16377340.945 2
  21320182.467   -16214456.655 6 -11660240.532 1
 90 10 22 12 33 44.9980000  0  5 02 06 15 13 09
  21048131.615     1470679.517 7   1483877.791 3
  19911423.279   -11650641.832 7  -9024849.911 3
  23272282.607    -7026078.814 6    392509.464 1
  20314599.857   -22469661.769 7 -16402838.864 2
  21311649.326   -16259296.762 6 -11695180.869 1
 90 10 22 12 33 59.9980000  0  5 02 06 15 13 09
  21050538.920     1483340.761 7   1493743.686 3
  19909844.889   -11658937.107 7  -9031313.769 3
  23274521.748    -7014299.522 5    401688.117 1
  20308398.225   -22502247.750 7 -16428230.534 2
  21303129.475   -16304073.706 6 -11730071.996 1
 90 10 22 12 34 14.9980000  0  5 02 06 15 13 09
  21052960.209     1496048.849 7   1503646.090 3
  19908289.686   -11667106.836 7  -9037679.793 3
  23276793.186    -7002380.851 6    410975.366 1
  20302224.397   -22534694.339 7 -16453513.584 2
  21294617.881   -16348784.262 6 -11764911.384 1
 90 10 22 12 34 29.9980000  0  5 02 06 15 13 09
  21055385.022     1508798.391 7   1513580.791 3
  19906758.084   -11675156.507 7  -9043952.272 2
  23279085.264    -6990328.800 5    420366.579 1
  20296075.592   -22567007.002 7 -16478692.274 2
  21286123.115   -16393433.754 6 -11799703.192 1
 90 10 22 12 34 44.9980000  0  5 02 06 15 13 09
  21057817.920     1521588.112 7   1523546.806 3
  19905248.740   -11683087.082 7  -9050131.943 3
  23281400.404    -6978144.341 5    429860.939 1
  20289952.123   -22599186.816 7 -16503767.446 2
  21277638.147   -16438022.906 6 -11834447.979 1
 90 10 22 12 34 59.9980000  0  5 02 06 15 13 09
  21060259.725     1534416.842 7   1533543.214 3
  19903761.928   -11690899.254 7  -9056219.355 3
  23283744.912    -6965829.093 5    439457.209 1
  20283854.428   -22631234.619 7 -16528739.751 2
  21269165.537   -16482552.462 6 -11869146.329 2
 90 10 22 12 35 14.9980000  0  5 02 06 15 13 09
  21062709.545     1547285.598 7   1543570.817 3
  19902297.498   -11698592.181 7  -9062213.858 2
  23286121.248    -6953382.016 5    449156.211 1
  20277780.420   -22663149.486 7 -16553608.466 2
  21260702.646   -16527021.514 6 -11903797.535 1
 90 10 22 12 35 29.9980000  0  5 02 06 15 13 09
  21065165.021     1560196.840 7   1553631.521 3
  19900858.420   -11706162.986 7  -9068113.184 2
  23288512.365    -6940800.743 5    458959.781 1
  20271733.350   -22694928.880 7 -16578371.628 2
  21252251.107   -16571427.036 6 -11938399.231 2
 90 10 22 12 35 44.9980000  0  5 02 06 15 13 09
  21067631.357     1573149.673 7   1563724.627 3
  19899440.170   -11713612.495 7  -9073918.000 2
  23290924.959    -6928086.351 5    468867.099 1
  20265711.326   -22726573.811 7 -16603030.002 2
  21243816.475   -16615769.406 6 -11972951.723 2
 90 10 22 12 35 59.9980000  0  5 02 06 15 13 09
  21070103.084     1586145.177 7   1573850.986 3
  19898045.803   -11720939.565 7  -9079627.405 2
  23293377.248    -6915237.827 6    478878.929 1
  20259715.201   -22758082.880 7 -16627582.521 2
  21235389.123   -16660047.623 6 -12007454.221 2
 90 10 22 12 36 14.9980000  0  5 02 06 15 13 09
  21072586.068     1599184.002 7
  19896674.654   -11728143.214 7  -9085240.651 2
  23295848.451    -6902254.898 6
  20253745.287   -22789455.577 7 -16652028.778 2
  21226974.623   -16704260.514 6 -12041905.817 2
 90 10 22 12 36 29.9980000  0  5 02 06 15 13 09
  21075073.787     1612265.253 7
  19895326.951   -11735224.189 7  -9090758.303 2
  23298331.021    -6889138.401 5
  20247801.545   -22820692.661 7 -16676369.361 2
  21218573.951   -16748408.628 6 -12076306.942 2
 90 10 22 12 36 44.9980000  0  5 02 06 15 13 09
  21077572.022     1625389.701 7   1604431.119 3
  19894003.420   -11742181.221 7  -9096179.373 2
  23300861.217    -6875887.352 5    509541.604 1
  20241882.482   -22851793.161 7 -16700603.511 2
  21210186.459   -16792490.714 6 -12110656.611 2
 90 10 22 12 36 59.9980000  0  5 02 06 15 13 09
  21080074.850     1638550.654 7   1614686.397 3
  19892701.748   -11749021.008 7  -9101509.082 2
  23303398.498    -6862508.905 5    519966.370 1
  20235989.686   -22882763.583 7 -16724736.304 2
  21201807.686   -16836513.269 6 -12144959.907 2
 90 10 22 12 37 14.9980000  0  5 02 06 15 13 09
  21082588.764     1651749.695 7   1624971.360 3
  19891422.771   -11755741.822 7  -9106746.085 2
  23305977.225    -6849001.462 6    530491.641 1
  20230121.436   -22913602.261 7 -16748766.436 2
  21193443.498   -16880474.319 6 -12179215.267 2
 90 10 22 12 37 29.9980000  0  5 02 06 15 13 09
  21085107.436     1664992.973 7   1635290.793 3
  19890167.467   -11762337.243 7  -9111885.378 2
  23308575.623    -6835359.130 6    541122.039 1
  20224278.959   -22944303.283 7 -16772689.304 2
  21185091.998   -16924367.454 6 -12213417.703 2
 90 10 22 12 37 44.9980000  0  5 02 06 15 13 09
  21087637.897     1678278.335 7   1645643.015 3
  19888936.904   -11768809.383 7  -9116928.612 2
  23311195.490    -6821584.504 6    551855.504 1
  20218462.467   -22974868.553 7 -16796506.389 2
  21176749.482   -16968194.623 6 -12247568.743 2
 90 10 22 12 37 59.9980000  0  5 02 06 15 13 09
  21090170.225     1691606.194 7   1656028.359 2
  19887728.381   -11775157.717 7  -9121875.368 2
  23313833.873    -6807676.919 5    562692.556 1
  20212672.756   -23005297.862 7 -16820217.532 2
  21168422.678   -17011954.971 6 -12281667.711 2
 90 10 22 12 38 14.9980000  0  5 02 06 15 13 09
  21092716.920     1704980.076 7   1666449.563 3
  19886544.740   -11781378.724 7  -9126722.907 2
  23316515.670    -6793633.519 6    573635.462 1
  20206907.772   -23035587.381 7 -16843819.745 2
  21160108.818   -17055644.814 6 -12315711.744 2
 90 10 22 12 38 29.9980000  0  5 02 06 15 13 09
  21095269.146     1718394.916 7   1676902.682 3
  19885383.334   -11787477.247 7  -9131475.005 2
  23319207.678    -6779459.280 6    584680.309 1
  20201169.225   -23065742.237 7 -16867317.031 2
  21151807.420   -17099268.973 6 -12349704.588 2
 90 10 22 12 38 44.9980000  0  5 02 06 15 13 09
  21097832.568     1731851.991 7   1687388.708 3
  19884247.115   -11793451.533 7  -9136130.293 3
  23321935.592    -6765152.711 6    595828.266 1
  20195456.029   -23095761.006 7 -16890708.273 2
  21143517.803   -17142825.571 6 -12383644.794 2
 90 10 22 12 38 59.9980000  0  5 02 06 15 13 09
  21100399.920     1745353.473 7   1697909.336 3
  19883133.717   -11799299.332 7  -9140687.018 3
  23324679.131    -6750712.329 5    607080.504 1
  20189770.717   -23125641.479 7 -16913991.758 2
  21135243.311   -17186312.249 6 -12417530.510 2
 90 10 22 12 39 14.9980000  0  5 02 06 15 13 09
  21102976.553     1758895.647 7   1708461.678 2
  19882044.701   -11805024.314 7  -9145148.042 3
  23327444.201    -6736141.711 5    618434.201 1
  20184111.037   -23155387.344 7 -16937170.347 2
  21126981.623   -17229732.323 6 -12451364.330 2
 90 10 22 12 39 29.9980000  0  5 02 06 15 13 09
  21105563.240     1772482.418 7   1719048.764 2
  19880979.568   -11810622.446 7  -9149510.228 3
  23330253.811    -6721437.075 6    629892.344 1
  20178476.748   -23184994.590 7 -16960240.927 2
  21118732.397   -17273081.625 6 -12485143.003 2
 90 10 22 12 39 44.9980000  0  5 02 06 15 13 09
  21108153.272     1786108.415 7   1729666.419 2
  19879938.396   -11816098.691 7  -9153777.437 2
  23333074.912    -6706603.990 6    641450.596 1
  20172868.201   -23214468.664 7 -16983207.732 2
  21110494.607   -17316365.359 6 -12518870.587 2
 90 10 22 12 39 59.9980000  0  5 02 06 15 13 09
  21110756.232     1799778.407 7   1740318.353 2
  19878919.240   -11821448.409 7  -9157946.054 2
  23335915.217    -6691637.924 5    653112.444 1
  20167286.076   -23243804.654 7 -17006066.939 2
  21102271.740   -17359578.265 6 -12552542.985 2
 90 10 22 12 40 14.9980000  0  5 02 06 15 13 09
  21113365.975     1813489.796 7   1751002.545 2
  19877924.826   -11826673.900 7  -9162017.867 2
  23338796.154    -6676541.925 5    664875.533 1
  20161729.209   -23273005.291 7 -17028820.674 2
  21094062.537   -17402722.592 6 -12586161.943 2
 90 10 22 12 40 29.9980000  0  5 02 06 15 13 09
  21115983.920     1827241.888 7   1761718.458 2
  19876953.928   -11831775.719 7  -9165993.315 3
  23341688.365    -6661316.405 5    676739.563 1
  20156198.357   -23302071.050 7 -17051469.303 2
  21085865.514   -17445798.922 6 -12619727.918 2
 90 10 22 12 40 44.9980000  0  5 02 06 15 13 09
  21118607.904     1841036.060 7   1772467.165 2
  19876007.584   -11836752.378 7  -9169871.234 2
  23344614.990    -6645960.145 6    688705.456 1
  20150693.451   -23331000.305 7 -17074011.574 2
  21077681.303   -17488805.217 6 -12653239.313 2
 90 10 22 12 40 59.9980000  0  5 02 06 15 13 09
  21121239.951     1854876.191 7   1783251.673 2
  19875085.334   -11841599.594 7  -9173648.292 2
  23347560.061    -6630469.384 5    700776.176 1
  20145214.576   -23359789.258 7 -17096444.515 2
  21069512.178   -17531737.295 6 -12686692.872 2
 90 10 22 12 41 14.9980000  0  5 02 06 15 13 09
  21123882.826     1868762.326 7   1794072.030 2
  19874186.896   -11846317.467 7  -9177324.560 2
  23350542.732    -6614844.671 6    712951.241 1
  20139762.811   -23388437.954 7 -17118768.173 2
  21061356.428   -17574595.207 6 -12720088.649 2
 90 10 22 12 41 29.9980000  0  5 02 06 15 13 09
  21126532.076     1882683.172 7   1804919.438 2
  19873311.232   -11850916.925 7  -9180908.558 2
  23353536.186    -6599097.089 6    725222.093 1
  20134335.631   -23416957.438 7 -17140991.138 2
  21053213.272   -17617389.645 7 -12753434.960 2
 90 10 22 12 41 44.9980000  0  5 02 06 15 13 09
  21129187.795     1896643.776 7   1815797.822 2
  19872459.436   -11855392.749 7  -9184396.214 3
  23356551.779    -6583221.933 6    737592.341 1
  20128934.256   -23445342.846 7 -17163109.633 2
  21045082.662   -17660115.216 7 -12786727.612 2
 90 10 22 12 41 59.9980000  0  5 02 06 15 13 09
  21131853.748     1910647.924 7   1826710.141 2
  19871632.897   -11859741.060 7  -9187784.510 3
  23359596.850    -6567215.492 6    750064.869 1
  20123558.943   -23473590.248 7 -17185120.591 2
  21036965.928   -17702767.725 7 -12819963.337 2
 90 10 22 12 42 14.9980000  0  5 02 06 15 13 09
  21134526.256     1924691.218 7   1837652.966 2
  19870828.943   -11863966.177 7  -9191076.810 3
  23362666.842    -6551082.474 5    762636.055 1
  20118209.209   -23501704.045 7 -17207027.441 2
  21028862.646   -17745351.297 7 -12853145.339 2
 90 10 22 12 42 29.9980000  0  5 02 06 15 13 09
  21137205.764     1938774.419 7   1848626.883 2
  19870046.803   -11868067.150 7  -9194272.377 2
  23365760.545    -6534822.483 6    775306.164 1
  20112885.225   -23529683.409 7 -17228829.542 2
  21020771.107   -17787865.131 6 -12886273.002 2
 90 10 22 12 42 44.9980000  0  5 02 06 15 13 09
  21139894.381     1952900.758 7   1859634.416 2
  19869292.240   -11872040.684 7  -9197368.642 2
  23368879.975    -6518431.904 5    788078.035 1
  20107586.662   -23557525.109 7 -17250524.363 2
  21012696.881   -17830305.472 7 -12919343.392 2
 90 10 22 12 42 59.9980000  0  5 02 06 15 13 09
  21142590.959     1967072.047 7   1870676.969 2
  19868560.756   -11875884.694 7  -9200363.976 2
  23372024.154    -6501909.379 6    800952.702 1
  20102315.529   -23585227.360 7 -17272110.526 2
  21004635.107   -17872670.144 7 -12952354.825 2
 90 10 22 12 43 14.9980000  0  5 02 06 15 13 09
  21145297.232     1981286.679 7   1881753.300 2
  19867853.725   -11879600.712 7  -9203259.580 2
  23375193.842    -6485256.722 5    813928.803 1
  20097069.334   -23612791.689 7 -17293589.214 2
  20996587.662   -17914960.478 6 -12985308.331 2
 90 10 22 12 43 29.9980000  0  5 02 06 15 13 09
  21148010.006     1995547.878 7   1892865.921 2
  19867171.154   -11883185.371 7  -9206052.824 2
  23378380.623    -6468470.944 5    827008.620 1
  20091851.740   -23640214.964 7 -17314957.997 2
  20988555.022   -17957173.030 6 -13018201.222 2
 90 10 22 12 43 44.9980000  0  5 02 06 15 13 09
  21150730.217     2009850.116 7   1904010.522 2
  19866513.576   -11886644.194 7  -9208748.013 2
  23381608.912    -6451558.101 6    840187.414 1
  20086658.162   -23667502.785 7 -17336221.228 2
  20980534.217   -17999313.076 6 -13051037.614 2
 90 10 22 12 43 59.9980000  0  5 02 06 15 13 09
  21153461.092     2024193.727 7   1915187.356 2
  19865878.295   -11889976.619 7  -9211344.718 2
  23384849.896    -6434517.495 6    853465.777 1
  20081491.115   -23694654.777 7 -17357378.619 2
  20972530.912   -18041379.833 6 -13083816.900 2
 90 10 22 12 44 14.9980000  0  5 02 06 15 13 09
  21156198.623     2038579.123 7   1926396.748 2
  19865268.662   -11893181.971 7  -9213842.400 2
  23388115.857    -6417348.898 6    866843.909 1
  20076349.506   -23721670.243 7 -17378429.621 2
  20964539.240   -18083372.516 6 -13116538.471 2
 90 10 22 12 44 29.9980000  0  5 02 06 15 13 09
  21158944.256     2053007.882 7   1937639.933 2
  19864682.686   -11896258.440 7  -9216239.648 2
  23391410.240    -6400051.255 6    880322.573 1
  20071236.490   -23748547.486 7 -17399372.923 2
  20956563.561   -18125289.046 7 -13149200.697 2
 90 10 22 12 44 44.9980000  0  5 02 06 15 13 09
  21161698.201     2067481.251 7   1948917.884 2
  19864124.084   -11899204.939 7  -9218535.626 3
  23394725.646    -6382623.384 6    893902.729 1
  20066147.771   -23775285.549 7 -17420207.773 2
  20948602.107   -18167128.152 7 -13181802.595 2
 90 10 22 12 44 59.9980000  0  5 02 06 15 13 09
  21164462.881     2081999.025 7   1960230.430 2
  19863588.318   -11902021.404 7  -9220730.277 3
  23398070.006    -6365065.701 6    907584.006 1
  20061086.271   -23801884.440 7 -17440934.181 2
  20940653.397   -18208889.605 6 -13214343.980 2
 90 10 22 12 45 14.9980000  0  5 02 06 15 13 09
  21167232.365     2096559.502 7   1971576.249 2
  19863075.771   -11904709.176 7  -9222824.642 3
  23401433.717    -6347379.757 6    921365.260 1
  20056050.412   -23828345.725 7 -17461553.356 2
  20932721.045   -18250574.585 6 -13246825.779 2
 90 10 22 12 45 29.9980000  0  5 02 06 15 13 09
  21170008.639     2111163.285 7   1982955.809 2
  19862588.436   -11907267.841 7  -9224818.407 3
  23404821.654    -6329565.730 5    935246.307 1
  20051041.412   -23854669.029 7 -17482065.014 2
  20924804.217   -18292182.650 6 -13279247.646 2
 90 10 22 12 45 44.9980000  0  5 02 06 15 13 09
  21172798.498     2125808.619 7   1994367.755 2
  19862126.326   -11909699.001 7  -9226712.815 3
  23408231.662    -6311625.203 5    949225.928 1
  20046058.834   -23880856.114 7 -17502470.524 2
  20916898.693   -18333715.033 6 -13311610.539 2
 90 10 22 12 45 59.9980000  0  5 02 06 15 13 09
  21175594.537     2140499.958 7   2005815.540 2
  19861688.279   -11911997.892 7  -9228504.161 3
  23411676.295    -6293554.248 5    963307.156 1
  20041101.662   -23906902.593 7 -17522766.480 2
  20909013.232   -18375166.750 7 -13343910.578 2
 90 10 22 12 46 14.9980000  0  5 02 06 15 13 09
  21178396.381     2155240.426 7   2017301.617 2
  19861277.787   -11914161.493 7  -9230190.089 2
  23415137.326    -6275349.646 5    977492.551 1
  20036173.350   -23932805.198 7 -17542950.322 2
  20901140.443   -18416534.597 6 -13376145.261 2
 90 10 22 12 46 29.9980000  0  5 02 06 15 13 09
  21181208.912     2170021.642 7   2028819.440 2
  19860890.209   -11916197.928 7  -9231776.924 2
  23418622.584    -6257020.104 5    991775.301 1
  20031269.170   -23958572.378 7 -17563028.635 2
  20893283.029   -18457826.629 7 -13408320.874 2
 90 10 22 12 46 44.9980000  0  5 02 06 15 13 09
  21184032.139     2184846.907 7   2040371.589 2
  19860527.920   -11918103.786 7  -9233262.009 2
  23422143.115    -6238562.339 6   1006157.941 1
  20026393.443   -23984200.763 7 -17582998.801 2
  20885440.350   -18499039.126 6 -13440434.504 2
 90 10 22 12 46 59.9980000  0  5 02 06 15 13 09
  21186861.889     2199714.729 7   2051956.898 2
  19860188.522   -11919880.332 7  -9234646.334 3
  23425674.623    -6219978.351 5   1020638.966 1
  20021541.342   -24009691.601 7 -17602861.788 2
  20877611.975   -18540173.165 7 -13472487.007 2
 90 10 22 12 47 14.9980000  0  5 02 06 15 13 09
  21189696.404     2214617.465 7   2063569.411 2
  19859873.764   -11921535.056 7  -9235935.735 2
  23429228.553    -6201275.480 5   1035212.636 1
  20016715.865   -24035052.781 7 -17622623.743 2
  20869798.771   -18581236.222 7 -13504484.200 2
 90 10 22 12 47 29.9980000  0  5 02 06 15 13 09
  21192542.365     2229563.418 7   2075215.604 2
  19859582.756   -11923059.719 7  -9237123.786 2
  23432815.529    -6182446.128 5   1049884.814 1
  20011915.514   -24060276.019 7 -17642278.210 2
  20862001.443   -18622219.465 7 -13536419.196 2
 90 10 22 12 47 44.9980000  0  5 02 06 15 13 09
  21195392.959     2244554.942 7   2086897.306 2
  19859318.998   -11924451.804 7  -9238208.530 3
  23436425.787    -6163488.209 5   1064657.193 1
  20007143.248   -24085359.047 7 -17661823.426 2
  20854217.146   -18663120.462 6 -13568290.104 2
 90 10 22 12 47 59.9980000  0  5 02 06 15 13 09
  21198254.811     2259589.642 7   2098612.647 2
  19859078.865   -11925713.510 7  -9239191.680 2
  23440053.029    -6144403.845 5   1079528.127 1
  20002396.451   -24110304.106 7 -17681261.127 2
  20846448.178   -18703941.265 6 -13600098.517 2
 90 10 22 12 48 14.9980000  0  5 02 06 15 13 09
  21201124.998     2274671.159 7   2110364.472 2
  19858864.373   -11926841.131 7  -9240070.351 2
  23443715.357    -6125189.396 5   1094500.374 1
  19997675.850   -24135107.523 7 -17700588.457 2
  20838695.732   -18744677.644 6 -13631841.152 2
 90 10 22 12 48 29.9980000  0  5 02 06 15 13 09
  21204005.053     2289797.857 7   2122151.500 2
  19858674.842   -11927836.099 7  -9240845.653 3
  23447390.701    -6105847.349 5   1109572.082 1
  19992982.928   -24159771.118 7 -17719806.836 2
  20830960.803   -18785331.306 7 -13663519.326 2
 90 10 22 12 48 44.9980000  0  5 02 06 15 13 09
  21206891.232     2304969.145 7   2133973.275 2
  19858511.475   -11928698.875 7  -9241517.952 2
  23451095.076    -6086378.252 5   1124742.788 1
  19988316.506   -24184295.311 7 -17738916.586 2
  20823240.545   -18825902.284 7 -13695133.076 2
 90 10 22 12 48 59.9980000  0  5 02 06 15 13 09
  21209787.592     2320195.208 7   2145837.734 2
  19858372.529   -11929419.207 7  -9242079.253 2
  23454824.943    -6066772.182 5   1140020.228 1
  19983677.365   -24208669.958 7 -17757909.816 2
  20815537.865   -18866380.079 7 -13726674.221 2
 90 10 22 12 49 14.9980000  0  5 02 06 15 13 09
  21212695.326     2335466.820 7   2157737.686 2
  19858260.787   -11930006.288 7  -9242536.727 2
  23458577.779    -6047038.878 5   1155396.802 1
  19979065.889   -24232904.517 7 -17776793.883 2
  20807850.396   -18906773.632 7 -13758149.710 2
 90 10 22 12 49 29.9980000  0  5 02 06 15 13 09
  21215608.943     2350782.606 6   2169672.060 2
  19858176.631   -11930461.231 7  -9242891.229 2
  23462362.467    -6027179.516 5   1170871.613 1
  19974480.764   -24257000.170 7 -17795569.711 2
  20800180.428   -18947083.904 7 -13789560.314 2
 90 10 22 12 49 44.9980000  0  5 02 06 15 13 09
  21218529.475     2366141.307 7   2181639.869 2
  19858112.217   -11930785.396 7  -9243143.833 2
  23466167.498    -6007196.062 5   1186443.105 1
  19969921.334   -24280958.244 7 -17814238.333 2
  20792524.975   -18987312.125 7 -13820906.972 2
 90 10 22 12 49 59.9980000  0  5 02 06 15 13 09
  21221461.928     2381540.585 7   2193639.297 2
  19858076.662   -11930980.957 7
  23469993.662    -5987090.621 5   1202109.638 1
  19965387.967   -24304780.745 7 -17832801.318 2
  20784885.342   -19027460.026 7 -13852191.053 2
 90 10 22 12 50 14.9980000  0  5 02 06 15 13 09
  21224399.279     2396984.298 7   2205673.349 2
  19858066.186   -11931043.926 7
  23473838.561    -5966859.515 5   1217874.120 1
  19960880.475   -24328464.333 7 -17851256.056 2
  20777261.764   -19067523.463 7 -13883409.312 2
 90 10 22 12 50 29.9980000  0  5 02 06 15 13 09
  21227349.568     2412473.847 7   2217743.118 2
  19858076.545   -11930972.859 7
  23477715.732    -5946501.925 5   1233737.162 1
  19956401.701   -24352007.765 7 -17869601.582 2
  20769654.522   -19107501.034 7 -13914560.666 2
 90 10 22 12 50 44.9980000  0  5 02 06 15 13 09
  21230304.592     2428004.276 7   2229844.750 2
  19858114.006   -11930772.435 7
  23481613.287    -5926022.849 5   1249694.847 1
  19951946.764   -24375415.708 7 -17887841.531 2
  20762062.412   -19147397.125 7 -13945648.524 2
 90 10 22 12 50 59.9980000  0  5 02 06 15 13 09
  21233269.678     2443579.727 7   2241981.455 2
  19858179.397   -11930438.560 7
  23485532.068    -5905418.375 5   1265750.270 1
  19947519.139   -24398684.215 7 -17905972.828 2
  20754486.576   -19187207.191 7 -13976669.354 2
 90 10 22 12 51 14.9980000  0  6 02 06 12 15 13 09
  21236241.256     2459201.422 7   2254154.194 2
  19858268.014   -11929969.741 7        -0.27513
  24269049.170          -0.35213
  23489478.193    -5884687.431 5   1281904.233 1
  19943117.607   -24421812.057 7 -17923994.515 2
  20746928.279   -19226929.810 7 -14007622.047 2
 90 10 22 12 51 29.9980000  0  6 02 06 12 15 13 09
  21239223.396     2474866.570 7   2266360.795 2
  19858381.764   -11929368.934 7       467.879 3
  24258521.537      -55322.065 4
  23493446.373    -5863833.018 5   1298154.422 1
  19938744.061   -24444801.939 7 -17941908.703 2
  20739383.342   -19266567.505 7 -14038508.563 2
 90 10 22 12 51 44.9980000  0  6 02 06 12 15 13 09
  21242210.146     2490575.457 7   2278601.482 2
  19858520.865   -11928635.486 7      1039.391 3
  24247994.795     -110651.878 4
  23497438.764    -5842855.134 5   1314500.809 1
  19934394.857   -24467653.351 7 -17959714.994 2
  20731856.662   -19306119.477 7 -14069328.283 2
 90 10 22 12 51 59.9980000  0  6 02 06 12 15 13 09
  21245209.404     2506331.004 7   2290878.526 2
  19858688.576   -11927766.445 7      1716.566 3
  24237462.912     -165986.673 4
  23501458.225    -5821751.091 5   1330945.474 1
  19930072.857   -24490363.640 7 -17977411.316 2
  20724348.490   -19345582.620 7 -14100078.785 2
 90 10 22 12 52 14.9980000  0  6 02 06 12 15 13 09
  21248218.373     2522131.177 7   2303190.343 2
  19858877.779   -11926763.796 7      2497.849 3
  24226932.037     -221328.344 4
  23505496.326    -5800523.072 5   1347486.775 1
  19925777.404   -24512934.685 7 -17994999.141 2
  20716855.131   -19384958.445 7 -14130761.242 2
 90 10 22 12 52 29.9980000  0  6 02 06 12 15 13 09
  21251231.076     2537975.425 7   2315536.503 2
  19859095.568   -11925627.997 7      3382.889 3
  24216395.639     -276677.425 3
  23509560.639    -5779172.182 5   1364123.798 1
  19921508.100   -24535367.559 7 -18012479.298 2
  20709378.053   -19424247.593 7 -14161376.162 2
 90 10 22 12 52 44.9980000  0  6 02 06 12 15 13 09
  21254254.279     2553864.995 7   2327917.977 2
  19859336.498   -11924357.714 7      4372.717 2
  24205862.826     -332032.386 2
  23513643.295    -5757697.258 5   1380857.486 1
  19917266.576   -24557660.798 7 -18029850.648 2
  20701919.451   -19463448.153 7 -14191922.054 2
 90 10 22 12 52 59.9980000  0  6 02 06 12 15 13 09
  21257286.490     2569799.371 7   2340334.370 2
  19859604.732   -11922953.335 7      5467.034 2
  24195331.771     -387393.399 3        -0.04711
  23517755.303    -5736098.818 5   1397687.411 1
  19913050.732   -24579815.029 7 -18047113.680 2
  20694475.943   -19502560.549 7 -14222399.244 2
 90 10 22 12 53 14.9980000  0  6 02 06 12 15 13 09
  21260326.943     2585776.523 7   2352784.095 2
  19859897.357   -11921416.719 7      6664.393 3
  24184797.459     -442762.350 4    -43144.704 1
  23521889.537    -5714379.081 5   1414611.856 1
  19908860.701   -24601832.157 7 -18064269.877 2
  20687050.295   -19541586.257 7 -14252808.887 2
 90 10 22 12 53 29.9980000  0  6 02 06 12 15 13 09
  21263377.529     2601799.893 7   2365269.825 2
  19860214.982   -11919744.573 7      7967.353 2
  24174256.592     -498135.608 4    -86292.698 1
  23526041.787    -5692535.086 5   1431633.151 1
  19904698.318   -24623708.949 7 -18081316.727 2
  20679641.311   -19580521.640 7 -14283148.145 2
 90 10 22 12 53 44.9980000  0  6 02 06 12 15 13 09
  21266432.631     2617865.517 7   2377788.482 2
  19860558.021   -11917940.589 7      9373.053 3
  24163717.904     -553516.974 3   -129447.021 1
  23530223.826    -5670571.090 5   1448747.922 1
  19900561.123   -24645449.453 7 -18098257.376 2
  20672247.662   -19619370.533 7 -14313420.009 2
 90 10 22 12 53 59.9980000  0  6 02 06 12 15 13 09
  21269501.850     2633977.512 7   2390343.274 2
  19860927.295   -11916000.697 7     10884.651 3
  24153177.943     -608902.134 3   -172604.264 1
  23534426.803    -5648483.176 5   1465959.253 1
  19896450.240   -24667049.311 7 -18115088.427 2
  20664871.701   -19658128.159 7 -14343620.757 2
 90 10 22 12 54 14.9980000  0  6 02 06 12 15 13 09
  21272574.146     2650131.358 7   2402930.684 2
  19861319.772   -11913929.161 7     12498.830 2
  24142636.412     -664295.211 3   -215767.675 1
  23538649.498    -5626276.251 5   1483263.322 1
  19892366.084   -24688513.162 7 -18131813.504 2
  20657513.561   -19696798.799 7 -14373753.726 2
 90 10 22 12 54 29.9980000  0  6 02 06 12 15 13 09
  21275658.709     2666333.873 7   2415556.010 2
  19861741.951   -11911719.143 7     14220.917 3
  24132097.271     -719689.337 4   -258931.944 1
  23542904.459    -5603943.309 5   1500665.595 1
  19888308.787   -24709834.386 7 -18148427.437 2
  20650173.475   -19735375.435 7 -14403813.440 2
 90 10 22 12 54 44.9980000  0  6 02 06 12 15 13 09
  21278749.998     2682581.273 7   2428216.309 2
  19862187.022   -11909374.236 7     16048.113 2
  24121556.897     -775088.059 4   -302099.747 1
  23547173.740    -5581488.767 5   1518162.605 1
  19884278.139   -24731016.690 7 -18164933.124 2
  20642850.373   -19773861.380 7 -14433802.484 2
 90 10 22 12 54 59.9980000  0  6 02 06 12 15 13 09
  21281847.748     2698871.336 7   2440909.864 2
  19862659.959   -11906896.647 7     17978.698 3
  24111012.217     -830493.343 4   -345272.679 1
  23551468.342    -5558914.784 5   1535752.716 1
  19880274.178   -24752062.283 7 -18181332.287 2
  20635543.147   -19812258.561 7 -14463722.361 2
 90 10 22 12 55 14.9980000  0  6 02 06 12 15 13 09
  21284956.693     2715207.796 7   2453639.559 2
  19863156.170   -11904282.503 7     20015.693 3
  24100469.701     -885901.301 3   -388447.703 1
  23555794.412    -5536218.028 5   1553438.477 1
  19876294.857   -24772967.486 7 -18197622.047 2
  20628254.264   -19850563.033 7 -14493569.995 2
 90 10 22 12 55 29.9980000  0  6 02 06 12 15 13 09
  21288075.014     2731589.026 7   2466404.146 2
  19863679.506   -11901533.382 7     22157.862 3
  24089922.342     -941313.258 4   -431625.857 1
  23560131.639    -5513400.391 5   1571218.458 1
  19872343.647   -24793733.926 7 -18213803.683 2
  20620983.295   -19888776.020 7 -14523346.342 2
 90 10 22 12 55 44.9980000  0  6 02 06 12 15 13 09
  21291199.381     2748014.817 7   2479203.457 2
  19864228.928   -11898649.716 7     24404.871 3
  24079375.404     -996729.357 4   -474807.234 1
  23564499.998    -5490462.134 5   1589092.412 1
  19868418.154   -24814362.080 7 -18229877.562 2
  20613727.248   -19926897.598 7 -14553051.468 2
 90 10 22 12 55 59.9980000  0  6 02 06 12 15 13 09
  21294334.811     2764483.002 7   2492035.797 2
  19864801.951   -11895633.570 7     26755.109 3
  24068830.881    -1052151.657 4   -517993.406 1
  23568884.576    -5467406.044 5   1607058.167 1
  19864517.881   -24834854.424 7 -18245845.615 2
  20606491.896   -19964929.590 7 -14582686.784 2
 90 10 22 12 56 14.9980000  0  6 02 06 12 15 13 09
  21297474.451     2780998.110 6   2504904.704 2
  19865402.897   -11892479.992 7     29212.439 3
  24058284.732    -1107575.177 4   -561180.585 1
  23573294.779    -5444227.642 5   1625119.232 1
  19860645.490   -24855206.096 7 -18261704.054 2
  20599271.936   -20002866.954 7 -14612248.362 2
 90 10 22 12 56 29.9980000  0  6 02 06 12 15 13 09
  21300626.693     2797558.796 7   2517809.124 2
  19866027.732   -11889190.316 7     31775.821 3
  24047738.389    -1163000.931 4   -604369.480 1
  23577731.740    -5420928.284 5   1643274.553 1
  19856798.764   -24875418.366 7 -18277453.871 2
  20592069.881   -20040710.592 7 -14641736.911 2
 90 10 22 12 56 44.9980000  0  6 02 06 12 15 13 09
  21303787.654     2814163.425 7   2530747.786 2
  19866680.646   -11885766.133 7     34444.017 3
  24037190.615    -1218430.479 4   -647561.335 1
  23582184.334    -5397510.372 5   1661522.233 1
  19852979.076   -24895492.974 7 -18293096.417 2
  20584886.654   -20078462.053 7 -14671153.630 2
 90 10 22 12 56 59.9980000  0  6 02 06 12 15 13 09
  21306957.654     2830811.967 7   2543720.668 2
  19867358.178   -11882207.555 7     37216.933 3
  24026638.475    -1273863.718 4   -690756.049 1
  23586665.475    -5373973.981 5   1679862.274 1
  19849185.725   -24915430.080 7 -18308631.816 2
  20577720.225   -20116120.942 7 -14700498.214 2
 90 10 22 12 57 14.9980000  0  6 02 06 12 15 13 09
  21310133.514     2847507.382 7   2556730.075 2
  19868061.482   -11878511.471 7     40096.997 3
  24016091.998    -1329297.433 4   -733951.157 1
  23591168.271    -5350316.187 5   1698296.883 1
  19845417.646   -24935227.046 7 -18324058.022 2
  20570571.396   -20153684.080 7 -14729768.193 2
 90 10 22 12 57 29.9980000  0  6 02 06 12 15 13 09
  21313315.732     2864247.852 6   2569774.589 2
  19868790.412   -11874679.720 7     43082.776 3
  24005543.904    -1384733.419 4   -777148.026 1
  23595691.889    -5326539.144 5   1716824.429 1
  19841677.225   -24954885.783 7 -18339376.511 2
  20563443.146   -20191153.290 7 -14758964.973 2
 90 10 22 12 57 44.9980000  0  6 02 06 12 15 13 09
  21316513.623     2881031.653 7   2582852.865 2
  19869545.186   -11870713.869 7     46173.046 3
  23994995.295    -1440173.107 4   -820347.779 1
  23600237.732    -5302644.933 5   1735443.287 1
  19837961.951   -24974407.937 7 -18354588.576 2
  20556328.693   -20228529.492 7 -14788089.282 2
 90 10 22 12 57 59.9980000  0  6 02 06 12 15 13 09
  21319714.061     2897861.576 7   2595967.083 2
  19870325.584   -11866611.097 7     49370.009 3
  23984442.748    -1495613.401 4   -863548.020 1
  23604809.693    -5278631.078 5   1754155.354 1
  19834273.381   -24993790.822 7 -18369692.116 2
  20549234.748   -20265809.760 7 -14817138.843 2
 90 10 22 12 58 14.9980000  0  6 02 06 12 15 13 09
  21322925.920     2914739.130 6   2609118.412 2
  19871133.061   -11862369.949 7     52674.798 3
  23973890.998    -1551052.666 3   -906747.408 1
  23609400.256    -5254496.568 5   1772961.445 1
  19830612.553   -25013033.028 7 -18384686.035 2
  20542159.029   -20302992.474 7 -14846112.384 2
 90 10 22 12 58 29.9980000  0  6 02 06 12 15 13 09
  21326145.920     2931661.525 6   2622304.676 2
  19871965.006   -11857992.841 7     56085.532 3
  23963344.092    -1606493.343 4   -949947.911 1
  23614013.178    -5230244.172 5   1791859.382 1
  19826977.295   -25032137.319 7 -18399572.490 2
  20535099.732   -20340079.816 7 -14875011.614 2
 90 10 22 12 58 44.9980000  0  6 02 06 12 15 13 09
  21329375.186     2948629.403 6   2635526.393 2
  19872825.147   -11853479.438 7     59602.468 3
  23952792.717    -1661934.683 4   -993148.981 1
  23618652.857    -5205873.412 5   1810849.544 1
  19823366.928   -25051103.223 7 -18414351.109 2
  20528063.061   -20377070.935 7 -14903835.855 2
 90 10 22 12 58 59.9980000  0  6 02 06 12 15 13 09
  21332614.240     2965646.420 7   2648786.398 2
  19873709.818   -11848825.684 7     63228.772 3
  23942242.084    -1717372.807 4  -1036347.526 1
  23623313.061    -5181380.849 5   1829934.623 1
  19819785.764   -25069926.971 7 -18429018.958 2
  20521042.826   -20413961.718 7 -14932581.916 2
 90 10 22 12 59 14.9980000  0  6 02 06 12 15 13 09
  21335861.990     2982708.620 6   2662081.606 2
  19874621.201   -11844035.714 7     66961.211 3
  23931695.373    -1772811.544 4  -1079546.573 1
  23627994.982    -5156770.752 5   1849111.292 1
  19816230.357   -25088612.786 7 -18443579.324 2
  20514040.693   -20450755.938 7 -14961252.727 2
 90 10 22 12 59 29.9980000  0  6 02 06 12 15 13 09
  21339116.795     2999814.337 7   2675410.725 2
  19875558.967   -11839111.030 7     70798.620 3
  23921147.170    -1828252.217 4  -1122747.069 1
  23632702.873    -5132045.132 5   1868377.994 1
  19812699.912   -25107162.225 7 -18458033.428 2
  20507056.748   -20487454.982 7 -14989849.383 2
 90 10 22 12 59 44.9980000  0  6 02 06 12 15 13 09
  21342379.506     3016968.231 6   2688777.387 2
  19876522.045   -11834047.038 7     74744.584 2
  23910597.115    -1883689.969 4  -1165945.303 1
  23637431.467    -5107199.724 5   1887737.999 1
  19809196.639   -25125570.727 7 -18472377.705 2
  20500092.271   -20524053.974 7 -15018368.073 2
 90 10 22 12 59 59.9980000  0  6 02 06 12 15 13 09
  21345653.334     3034168.586 6   2702180.253 2
  19877511.904   -11828845.057 7     78798.070 2
  23900045.748    -1939126.187 4  -1209142.346 1
  23642181.170    -5082236.325 5   1907189.966 1
  19805718.654   -25143840.062 7 -18486613.550 2
  20493147.740   -20560553.803 7 -15046809.494 2
 90 10 22 13  0 14.9980000  0  6 02 06 12 15 13 09
  21348936.857     3051415.147 7   2715619.119 2
  19878528.576   -11823505.607 7     82958.675 3
  23889496.990    -1994561.118 4  -1252338.464 1
  23646954.482    -5057155.607 5   1926733.349 1
  19802270.178   -25161970.915 7 -18500741.481 2
  20486221.186   -20596954.808 7 -15075173.908 2
 90 10 22 13  0 29.9980000  0  6 02 06 12 15 13 09
  21352229.115     3068710.534 7   2729096.039 2
  19879570.412   -11818025.949 7     87228.534 3
  23878945.225    -2049991.754 4  -1295531.134 1
  23651747.178    -5031955.116 5   1946370.074 1
  19798846.896   -25179960.478 7 -18514759.316 2
  20479312.428   -20633254.144 7 -15103459.101 2
 90 10 22 13  0 44.9980000  0  6 02 06 12 15 13 09
  21355524.107     3086046.185 6   2742604.318 2
  19880639.475   -11812414.589 7     91601.014 3
  23868400.342    -2105426.549 4  -1338727.087 1
  23656564.365    -5006643.763 5   1966093.194 1
  19795448.717   -25197817.609 7 -18528673.955 2
  20472421.959   -20669460.007 7 -15131671.464 2
 90 10 22 13  0 59.9980000  0  6 02 06 12 15 13 09
  21358834.412     3103429.368 7   2756149.643 2
  19881733.404   -11806664.332 7     96081.727 3
  23857853.436    -2160858.072 4  -1381920.492 1
  23661403.154    -4981214.684 5   1985908.019 1
  19792076.756   -25215534.941 7 -18542479.665 2
  20465551.139   -20705564.628 7 -15159804.929 2
 90 10 22 13  1 14.9980000  0  6 02 06 12 15 13 09
  21362149.326     3120858.475 7   2769730.758 2
  19882853.068   -11800776.638 7    100669.529 2
  23847304.732    -2216287.519 4  -1425112.246 1
  23666266.100    -4955669.497 5   2005813.310 1
  19788732.428   -25233114.076 7 -18556177.682 2
  20458701.303   -20741569.414 7 -15187860.608 2
 90 10 22 13  1 29.9980000  0  6 02 06 12 15 13 09
  21365474.334     3138334.114 7   2783348.119 2
  19883999.936   -11794750.725 7    105365.038 3
  23836755.217    -2271714.051 4  -1468301.726 1
  23671145.037    -4930007.923 5   2025809.333 1
  19785414.381   -25250554.525 7 -18569767.637 2
  20451868.889   -20777473.571 7 -15215837.867 2
 90 10 22 13  1 44.9980000  0  6 02 06 12 15 13 09
  21368809.490     3155853.950 7   2796999.930 2
  19885173.209   -11788589.057 7    110166.332 3
  23826208.107    -2327139.870 4  -1511490.708 1
  23676051.443    -4904232.691 5   2045893.897 1
  19782120.318   -25267858.827 7 -18583251.498 2
  20445054.701   -20813279.003 7 -15243738.203 2
 90 10 22 13  1 59.9980000  0  6 02 06 12 15 13 09
  21372150.764     3173417.134 7   2810685.511 2
  19886371.256   -11782292.545 7    115072.698 3
  23815659.615    -2382565.682 3  -1554679.696 1
  23680981.318    -4878344.534 5   2066066.430 1
  19778852.959   -25285027.818 7 -18596629.936 2
  20438260.592   -20848986.210 7 -15271561.999 2
 90 10 22 13  2 14.9980000  0  6 02 06 12 15 13 09
  21375501.209     3191023.010 7   2824404.359 2
  19887595.006   -11775861.711 7    120083.731 3
  23805114.451    -2437991.837 3  -1597868.865 1
  23685929.318    -4852344.586 5   2086326.092 1
  19775612.475   -25302062.411 7 -18609903.636 2
  20431484.928   -20884595.651 7 -15299309.617 2
 90 10 22 13  2 29.9980000  0  6 02 06 12 15 13 09
  21378862.467     3208675.076 7   2838159.201 2
  19888844.279   -11769292.667 7    125202.459 3
  23794570.045    -2493414.312 4  -1641055.205 1
  23690902.068    -4826229.528 5   2106675.485 1
  19772397.553   -25318959.004 7 -18623069.811 2
  20424727.600   -20920103.193 7 -15326977.842 2
 90 10 22 13  2 44.9980000  0  6 02 06 12 15 13 09
  21382230.459     3226374.084 7   2851950.620 2
  19890121.521   -11762584.808 7    130429.363 3
  23784023.662    -2548832.420 3  -1684238.165 1
  23695892.287    -4799999.114 5   2127114.715 1
  19769207.146   -25335716.966 7 -18636127.954 2
  20417990.803   -20955507.946 7 -15354565.960 2
 90 10 22 13  2 59.9980000  0  6 02 06 12 15 13 09
  21385606.600     3244120.243 7   2865778.784 2
  19891424.365   -11755738.171 7    135764.398 3
  23773478.412    -2604245.781 4  -1727417.411 1
  23700901.811    -4773653.637 5   2147643.626 1
  19766043.678   -25352336.487 7 -18649078.228 2
  20411273.232   -20990809.628 7 -15382073.766 2
 90 10 22 13  3 14.9980000  0  6 02 06 12 15 13 09
  21388991.271     3261912.381 7   2879642.772 2
  19892753.428   -11748753.723 7    141206.827 3
  23762932.514    -2659655.506 3  -1770593.806 1
  23705937.592    -4747194.224 5   2168261.307 1
  19762907.834   -25368818.627 7 -18661921.450 2
  20404574.061   -21026008.845 7 -15409501.721 2
 90 10 22 13  3 29.9980000  0  6 02 06 12 15 13 09
  21392387.498     3279752.778 7   2893544.367 2
  19894109.607   -11741629.164 7    146758.426 3
  23752389.201    -2715058.989 4  -1813765.336 1
  23710992.475    -4720618.962 5   2188969.289 1
  19759798.764   -25385161.236 7 -18674655.946 2
  20397894.553   -21061103.061 7 -15436847.858 2
 90 10 22 13  3 44.9980000  0  6 02 06 12 15 13 09
  21395789.756     3297641.581 6   2907483.672 2
  19895491.311   -11734364.459 7    152419.232 3
  23741849.912    -2770455.785 4  -1856931.699 1
  23716074.248    -4693928.112 5   2209767.299 1
  19756715.139   -25401364.284 7 -18687281.691 2
  20391236.264   -21096092.073 7 -15464112.026 2
 90 10 22 13  3 59.9980000  0  6 02 06 12 15 13 09
  21399204.584     3315576.233 6   2921458.712 2
  19896900.311   -11726961.837 7    158187.504 3
  23731309.084    -2825848.115 3  -1900094.543 1
  23721175.279    -4667124.404 5   2230653.275 1
  19753657.467   -25417430.368 7 -18699800.709 2
  20384599.701   -21130977.809 7 -15491295.714 2
 90 10 22 13  4 14.9980000  0  6 02 06 12 15 13 09
  21402624.850     3333555.320 6   2935468.379 2
  19898334.467   -11719422.766 7    164062.099 3
  23720768.537    -2881236.983 4  -1943254.659 1
  23726296.920    -4640209.382 5   2251625.992 1
  19750625.990   -25433360.908 7 -18712214.109 2
  20377979.725   -21165761.301 7 -15518399.725 2
 90 10 22 13  4 29.9980000  0  6 02 06 12 15 13 09
  21406053.787     3351580.696 6   2949514.106 2
  19899796.186   -11711745.437 7    170044.422 3
  23710229.568    -2936620.491 4  -1986410.679 1
  23731438.545    -4613181.440 5   2272686.704 1
  19747621.021   -25449154.171 7 -18724520.544 2
  20371382.154   -21200440.606 7 -15545422.559 2
 90 10 22 13  4 44.9980000  0  6 02 06 12 15 13 09
  21409492.701     3369651.982 6   2963595.615 2
  19901282.443   -11703930.187 7    176134.223 3
  23699688.850    -2991998.897 4  -2029562.666 1
  23736600.967    -4586041.643 5   2293834.569 1
  19744642.240   -25464810.807 7 -18736720.512 2
  20364800.514   -21235015.817 7 -15572364.278 2
 90 10 22 13  4 59.9980000  0  6 02 06 12 15 13 09
  21412943.311     3387766.355 6   2977710.693 2
  19902796.240   -11695979.854 7    182329.289 3
  23689149.045    -3047374.809 4  -2072712.720 1
  23741787.506    -4558792.999 5   2315067.232 1
  19741687.303   -25480333.819 7 -18748816.362 2
  20358241.303   -21269489.275 7 -15599226.714 2
 90 10 22 13  5 14.9980000  0  6 02 06 12 15 13 09
  21416395.404     3405927.901 6   2991862.528 2
  19904335.826   -11687890.319 7    188632.823 3
  23678615.068    -3102743.816 4  -2115857.383 1
  23746996.154    -4531431.275 5   2336388.022 1
  19738759.811   -25495719.065 7 -18760804.859 2
  20351700.568   -21303856.688 7 -15626006.518 2
 90 10 22 13  5 29.9980000  0  6 02 06 12 15 13 09
  21419862.990     3424135.812 6   3006050.496 2
  19905900.084   -11679662.217 7    195044.325 3
  23668080.022    -3158106.372 5  -2158997.087 1
  23752223.943    -4503957.818 5   2357795.898 1
  19735858.568   -25510967.340 7 -18772686.628 2
  20345180.873   -21338118.581 7 -15652704.095 2
 90 10 22 13  5 44.9980000  0  6 02 06 12 15 13 09
  21423336.912     3442386.688 6   3020271.937 2
  19907492.779   -11671299.206 7    201560.961 3
  23657546.693    -3213465.840 4  -2202134.322 1
  23757473.256    -4476376.389 5   2379287.876 1
  19732981.396   -25526082.364 7 -18784464.566 2
  20338682.396   -21372278.169 7 -15679321.952 2
 90 10 22 13  5 59.9980000  0  6 02 06 12 15 13 09
  21426815.123     3460684.136 6   3034529.673 2
  19909110.709   -11662797.495 7    208185.675 3
  23647015.209    -3268818.343 5  -2245266.064 1
  23762742.693    -4448683.618 5   2400866.623 1
  19730131.459   -25541060.604 7 -18796135.918 2
  20332200.928   -21406331.190 7 -15705856.772 2
 90 10 22 13  6 14.9980000  0  6 02 06 12 15 13 09
  21430307.326     3479026.403 6   3048822.331 2
  19910754.201   -11654158.769 7    214917.145 3
  23636482.092    -3324165.369 5  -2288393.653 1
  23768030.732    -4420881.827 5   2422530.335 1
  19727306.717   -25555903.995 7 -18807702.197 2
  20325740.271   -21440279.253 7 -15732309.806 2
 90 10 22 13  6 29.9980000  0  6 02 06 12 15 13 09
  21433809.107     3497415.294 7   3063151.321 2
  19912424.217   -11645381.347 7    221756.690 3
  23625952.373    -3379505.022 4  -2331515.456 1
  23773343.350    -4392969.194 5   2444280.392 1
  19724508.420   -25570610.862 7 -18819162.090 2
  20319301.725   -21474120.321 7 -15758679.466 2
 90 10 22 13  6 44.9980000  0  6 02 06 12 15 13 09
  21437314.857     3515853.570 6   3077518.796 2
  19914122.561   -11636462.475 7    228706.452 3
  23615424.115    -3434834.151 5  -2374629.009 1
  23778677.139    -4364943.384 5   2466118.640 1
  19721737.342   -25585178.557 7 -18830513.537 2
  20312881.170   -21507851.448 7 -15784963.461 2
 90 10 22 13  6 59.9980000  0  6 02 06 12 15 13 09
  21440833.436     3534338.579 6   3091922.684 2
  19915845.256   -11627404.929 7    235764.278 3
  23604896.889    -3490155.295 5  -2417736.421 1
  23784032.154    -4336807.475 5   2488042.686 1
  19718990.100   -25599609.896 7 -18841758.734 2
  20306485.428   -21541474.958 7 -15811163.589 2
 90 10 22 13  7 14.9980000  0  6 02 06 12 15 13 09
  21444359.607     3552870.766 6   3106363.335 2
  19917595.295   -11618207.968 7    242930.731 3
  23594369.670    -3545467.651 5  -2460836.925 1
  23789407.006    -4308561.289 5   2510052.666 1
  19716270.639   -25613904.525 7 -18852897.399 2
  20300105.443   -21574989.965 7 -15837279.182 2
 90 10 22 13  7 29.9980000  0  6 02 06 12 15 13 09
  21447894.451     3571447.405 6   3120838.619 2
  19919371.279   -11608874.350 7    250203.677 2
  23583846.170    -3600773.647 5  -2503932.527 1
  23794802.936    -4280207.771 5   2532146.276 1
  19713574.701   -25628065.362 7 -18863931.814 2
  20293749.373   -21608398.866 7 -15863312.094 2
 90 10 22 13  7 44.9980000  0  6 02 06 12 15 13 09
  21451439.795     3590070.830 6   3135350.365 2
  19921173.740   -11599401.740 7    257584.930 3
  23573322.061    -3656070.772 5  -2547021.155 1
  23800219.975    -4251744.750 5   2554325.218 1
  19710905.975   -25642090.078 7 -18874860.161 2
  20287411.631   -21641699.056 7 -15889260.286 2
 90 10 22 13  7 59.9980000  0  6 02 06 12 15 13 09
  21454990.717     3608739.738 6   3149897.550 2
  19923003.186   -11589791.529 7    265073.405 3
  23562800.482    -3711360.120 5  -2590103.818 1
  23805655.232    -4223173.900 5   2576588.178 1
  19708263.162   -25655980.050 7 -18885683.516 2
  20281095.779   -21674891.438 7 -15915124.473 2
 90 10 22 13  8 14.9980000  0  6 02 06 12 15 13 09
  21458552.326     3627454.397 6   3164480.381 2
  19924857.592   -11580043.215 7    272669.496 3
  23552279.897    -3766641.019 5  -2633179.798 1
  23811109.865    -4194495.255 4   2598935.128 1
  19705646.725   -25669734.983 7 -18896401.644 2
  20274799.693   -21707975.508 7 -15940904.265 2
 90 10 22 13  8 29.9980000  0  6 02 06 12 15 13 09
  21462122.818     3646218.430 6   3179101.686 2
  19926738.584   -11570153.245 7    280375.965 3
  23541762.318    -3821909.710 5  -2676246.310 1
  23816596.482    -4165705.064 4   2621368.982 1
  19703053.990   -25683351.430 7 -18907011.861 2
  20268525.990   -21740947.150 7 -15966596.450 2
 90 10 22 13  8 44.9980000  0  6 02 06 12 15 13 09
  21465702.201     3665029.388 6   3193759.558 2
  19928648.334   -11560124.114 7    288190.864 3
  23531244.771    -3877168.490 5  -2719305.111 1
  23822091.146    -4136806.664 4   2643887.187 1
  19700489.475   -25696832.007 7 -18917516.202 2
  20262272.232   -21773808.822 7 -15992202.944 2
 90 10 22 13  8 59.9980000  0  6 02 06 12 15 13 09
  21469288.139     3683883.341 6   3208450.932 2
  19930582.607   -11549960.049 7    296110.906 3
  23520733.764    -3932421.186 5  -2762359.181 1
  23827607.592    -4107804.346 4   2666486.350 1
  19697948.756   -25710181.174 7 -18927918.144 2
  20256040.311   -21806564.138 7 -16017726.566 2
 90 10 22 13  9 14.9980000  0  6 02 06 12 15 13 09
  21472886.811     3702782.956 6   3223177.885 2
  19932542.295   -11539658.202 7    304138.312 3
  23510222.725    -3987664.824 5  -2805406.138 1
  23833148.771    -4078695.697 5   2689168.372 1
  19695434.350   -25723396.239 7 -18938215.592 2
  20249827.326   -21839210.193 7 -16043165.041 2
 90 10 22 13  9 29.9980000  0  6 02 06 12 15 13 09
  21476491.522     3721730.949 6   3237942.531 2
  19934529.951   -11529215.770 7    312275.266 3
  23499709.014    -4042896.325 5  -2848443.675 1
  23838710.076    -4049477.884 5   2711935.467 1
  19692946.920   -25736474.449 7 -18948406.399 2
  20243636.756   -21871743.852 7 -16068515.949 2
 90 10 22 13  9 44.9980000  0  6 02 06 12 15 13 09
  21480107.732     3740724.342 6   3252742.560 2
  19936542.521   -11518635.722 7    320519.450 3
  23489204.271    -4098118.485 5  -2891473.910 1
  23844285.482    -4020154.447 4   2734784.904 1
  19690482.420   -25749418.943 7 -18958493.014 2
  20237465.482   -21904167.695 7 -16093781.277 2
 90 10 22 13  9 59.9980000  0  6 02 06 12 15 13 09
  21483731.506     3759767.443 6   3267581.323 2
  19938584.186   -11507913.859 7    328874.140 3
  23478692.381    -4153326.747 5  -2934493.357 1
  23849890.639    -3990721.115 5   2757719.903 1
  19688044.693   -25762225.495 7 -18968472.143 2
  20231318.732   -21936477.171 7 -16118957.492 2
 90 10 22 13 10 14.9980000  0  6 02 06 12 15 13 09
  21487364.178     3778857.628 6   3282456.778 2
  19940649.592   -11497052.801 7    337337.305 3
  23468190.170    -4208523.440 5  -2977503.760 1
  23855510.928    -3961181.085 4   2780738.066 1
  19685634.264   -25774897.078 7 -18978346.098 2
  20225190.412   -21968674.851 7 -16144046.594 2
 90 10 22 13 10 29.9980000  0  6 02 06 12 15 13 09
  21491006.365     3797999.100 6   3297372.190 2
  19942743.826   -11486048.065 7    345912.411 3
  23457691.787    -4263703.937 5  -3020501.533 1
  23861154.686    -3931530.504 5   2803842.382 1
  19683249.506   -25787429.374 7 -18988111.521 2
  20219085.092   -22000755.851 7 -16169044.773 2
 90 10 22 13 10 44.9980000  0  6 02 06 12 15 13 09
  21494657.639     3817184.977 6   3312322.206 2
  19944864.600   -11474907.081 7    354593.687 3
  23447191.568    -4318875.139 5  -3063492.082 1
  23866815.803    -3901776.553 5   2827027.247 1
  19680888.365   -25799829.793 7 -18997774.184 2
  20213002.295   -22032726.944 7 -16193957.311 2
 90 10 22 13 10 59.9980000  0  6 02 06 12 15 13 09
  21498315.701     3836417.592 6   3327308.645 2
  19947011.537   -11463627.052 7    363383.316 3
  23436696.279    -4374034.352 5  -3106473.284 1
  23872495.498    -3871917.275 5   2850294.170 1
  19678556.006   -25812096.037 7 -19007332.295 2
  20206939.092   -22064585.404 7 -16218782.083 2
 90 10 22 13 11 14.9980000  0  6 02 06 12 15 13 09
  21501985.857     3855697.194 6   3342331.686 2
  19949185.022   -11452208.012 7    372281.263 3
  23426204.014    -4429181.161 5  -3149444.801 1
  23878196.803    -3841952.565 5   2873643.262 1
  19676247.592   -25824227.885 7 -19016785.679 2
  20200898.420   -22096330.850 7 -16243518.793 2
 90 10 22 13 11 29.9980000  0  6 02 06 12 15 13 09
  21505664.365     3875024.988 6   3357392.279 2
  19951385.326   -11440648.623 7    381288.571 3
  23415708.670    -4484314.082 4  -3192405.545 1
  23883923.076    -3811881.368 5   2897075.300 1
  19673963.748   -25836224.103 7 -19026133.383 2
  20194879.842   -22127961.644 7 -16268166.165 2
 90 10 22 13 11 44.9980000  0  6 02 06 12 15 13 09
  21509349.436     3894402.206 6   3372491.393 2
  19953611.256   -11428947.758 7    390406.117 3
  23405222.693    -4539431.561 5  -3235354.172 1
  23889664.084    -3781703.007 5   2920590.888 1
  19671706.896   -25848083.738 7 -19035374.654 2
  20188882.100   -22159476.260 7 -16292723.007 2
 90 10 22 13 11 59.9980000  0  6 02 06 12 15 13 09
  21513048.248     3913826.859 6   3387627.468 2
  19955864.412   -11417107.437 7    399632.328 3
  23394736.154    -4594535.303 5  -3278292.184 1
  23895426.818    -3751419.838 5   2944188.140 1
  19669476.576   -25859808.864 7 -19044511.110 2
  20182906.998   -22190876.328 7 -16317190.588 2
 90 10 22 13 12 14.9980000  0  6 02 06 12 15 13 09
  21516752.912     3933298.136 6   3402799.865 2
  19958143.436   -11405128.288 7    408966.716 3
  23384255.232    -4649625.895 5  -3321219.859 1
  23901212.482    -3721032.838 5   2967866.288 1
  19667270.193   -25871400.648 7 -19053543.664 2
  20176953.287   -22222162.666 7 -16341569.553 2
 90 10 22 13 12 29.9980000  0  6 02 06 12 15 13 09
  21520470.568     3952814.743 6   3418007.583 2
  19960448.576   -11393011.720 7    418408.189 3
  23373774.756    -4704704.288 5  -3364138.106 1
  23907012.639    -3690543.428 5   2991624.225 1
  19665090.021   -25882860.293 7 -19062473.256 2
  20171021.209   -22253335.755 7 -16365860.270 2
 90 10 22 13 12 44.9980000  0  6 02 06 12 15 13 09
  21524190.467     3972381.508 6   3433254.392 2
  19962781.123   -11380752.901 7    427960.509 3
  23363297.639    -4759765.535 5  -3407042.960 1
  23912832.826    -3659947.351 5   3015465.284 1
  19662933.740   -25894183.213 7 -19071296.308 2
  20165111.920   -22284390.810 7 -16390059.015 2
 90 10 22 13 12 59.9980000  0  6 02 06 12 15 13 09
  21527921.631     3991997.258 6   3448539.368 1
  19965142.154   -11368353.104 7    437622.682 3
  23352818.475    -4814810.532 5  -3449935.147 1
  23918677.459    -3629246.397 5   3039388.103 1
  19660805.373   -25905370.724 7 -19080013.845 2
  20159225.092   -22315328.590 7 -16414166.375 2
 90 10 22 13 13 14.9980000  0  6 02 06 12 15 13 09
  21531665.381     4011658.007 6   3463859.407 2
  19967526.920   -11355816.536 7    447391.435 3
  23342346.623    -4869843.263 5  -3492817.805 1
  23924540.662    -3598444.612 5   3063389.447 1
  19658701.107   -25916427.317 7 -19088629.371 2
  20153359.186   -22346153.035 7 -16438185.426 2
 90 10 22 13 13 29.9980000  0  6 02 06 12 15 13 09
  21535415.014     4031367.050 6   3479217.078 1
  19969938.529   -11343139.614 7    457269.548 3
  23331876.725    -4924859.899 5  -3535687.898 1
  23930417.654    -3567538.840 5   3087471.815 1
  19656622.920   -25927349.559 7 -19097140.212 2
  20147515.256   -22376860.352 7 -16462113.207 2
 90 10 22 13 13 44.9980000  0  6 02 06 12 15 13 09
  21539177.232     4051123.724 6   3494611.861 2
  19972377.568   -11330323.377 7    467256.218 3
  23321412.225    -4979860.933 5  -3578545.841 1
  23936319.287    -3536530.150 5   3111634.385 1
  19654569.772   -25938138.200 7 -19105546.935 2
  20141693.857   -22407450.947 7 -16485950.031 2
 90 10 22 13 13 59.9980000  0  6 02 06 12 15 13 09
  21542939.084     4070924.577 6   3510041.073 2
  19974842.889   -11317371.052 7    477348.936 3
  23310945.506    -5034849.544 5  -3621394.078 1
  23942240.170    -3505422.384 5   3135874.189 1
  19652542.139   -25948796.933 7 -19113852.437 2
  20135894.912   -22437928.103 7 -16509698.468 2
 90 10 22 13 14 14.9980000  0  6 02 06 12 15 13 09
  21546720.537     4090775.679 6   3525509.439 2
  19977333.295   -11304276.505 7    487552.473 3
  23300490.811    -5089819.381 5  -3664227.734 1
  23948180.037    -3474209.682 4   3160195.728 1
  19650540.201   -25959319.733 7 -19122052.020 2
  20130117.654   -22468285.225 7 -16533353.366 2
 90 10 22 13 14 29.9980000  0  6 02 06 12 15 13 09
  21550506.264     4110673.510 6   3541014.219 2
  19979853.857   -11291043.646 7    497863.784 3
  23290027.982    -5144773.913 5  -3707049.438 1
  23954136.139    -3442896.201 4   3184595.817 1
  19648562.154   -25969710.679 7 -19130148.859 2
  20124362.709   -22498525.738 7 -16556917.399 2
 90 10 22 13 14 44.9980000  0  6 02 06 12 15 13 09
  21554300.936     4130623.691 6   3556559.793 2
  19982398.592   -11277666.684 7    508287.385 3
  23279575.975    -5199707.076 5  -3749854.466 1
  23960114.615    -3411476.392 5   3209078.674 1
  19646611.295   -25979964.057 7 -19138138.500 2
  20118632.365   -22528643.734 7 -16580385.965 2
 90 10 22 13 14 59.9980000  0  6 02 06 12 15 13 09
  21558108.873     4150621.636 6   3572142.581 2
  19984969.920   -11264150.218 7    518819.687 3
  23269126.584    -5254623.304 5  -3792646.345 1
  23966116.311    -3379954.953 5   3233640.849 1
  19644685.146   -25990084.447 7 -19146024.516 2
  20112924.420   -22558643.548 7 -16603762.444 2
 90 10 22 13 15 14.9980000  0  5 02 06 12 13 09
  21561923.717     4170663.785 6   3587759.815 1
  19987567.857   -11250497.843 7    529457.890 3
  23258679.217    -5309525.919 5  -3835427.573 1
  19642783.990   -26000075.603 7 -19153809.829 2
  20107235.920   -22588528.276 7 -16627049.249 2
 90 10 22 13 15 29.9980000  0  5 02 06 12 13 09
  21565746.873     4190756.492 6   3603416.445 2
  19990193.693   -11236703.426 7    540206.779 3
  23248235.529    -5364408.204 5  -3878193.006 1
  19640908.701   -26009931.665 7 -19161489.878 2
  20101572.818   -22618291.254 7 -16650241.180 2
 90 10 22 13 15 44.9980000  0  5 02 06 12 13 09
  21569578.912     4210896.487 6   3619109.921 2
  19992843.764   -11222770.046 7    551063.941 3
  23237792.896    -5419273.085 5  -3920944.871 1
  19639058.115   -26019655.910 7 -19169067.212 2
  20095932.443   -22647935.734 7 -16673340.776 2
 90 10 22 13 15 59.9980000  0  5 02 06 12 13 09
  21573421.818     4231086.489 6   3634842.349 1
  19995523.279   -11208694.980 7    562031.519 3
  23227356.092    -5474117.506 5  -3963680.745 1
  19637232.662   -26029245.681 7 -19176539.756 2
  20090313.732   -22677458.427 7 -16696345.468 2
 90 10 22 13 16 14.9980000  0  5 02 06 12 13 09
  21577274.037     4251327.344 6   3650614.414 2
  19998228.014   -11194477.451 7    573110.107 3
  23216924.639    -5528940.380 5  -4006399.853 1
  19635434.701   -26038700.272 7 -19183906.967 2
  20084717.998   -22706858.337 7 -16719254.491 2
 90 10 22 13 16 29.9980000  0  5 02 06 12 13 09
  21581130.693     4271614.360 6   3666422.451 1
  20000959.725   -11180122.214 7    584296.004 3
  23206495.443    -5583746.324 5  -4049105.775 1
  19633659.756   -26048024.576 7 -19191172.651 2
  20079148.459   -22736139.675 7 -16742071.116 2
 90 10 22 13 16 44.9980000  0  5 02 06 12 13 09
  21585004.334     4291951.648 6   3682269.659 1
  20003720.225   -11165625.369 7    595592.242 3
  23196070.428    -5638530.891 5  -4091795.020 1
  19631911.271   -26057214.472 7 -19198333.607 2
  20073598.029   -22765298.084 7 -16764791.952 2
 90 10 22 13 16 59.9980000  0  5 02 06 12 13 09
  21588879.904     4312334.968 6   3698152.733 2
  20006505.084   -11150991.046 7    606995.601 3
  23185650.420    -5693298.040 5  -4134470.741 1
  19630187.295   -26066274.647 7 -19205393.484 2
  20068071.959   -22794337.714 7 -16787420.237 2
 90 10 22 13 17 14.9980000  0  5 02 06 12 13 09
  21592770.279     4332763.614 6   3714071.133 1
  20009313.764   -11136220.013 7    618505.492 3
  23175231.006    -5748048.220 5  -4177133.214 1
  19628487.561   -26075205.926 7 -19212352.916 2
  20062568.232   -22823258.845 7 -16809956.180 2
 90 10 22 13 17 29.9980000  0  5 02 06 12 13 09
  21596665.514     4353239.425 6   3730026.283 1
  20012153.514   -11121310.608 7    630123.198 3
  23164815.592    -5802779.338 5  -4219780.827 1
  19626812.553   -26084006.828 7 -19219210.756 2
  20057088.162   -22852059.577 7 -16832398.311 2
 90 10 22 13 17 44.9980000  0  5 02 06 12 13 09
  21600571.670     4373766.493 6   3746021.368 1
  20015015.803   -11106258.748 7    641851.907 3
  23154406.670    -5857486.920 5  -4262410.098 1
  19625163.334   -26092673.376 7 -19225963.911 2
  20051631.272   -22880735.457 7 -16854743.154 2
 90 10 22 13 17 59.9980000  0  5 02 06 12 13 09
  21604484.646     4394338.927 6   3762051.803 1
  20017907.006   -11091070.205 7    653687.126 3
  23143998.584    -5912176.596 5  -4305025.417 1
  19623539.107   -26101211.447 7 -19232616.949 2
  20046197.201   -22909291.816 7 -16876994.864 2
 90 10 22 13 18 14.9980000  0  5 02 06 12 13 09
  21608408.014     4414957.189 6   3778117.949 1
  20020822.678   -11075744.556 7    665629.182 3
  23133597.717    -5966847.712 5  -4347626.284 1
  19621938.826   -26109620.701 7 -19239169.611 2
  20040786.061   -22937727.918 7 -16899152.867 2
 90 10 22 13 18 29.9980000  0  5 02 06 12 13 09
  21612341.514     4435626.736 6   3794224.061 2
  20023766.771   -11060276.768 7    677681.993 3
  23123195.467    -6021494.789 5  -4390208.421 1
  19620363.592   -26117896.194 7 -19245618.044 2
  20035397.881   -22966038.562 7 -16921213.111 2
 90 10 22 13 18 44.9980000  0  5 02 06 12 13 09
  21616286.553     4456344.568 6   3810367.792 2
  20026735.756   -11044669.671 7    689843.355 3
  23112803.100    -6076120.130 5  -4432773.626 1
  19618813.928   -26126040.968 7 -19251964.620 2
  20030035.006   -22994225.959 7 -16943177.317 2
 90 10 22 13 18 59.9980000  0  5 02 06 12 13 09
  21620237.725     4477108.344 6   3826547.330 2
  20029731.123   -11028925.542 7    702111.492 3
  23102409.475    -6130725.965 5  -4475323.611 1
  19617287.936   -26134057.420 7 -19258211.196 2
  20024694.225   -23022292.231 7 -16965047.143 2
 90 10 22 13 19 14.9980000  0  5 02 06 12 13 09
  21624196.607     4497917.258 6   3842762.030 2
  20032754.553   -11013045.282 7    714485.712 3
  23092020.021    -6185312.733 5  -4517858.723 1
  19615787.084   -26141946.590 7 -19264358.595 2
  20019374.873   -23050238.017 7 -16986823.081 2
 90 10 22 13 19 29.9980000  0  5 02 06 12 13 09
  21628167.084     4518778.577 6   3859017.564 2
  20035803.545   -10997021.959 7    726971.408 3
  23081640.303    -6239873.129 5  -4560373.342 1
  19614312.021   -26149701.545 7 -19270401.417 2
  20014081.951   -23078055.814 7 -17008499.289 2
 90 10 22 13 19 44.9980000  0  5 02 06 12 13 09
  21632143.818     4539684.238 6   3875307.661 1
  20038879.123   -10980863.409 7    739562.476 3
  23071260.021    -6294414.898 5  -4602873.391 1
  19612859.623   -26157330.437 7 -19276346.006 2
  20008813.436   -23105753.306 7 -17030081.750 2
 90 10 22 13 19 59.9980000  0  5 02 06 12 13 09
  21636132.381     4560640.228 6   3891636.965 2
  20041980.561   -10964563.928 7    752263.361 3
  23060886.584    -6348931.829 5  -4645354.129 1
  19611432.803   -26164827.393 7 -19282187.785 2
  20003565.076   -23133324.322 7 -17051565.656 2
 90 10 22 13 20 14.9980000  0  5 02 06 12 13 09
  21640127.389     4581644.712 6   3908004.057 1
  20045109.779   -10948125.367 7    765072.616 3
  23050515.256    -6403425.539 5  -4687816.754 1
  19610030.920   -26172194.542 7 -19287928.418 2
  19998342.014   -23160770.607 7 -17072952.375 2
 90 10 22 13 20 29.9980000  0  5 02 06 12 13 09
  21644133.951     4602698.375 6   3924409.477 1
  20048263.146   -10931547.022 7    777990.793 3
  23040154.920    -6457894.876 5  -4730260.375 1
  19608653.545   -26179431.241 7 -19293567.403 2
  19993143.311   -23188090.903 7 -17094240.915 2
 90 10 22 13 20 44.9980000  0  5 02 06 12 13 09
  21648152.412     4623797.854 6   3940850.593 1
  20051443.521   -10914832.317 7    791015.222 3
  23029792.404    -6512342.908 5  -4772687.417 1
  19607300.686   -26186541.069 7 -19299107.527 2
  19987967.186   -23215288.204 7 -17115433.624 2
 90 10 22 13 20 59.9980000  0  5 02 06 12 13 09
  21652176.428     4644941.701 6   3957326.274 1
  20054648.428   -10897982.792 7    804144.711 3
  23019438.170    -6566770.793 5  -4815098.758 1
  19605971.545   -26193525.675 7 -19304550.074 2
  19982815.600   -23242363.761 7 -17136531.464 2
 90 10 22 13 21 14.9980000  0  5 02 06 12 13 09
  21656206.811     4666138.627 6   3973843.319 1
  20057882.818   -10880989.811 7    817385.979 3
  23009083.053    -6621169.707 5  -4857487.491 1
  19604667.748   -26200376.653 7 -19309888.499 2
  19977688.896   -23269308.704 7 -17157527.522 2
 90 10 22 13 21 29.9980000  0  5 02 06 12 13 09
  21660250.553     4687385.141 6   3990399.014 1
  20061144.537   -10863857.033 7    830736.185 3
  22998736.389    -6675542.824 5  -4899856.170 1
  19603387.920   -26207097.715 7 -19315125.686 2
  19972584.404   -23296126.357 7 -17178424.391 2
 90 10 22 13 21 44.9980000  0  5 02 06 12 13 09
  21664306.092     4708685.843 6   4006996.921 1
  20064431.006   -10846579.789 7    844198.956 3
  22988395.725    -6729885.269 5  -4942200.917 1
  19602135.818   -26213684.326 7 -19320258.108 2
  19967507.428   -23322811.668 7 -17199218.138 2
 90 10 22 13 21 59.9980000  0  5 02 06 12 13 09
  21668364.396     4730035.038 6   4023632.624 1
  20067745.982   -10829163.956 7    857769.724 3
  22978053.701    -6784202.541 5  -4984526.060 1
  19600906.482   -26220142.578 7 -19325290.516 2
  19962454.045   -23349369.995 7 -17219912.946 2
 90 10 22 13 22 14.9970000  0  5 02 06 12 13 09
  21672439.048     4751433.634 6   4040306.815 1
  20071086.939   -10811608.464 7    871449.319 3
  22967726.939    -6838488.305 5  -5026826.641 1
  19599702.759   -26226469.850 7 -19330220.859 2
  19957424.314   -23375797.092 7 -17240505.490 2
 90 10 22 13 22 29.9970000  0  5 02 06 12 13 09
  21676518.446     4772882.439 6   4057020.130 1
  20074454.267   -10793912.851 7    885238.095 3
  22957402.853    -6892751.441 5  -5069109.580 1
  19598522.946   -26232669.101 7 -19335051.441 2
  19952419.634   -23402098.348 7 -17260999.973 2
 90 10 22 13 22 44.9970000  0  5 02 06 12 13 09
  21680614.235     4794379.442 6   4073771.000 1
  20077846.946   -10776079.057 7    899134.547 3
  22947080.251    -6946988.634 5  -5111372.326 1
  19597367.196   -26238740.522 7 -19339782.420 2
  19947438.868   -23428271.970 7 -17281395.010 2
 90 10 22 13 22 59.9970000  0  5 02 06 12 13 09
  21684714.571     4815924.939 6   4090559.658 1
  20081267.618   -10758107.059 7    913138.690 3
  22936762.228    -7001199.582 5  -5153614.616 1
  19596236.009   -26244684.323 7 -19344413.946 2
  19942484.009   -23454317.693 7 -17301690.383 2
 90 10 22 13 23 14.9970000  0  5 02 06 12 13 09
  21688820.423     4837517.033 6   4107384.631 1
  20084714.767   -10739998.791 7    927249.013 3
  22926451.939    -7055385.719 5  -5195837.566 1
  19595129.407   -26250502.613 7 -19348947.674 1
  19937549.345   -23480237.156 7 -17321887.372 2
 90 10 22 13 23 29.9970000  0  5 02 06 12 13 09
  21692939.954     4859160.858 6   4124249.908 1
  20088185.970   -10721748.982 7    941469.624 3
  22916146.564    -7109541.636 5  -5238036.972 1
  19594046.939   -26256190.525 7 -19353379.818 2
  19932641.978   -23506024.875 7 -17341981.701 2
 90 10 22 13 23 44.9970000  0  5 02 06 12 13 09
  21697069.962     4880854.114 6   4141153.700 1
  20091684.314   -10703360.094 7    955798.614 3
  22905849.048    -7163669.217 5  -5280214.295 1
  19592988.392   -26261750.311 7 -19357712.117 2
  19927759.860   -23531682.731 7 -17361974.835 2
 90 10 22 13 23 59.9970000  0  5 02 06 12 13 09
  21701206.892     4902595.958 6   4158095.355 1
  20095210.009   -10684833.182 7    970235.155 3
  22895548.368    -7217769.279 5  -5322370.193 1
  19591955.915   -26267183.256 7 -19361945.582 2
  19922901.595   -23557211.741 7 -17381867.571 2
 90 10 22 13 24 14.9970000  0  5 02 06 12 13 09
  21705351.931     4924384.692 6   4175073.549 1
  20098762.024   -10666170.034 7    984777.849 3
  22885263.056    -7271843.169 5  -5364505.687 1
  19590944.946   -26272491.069 7 -19366081.539 2
  19918067.517   -23582612.848 7 -17401660.645 2
 90 10 22 13 24 29.9970000  0  5 02 06 12 13 09
  21709506.501     4946217.375 6   4192085.985 1
  20102339.985   -10647373.453 7    999424.514 3
  22874976.142    -7325893.241 5  -5406622.621 1
  19589959.470   -26277676.677 7 -19370122.278 2
  19913257.782   -23607888.800 7 -17421356.190 2
 90 10 22 13 24 44.9970000  0  5 02 06 12 13 09
  21713674.610     4968100.691 6   4209137.876 1
  20105942.993   -10628437.168 7   1014180.040 3
  22864697.353    -7379913.023 5  -5448715.970 1
  19588996.173   -26282733.898 7 -19374062.967 2
  19908472.665   -23633033.044 7 -17440949.106 2
 90 10 22 13 24 59.9970000  0  5 02 06 12 13 09
  21717844.751     4990028.922 6   4226224.768 1
  20109572.235   -10609366.938 7   1029039.937 3
  22854424.415    -7433907.844 5  -5490789.829 1
  19588057.626   -26287668.743 7 -19377908.301 2
  19903713.274   -23658050.649 7 -17460443.350 2
 90 10 22 13 25 14.9970000  0  5 02 06 12 13 09
  21722021.993     5012008.430 6   4243351.618 1
  20113227.970   -10590156.432 7   1044009.142 3
  22844153.478    -7487870.822 5  -5532838.908 1
  19587142.040   -26292475.034 7 -19381653.468 2
  19898977.931   -23682935.268 7 -17479833.964 2
 90 10 22 13 25 29.9970000  0  5 02 06 12 13 09
  21726217.704     5034035.928 6   4260515.850 1
  20116909.837   -10570808.936 7   1059085.093 3
  22833888.165    -7541805.059 5  -5574865.593 1
  19586250.821   -26297156.384 7 -19385301.271 2
  19894265.024   -23707689.901 7 -17499123.290 2
 90 10 22 13 25 44.9970000  0  5 02 06 12 13 09
  21730420.165     5056112.696 6   4277718.492 1
  20120615.196   -10551323.587 7   1074268.458 3
  22823631.329    -7595709.045 5  -5616868.677 1
  19585384.478   -26301711.585 7 -19388850.777 1
  19889582.001   -23732313.080 7 -17518310.191 2
 90 10 22 13 25 59.9970000  0  5 02 06 12 13 09
  21734625.626     5078235.389 6   4294956.909 1
  20124351.954   -10531703.475 7   1089556.838 3
  22813380.470    -7649585.698 5  -5658850.464 1
  19584540.946   -26306143.900 7 -19392304.533 2
  19884920.712   -23756807.366 7 -17537396.650 2
 90 10 22 13 26 14.9970000  0  5 02 06 12 13 09
  21738849.079     5100405.300 6   4312232.109 1
  20128110.618   -10511947.403 7   1104951.162 3
  22803134.282    -7703433.641 5  -5700809.908 1
  19583720.407   -26310452.464 7 -19395661.855 2
  19880284.509   -23781171.685 7 -17556381.833 2
 90 10 22 13 26 29.9970000  0  5 02 06 12 13 09
  21743076.306     5122621.377 6   4329543.293 1
  20131894.470   -10492056.683 7   1120450.408 3
  22792890.782    -7757253.577 5  -5742747.526 1
  19582925.095   -26314638.840 7 -19398923.964 2
  19875672.681   -23805406.541 7 -17575266.144 2
 90 10 22 13 26 44.9970000  0  5 02 06 12 13 09
  21747313.181     5144886.929 6   4346893.029 1
  20135706.329   -10472028.094 7   1136057.081 3
  22782656.415    -7811041.761 5  -5784660.382 1
  19582150.759   -26318699.707 7 -19402088.279 2
  19871086.876   -23829508.623 7 -17594046.993 2
 90 10 22 13 26 59.9970000  0  5 02 06 12 13 09
  21751556.587     5167202.204 6   4364281.515 1
  20139545.618   -10451861.326 7   1151771.426 3
  22772429.485    -7864797.694 5  -5826548.114 1
  19581401.438   -26322634.837 7 -19405154.616 2
  19866524.470   -23853477.282 7 -17612723.876 2
 90 10 22 13 27 14.9970000  0  5 02 06 12 13 09
  21755816.470     5189565.391 6   4381707.324 1
  20143405.993   -10431558.387 7   1167591.876 3
  22762204.274    -7918522.907 5  -5868411.900 1
  19580677.056   -26326446.457 7 -19408124.709 2
  19861988.548   -23877314.049 7 -17631297.987 2
 90 10 22 13 27 29.9970000  0  5 02 06 12 13 09
  21760082.954     5211980.925 6   4399173.923 1
  20147298.165   -10411114.895 7   1183521.849 3
  22751989.610    -7972212.659 5  -5910248.084 1
  19579975.759   -26330130.234 7 -19410995.183 1
  19857478.454   -23901014.292 7 -17649765.712 2
 90 10 22 13 27 44.9970000  0  5 02 06 12 13 09
  21764353.806     5234447.280 6   4416680.122 1
  20151214.735   -10390532.661 7   1199559.940 3
  22741774.884    -8025868.189 5  -5952057.592 1
  19579300.040   -26333688.057 7 -19413767.515 2
  19852993.204   -23924579.391 7 -17668128.129 2
 90 10 22 13 27 59.9970000  0  5 02 06 12 13 09
  21768636.774     5256963.104 6   4434224.866 1
  20155158.626   -10369813.137 7   1215705.002 3
  22731572.298    -8079490.724 6  -5993841.370 1
  19578647.282   -26337121.409 7 -19416442.854 2
  19848537.642   -23948010.307 7 -17686385.990 2
 90 10 22 13 28 14.9970000  0  5 02 06 12 13 09
  21772929.501     5279524.904 6   4451805.445 1
  20159125.767   -10348959.805 7   1231954.333 3
  22721376.165    -8133083.395 6  -6035601.903 1
  19578016.142   -26340433.939 7 -19419024.045 1
  19844101.806   -23971310.529 7 -17704542.008 2
 90 10 22 13 28 29.9970000  0  5 02 06 12 13 09
  21777235.056     5302130.690 6   4469420.295 1
  20163119.993   -10327974.978 7   1248306.125 3
  22711179.095    -8186647.839 5  -6077340.430 1
  19577407.329   -26343627.920 7 -19421512.865 2
  19839692.524   -23994481.431 7 -17722597.260 2
 90 10 22 13 28 44.9970000  0  5 02 06 12 13 09
  21781545.657     5324787.919 6   4487075.227 1
  20167139.485   -10306850.853 7   1264766.458 3
  22700993.251    -8240176.032 5  -6119050.705 1
  19576823.978   -26346696.107 7 -19423903.666 2
  19835309.368   -24017515.160 7 -17740545.624 2
 90 10 22 13 28 59.9970000  0  5 02 06 12 13 09
  21785867.415     5347496.012 6   4504769.794 1
  20171185.767   -10285588.358 7   1281334.610 3
  22690813.673    -8293668.510 6  -6160733.158 1
  19576264.103   -26349639.338 7 -19426197.096 2
  19830951.978   -24040412.530 7 -17758387.741 2
 90 10 22 13 29 14.9970000  0  5 02 06 12 13 09
  21790197.813     5370257.387 6   4522505.889 1
  20175258.243   -10264185.301 7   1298012.295 3
  22680645.267    -8347122.663 6  -6202385.725 1
  19575728.071   -26352455.396 7 -19428391.432 2
  19826620.649   -24063170.786 7 -17776121.449 2
 90 10 22 13 29 29.9970000  0  5 02 06 12 13 09
  21794537.298     5393064.316 6   4540277.481 1
  20179356.946   -10242649.435 7   1314793.467 3
  22670478.290    -8400545.744 6  -6244014.103 1
  19575215.688   -26355152.165 7 -19430492.813 2
  19822314.853   -24085797.005 7 -17793752.270 2
 90 10 22 13 29 44.9970000  0  5 02 06 12 13 09
  21798891.571     5415921.491 6   4558088.213 1
  20183479.618   -10220976.198 7   1331681.681 3
  22660314.946    -8453932.769 5  -6285614.401 1
  19574726.220   -26357725.196 7 -19432497.779 2
  19818035.743   -24108286.729 7 -17811276.733 2
 90 10 22 13 29 59.9970000  0  5 02 06 12 13 09
  21803248.907     5438827.691 6   4575937.141 1
  20187630.571   -10199166.856 7   1348675.945 3
  22650166.681    -8507284.822 6  -6327187.426 1
  19574260.454   -26360176.117 7 -19434407.588 2
  19813781.782   -24130640.671 7 -17828695.399 2
 90 10 22 13 30 14.9970000  0  5 02 06 12 13 09
  21807616.259     5461785.752 6   4593826.482 1
  20191808.728   -10177218.954 7   1365778.177 3
  22640020.095    -8560598.856 6  -6368730.825 1
  19573816.618   -26362502.350 7 -19436220.240 2
  19809554.876   -24152856.078 7 -17846006.110 2
 90 10 22 13 30 29.9970000  0  5 02 06 12 13 09
  21811993.970     5484792.136 6   4611753.491 1
  20196009.267   -10155135.936 7   1382985.701 3
  22629883.228    -8613877.987 6  -6410247.036 1
  19573396.368   -26364707.309 7 -19437938.393 1
  19805353.446   -24174935.985 7 -17863211.234 2
 90 10 22 13 30 44.9970000  0  5 02 06 12 13 09
  21816380.306     5507850.899 6   4629721.312 1
  20200238.696   -10132913.883 7   1400301.565 3
  22619751.321    -8667117.883 6  -6451732.665 1
  19573000.220   -26366787.404 7 -19439559.246 2
  19801178.149   -24196875.921 7 -17880307.291 2
 90 10 22 13 30 59.9970000  0  5 02 06 12 13 09
  21820781.735     5530955.663 6   4647724.968 1
  20204490.899   -10110559.478 7   1417720.559 3
  22609628.478    -8720324.660 6  -6493192.485 1
  19572627.337   -26368749.413 7 -19441088.082 1
  19797028.267   -24218682.359 7 -17897299.325 2
 90 10 22 13 31 14.9970000  0  5 02 06 12 13 09
  21825185.126     5554109.529 6   4665766.881 1
  20208773.079   -10088069.547 7   1435245.154 3
  22599507.743    -8773494.836 6  -6534623.803 1
  19572276.853   -26370590.324 7 -19442522.562 2
  19792905.501   -24240351.843 7 -17914184.645 2
 90 10 22 13 31 29.9970000  0  5 02 06 12 13 09
  21829603.056     5577313.000 6   4683847.456 1
  20213076.509   -10065443.862 7   1452875.535 3
  22589394.774    -8826627.602 6  -6576025.937 1
  19571949.954   -26372309.967 7 -19443862.540 1
  19788807.181   -24261883.607 7 -17930962.647 2
 90 10 22 13 31 44.9970000  0  5 02 06 12 13 09
  21834026.118     5600565.513 6   4701966.242 1
  20217408.321   -10042683.147 7   1470611.129 3
  22579293.298    -8879723.130 6  -6617399.083 1
  19571645.899   -26373908.969 7 -19445108.519 2
  19784737.071   -24283278.080 7 -17947633.668 2
 90 10 22 13 31 59.9970000  0  5 02 06 12 13 09
  21838458.813     5623868.389 6   4720124.279 1
  20221766.118   -10019785.950 7   1488453.072 3
  22569198.556    -8932779.848 6  -6658741.966 1
  19571365.790   -26375386.186 7 -19446259.602 2
  19780691.657   -24304533.682 7 -17964196.478 2
 90 10 22 13 32 14.9970000  0  5 02 06 12 13 09
  21842903.032     5647223.335 6   4738322.876 1
  20226148.907    -9996750.749 7   1506402.557 3
  22559108.517    -8985795.666 6  -6700053.003 1
  19571107.321   -26376740.036 7 -19447314.557 2
  19776674.157   -24325648.389 7 -17980649.505 2
 90 10 22 13 32 29.9970000  0  5 02 06 12 13 09
  21847358.228     5670627.272 6   4756559.654 1
  20230558.103    -9973580.937 7   1524456.922 3
  22549026.399    -9038773.439 5  -6741334.376 1
  19570872.985   -26377973.986 7 -19448276.082 2
  19772682.478   -24346625.040 7 -17996994.951 2
 90 10 22 13 32 44.9970000  0  5 02 06 12 13 09
  21851823.321     5694082.794 6   4774836.640 1
  20234992.618    -9950273.930 7   1542618.198 3
  22538951.743    -9091710.279 5  -6782583.862 1
  19570660.501   -26379085.644 7 -19449142.313 2
  19768718.204   -24367460.537 7 -18013230.409 2
 90 10 22 13 32 59.9970000  0  5 02 06 12 13 09
  21856295.681     5717588.521 6
  20239453.314    -9926831.224 7
  22528887.321    -9144607.261 6  -6823802.280 1
  19570473.071   -26380076.874 7 -19449914.706 1
  19764778.618   -24388156.367 7 -18029357.036 2
 90 10 22 13 33 14.9970000  0  5 02 06 12 13 09
  21860778.509     5741139.690 6
  20243940.157    -9903257.623 7
  22518827.259    -9197468.840 5  -6864993.125 1
  19570303.946   -26380952.574 7 -19450597.073 1
  19760866.360   -24408716.873 7 -18045378.220 2
 90 10 22 13 33 29.9970000  0  5 02 06 12 13 09
  21865268.329     5764739.330 6   4829893.513 1
  20248451.235    -9879550.510 7   1597727.278 3
  22508776.954    -9250291.702 6  -6906153.790 1
  19570160.798   -26381709.986 7 -19451187.270 1
  19756980.376   -24429138.960 7 -18061291.539 2
 90 10 22 13 33 44.9970000  0  5 02 06 12 13 09
  21869768.126     5788392.491 6   4848324.488 1
  20252990.079    -9855704.745 7   1616308.366 3
  22498734.884    -9303070.428 5  -6947280.065 1
  19570040.071   -26382344.103 7 -19451681.388 1
  19753122.048   -24449417.290 7 -18077092.843 2
 90 10 22 13 33 59.9970000  0  5 02 06 12 13 09
  21874277.954     5812094.880 6   4866793.827 1
  20257552.970    -9831724.752 7   1634994.050 3
  22488696.892    -9355808.922 5  -6988374.986 1
  19569941.423   -26382859.394 7 -19452082.919 1
  19749288.392   -24469555.833 7 -18092785.222 2
 90 10 22 13 34 14.9970000  0  5 02 06 12 13 09
  21878802.196     5835847.562 6   4885302.346 1
  20262140.962    -9807609.797 7   1653784.904 3
  22478671.720    -9408505.795 6  -7029437.481 1
  19569866.063   -26383255.251 7 -19452391.384 1
  19745483.376   -24489553.323 7 -18108367.685 2
 90 10 22 13 34 29.9970000  0  5 02 06 12 13 09
  21883331.540     5859650.008 6   4903849.650 1
  20266755.204    -9783360.664 7   1672680.308 3
  22468650.267    -9461161.559 6  -7070467.940 1
  19569816.931   -26383532.494 7 -19452607.427 2
  19741704.571   -24509410.381 7 -18123840.722 2
 90 10 22 13 34 44.9970000  0  5 02 06 12 13 09
  21887864.735     5883502.064 6   4922435.609 1
  20271395.212    -9758977.327 7   1691680.286 3
  22458639.110    -9513776.004 6  -7111466.214 1
  19569784.360   -26383691.170 7
  19737953.993   -24529126.641 7 -18139204.051 2
 90 10 22 13 34 59.9970000  0  5 02 06 12 13 09
  21892412.509     5907402.125 6   4941058.977 1
  20276061.548    -9734461.745 7   1710783.312 3
  22448631.485    -9566350.351 6  -7152433.238 1
  19569777.189   -26383733.406 7
  19734227.259   -24548703.398 7 -18154458.677 2
 90 10 22 13 35 14.9970000  0  5 02 06 12 13 09
  21896975.181     5931352.752 6   4959721.751 1
  20280752.157    -9709811.181 7   1729991.517 3
  22438640.243    -9618881.515 6  -7193366.619 1
  19569789.806   -26383656.915 7
  19730528.517   -24568138.003 7 -18169602.534 2
 90 10 22 13 35 29.9970000  0  5 02 06 12 13 09
  21901539.157     5955351.162 6   4978421.748 1
  20285469.087    -9685029.014 7   1749302.269 3
  22428647.774    -9671372.198 6  -7234268.443 1
  19569825.907   -26383464.645 7
  19726858.220   -24587433.025 7 -18184637.624 2
 90 10 22 13 35 44.9970000  0  5 02 06 12 13 09
  21906114.454     5979396.017 6   4997157.938 1
  20290208.712    -9660116.401 7   1768714.664 3
  22418669.399    -9723823.269 6  -7275139.423 1
  19569887.274   -26383158.305 7
  19723212.493   -24606589.434 7 -18199564.706 2
 90 10 22 13 35 59.9970000  0  5 02 06 12 13 09
  21910700.399     6003490.510 6   5015932.794 1
  20294975.314    -9635070.380 7   1788231.015 3
  22408696.126    -9776231.315 6  -7315976.855 1
  19569966.587   -26382734.720 7        -0.34211
  19719593.587   -24625604.073 7 -18214381.321 2
 90 10 22 13 36 14.9970000  0  5 02 06 12 13 09
  21915295.329     6027635.789 6   5034747.240 1
  20299767.618    -9609889.988 7   1807852.069 3
  22398733.251    -9828594.844 6  -7356779.605 1
  19570071.063   -26382193.019 7       421.759 1
  19716003.103   -24644475.443 7 -18229086.295 2
 90 10 22 13 36 29.9970000  0  5 02 06 12 13 09
  21919899.204     6051830.357 6   5053600.089 1
  20304584.509    -9584577.110 7   1827576.356 3
  22388773.821    -9880915.200 6  -7397548.717 1
  19570193.665   -26381535.212 7       934.329 1
  19712439.048   -24663204.873 7 -18243680.665 2
 90 10 22 13 36 44.9970000  0  5 02 06 12 13 09
  21924513.493     6076076.828 6   5072493.370 1
  20309425.251    -9559128.951 7   1847406.060 3
  22378828.704    -9933189.328 6  -7438281.801 1
  19570340.376   -26380758.669 7      1539.418 1
  19708902.610   -24681789.376 7 -18258162.111 2
 90 10 22 13 36 59.9970000  0  5 02 06 12 13 09
  21929135.845     6100376.585 6   5091428.180 1
  20314294.665    -9533544.431 7   1867342.020 3
  22368888.571    -9985415.613 6  -7478977.608 1
  19570513.884   -26379862.364 7      2237.829 1
  19705392.368   -24700227.483 7 -18272529.476 2
 90 10 22 13 37 14.9970000  0  5 02 06 12 13 09
  21933769.212     6124725.432 6   5110401.245 1
  20319188.415    -9507827.765 7   1887380.954 3
  22358956.806   -10037597.835 6  -7519639.090 1
  19570705.001   -26378850.559 7      3026.237 1
  19701912.978   -24718523.191 7 -18286785.882 2
 90 10 22 13 37 29.9970000  0  5 02 06 12 13 09
  21938412.837     6149121.666 6   5129411.240 1
  20324107.282    -9481980.866 7   1907521.366 3
  22349036.087   -10089737.308 6  -7560267.247 1
  19570920.610   -26377725.358 7      3903.008 1
  19698456.892   -24736677.750 7 -18300932.300 2
 90 10 22 13 37 44.9970000  0  5 02 06 12 13 09
  21943064.017     6173571.096 6   5148462.675 1
  20329050.524    -9455998.160 7   1927767.598 3
  22339124.571   -10141828.128 6  -7600857.511 1
  19571156.189   -26376481.145 7      4872.512 1
  19695031.314   -24754685.297 7 -18314964.165 2
 90 10 22 13 37 59.9970000  0  5 02 06 12 13 09
  21947727.696     6198070.426 6   5167552.987 1
  20334021.329    -9429883.077 7   1948116.988 3
  22329219.462   -10193872.991 6  -7641411.943 1
  19571414.946   -26375121.368 7      5932.070 1
  19691631.470   -24772548.926 7 -18328883.881 2
 90 10 22 13 38 14.9970000  0  5 02 06 12 13 09
  21952399.048     6222621.234 6   5186683.419 1
  20339015.564    -9403634.091 7   1968570.710 3
  22319325.188   -10245869.996 6  -7681929.101 1
  19571695.267   -26373644.750 7      7082.674 1
  19688260.056   -24790266.916 7 -18342690.114 2
 90 10 22 13 38 29.9970000  0  5 02 06 12 13 09
  21957083.353     6247224.348 6   5205854.609 1
  20344036.978    -9377250.772 7   1989129.104 3
  22309438.267   -10297818.214 6  -7722408.224 1
  19571999.735   -26372050.870 7      8324.645 1
  19684915.782   -24807838.181 7 -18356382.019 2
 90 10 22 13 38 44.9970000  0  5 02 06 12 13 09
  21961774.095     6271874.806 6   5225062.691 1
  20349081.923    -9350737.948 7   2009788.416 3
  22299562.228   -10349722.183 6  -7762852.877 1
  19572325.314   -26370344.942 7      9653.942 2
  19681598.735   -24825267.444 7 -18369963.270 2
 90 10 22 13 38 59.9970000  0  5 02 06 12 13 09
  21966468.626     6296576.594 6   5244310.776 1
  20354152.767    -9324092.077 7   2030551.407 3
  22289693.071   -10401577.619 6  -7803259.704 1
  19572670.165   -26368523.289 7     11073.402 1
  19678310.079   -24842550.466 7 -18383430.571 2
 90 10 22 13 39 14.9970000  0  5 02 06 12 13 09
  21971185.564     6321330.016 6   5263599.078 1
  20359247.759    -9297312.861 7   2051418.297 3
  22279831.556   -10453383.850 6  -7843628.197 1
  19573040.306   -26366585.703 7     12583.206 1
  19675050.001   -24859686.767 7 -18396783.547 2
 90 10 22 13 39 29.9970000  0  5 02 06 12 13 09
  21975903.110     6346134.229 6   5282926.970 1
  20364369.079    -9270401.258 7   2072388.345 3
  22269988.290   -10505141.233 6  -7883958.630 1
  19573430.384   -26364533.275 7     14182.491 1
  19671817.110   -24876676.960 7 -18410022.674 2
 90 10 22 13 39 44.9970000  0  5 02 06 12 13 09
  21980632.845     6370986.699 6   5302292.463 1
  20369516.345    -9243360.085 7   2093459.364 3
  22260145.556   -10556852.175 6  -7924252.869 1
  19573841.829   -26362368.790 7     15869.093 2
  19668610.196   -24893523.305 7 -18423149.707 1
 90 10 22 13 39 59.9970000  0  5 02 06 12 13 09
  21985372.743     6395888.129 6   5321696.103 1
  20374684.110    -9216188.740 7   2114631.808 3
  22250313.603   -10608515.701 6  -7964510.179 1
  19574274.040   -26360091.702 7     17643.437 2
  19665432.384   -24910225.010 7 -18436164.034 2
 90 10 22 13 40 14.9970000  0  5 02 06 12 13 09
  21990117.649     6420845.919 6   5341143.661 1
  20379883.634    -9188880.102 7   2135911.234 3
  22240497.267   -10660124.028 6  -8004724.453 1
  19574731.548   -26357694.880 7     19511.083 1
  19662283.774   -24926774.428 7 -18449059.698 2
 90 10 22 13 40 29.9970000  0  5 02 06 12 13 09
  21994877.790     6445852.469 6   5360629.207 1
  20385103.204    -9161441.743 7   2157291.739 3
  22230684.204   -10711684.546 6  -8044901.491 1
  19575208.563   -26355186.585 7     21465.583 2
  19659161.446   -24943178.912 7 -18461842.424 2
 90 10 22 13 40 44.9970000  0  5 02 06 12 13 09
  21999651.188     6470910.386 6   5380154.781 1
  20390351.321    -9133871.412 7   2178775.083 3
  22220881.103   -10763194.309 6  -8085038.969 1
  19575708.142   -26352564.011 7     23509.142 2
  19656067.009   -24959435.805 7 -18474510.139 2
 90 10 22 13 40 59.9970000  0  5 02 06 12 13 09
  22004419.649     6496018.662 6   5399719.603 1
  20395622.884    -9106170.323 7   2200360.311 3
  22211089.517   -10814653.802 6  -8125137.275 1
  19576228.618   -26349828.388 7     25640.781 2
  19653002.017   -24975545.815 7 -18487063.409 2
 90 10 22 13 41 14.9970000  0  5 02 06 12 13 09
  22009210.228     6521176.184 6   5419322.798 1
  20400917.860    -9078339.575 7   2222046.571 3
  22201305.696   -10866063.962 6  -8165197.149 1
  19576768.931   -26346981.278 7     27859.297 2
  19649964.813   -24991509.928 7 -18499502.987 2
 90 10 22 13 41 29.9970000  0  5 02 06 12 13 09
  22014012.962     6546389.502 6   5438969.478 1
  20406239.485    -9050372.953 7   2243838.708 3
  22191532.923   -10917417.888 6  -8205213.205 1
  19577334.579   -26344016.593 7     30169.434 2
  19646956.056   -25007321.363 7 -18511823.593 2
 90 10 22 13 41 44.9970000  0  5 02 06 12 13 09
  22018820.446     6571650.436 6   5458653.248 1
  20411585.876    -9022278.858 7   2265730.177 3
  22181771.915   -10968723.483 6  -8245191.592 1
  19577920.603   -26340942.662 7     32564.696 1
  19643974.235   -25022988.239 7 -18524031.564 2
 90 10 22 13 41 59.9970000  0  5 02 06 12 13 09
  22023634.431     6596960.536 6   5478375.329 1
  20416957.235    -8994055.670 7   2287722.236 3
  22172019.634   -11019978.614 6  -8285130.653 1
  19578525.532   -26337758.133 7     35046.135 2
  19641019.376   -25038508.423 7 -18536125.220 2
 90 10 22 13 42 14.9970000  0  5 02 06 12 13 09
  22028462.954     6622321.843 6   5498137.312 1
  20422353.743    -8965701.738 7   2309816.170 3
  22162274.884   -11071181.094 6  -8325028.705 1
  19579153.181   -26334461.230 7     37615.145 1
  19638095.524   -25053880.132 7 -18548103.190 2
 90 10 22 13 42 29.9970000  0  5 02 06 12 13 09
  22033294.798     6647736.423 6   5517940.810 1
  20427773.188    -8937215.128 7   2332013.498 3
  22152540.157   -11122328.601 6  -8364883.918 1
  19579801.798   -26331050.086 7     40273.165 2
  19635199.368   -25069100.944 7 -18559963.576 2
 90 10 22 13 42 44.9970000  0  5 02 06 12 13 09
  22038142.017     6673197.443 6   5537780.489 1
  20433217.454    -8908602.784 7   2354308.805 3
  22142818.899   -11173427.409 6  -8404701.177 1
  19580472.118   -26327531.732 7     43014.729 2
  19632331.462   -25084177.223 7 -18571711.334 2
 90 10 22 13 42 59.9970000  0  5 02 06 12 13 09
  22043001.064     6698710.707 6   5557660.881 1
  20438687.337    -8879859.222 7   2376706.355 3
  22133103.313   -11224471.698 6  -8444475.950 1
  19581162.626   -26323901.001 7     45843.858 2
  19629490.399   -25099103.279 7 -18583342.037 2
 90 10 22 13 43 14.9970000  0  5 02 06 12 13 09
  22047865.548     6724270.822 6   5577577.767 1
  20444181.532    -8850990.029 7   2399201.795 3
  22123398.071   -11275466.514 6  -8484212.167 1
  19581873.946   -26320163.365 7     48756.289 2
  19626677.384   -25113884.507 7 -18594859.893 2
 90 10 22 13 43 29.9970000  0  5 02 06 12 13 09
  22052738.946     6749885.204 6   5597536.954 1
  20449700.024    -8821988.057 7   2421800.699 3
  22113707.149   -11326403.981 6  -8523903.715 1
  19582606.556   -26316311.631 7     51757.629 2
  19623894.392   -25128512.837 7 -18606258.606 2
 90 10 22 13 43 44.9970000  0  5 02 06 12 13 09
  22057619.813     6775551.726 6   5617536.764 1
  20455243.931    -8792855.410 7   2444501.425 3
  22104024.009   -11377285.877 6  -8563551.954 1
  19583360.189   -26312348.144 7     54846.042 2
  19621139.251   -25142990.432 7 -18617539.865 2
 90 10 22 13 43 59.9970000  0  5 02 06 12 13 09
  22062513.696     6801268.020 6   5637575.354 1
  20460812.993    -8763594.404 7   2467302.170 3
  22094351.962   -11428114.163 6  -8603158.422 1
  19584136.017   -26308275.238 7     58019.728 2
  19618412.735   -25157319.382 7 -18628705.293 2
 90 10 22 13 44 14.9970000  0  5 02 06 12 13 09
  22067420.665     6827036.558 6   5657654.667 1
  20466405.704    -8734203.117 7   2490204.431 3
  22084689.024   -11478886.141 6  -8642721.015 1
  19584932.157   -26304090.791 7     61280.321 2
  19615713.603   -25171496.945 7 -18639752.763 2
 90 10 22 13 44 29.9970000  0  5 02 06 12 13 09
  22072328.118     6852857.592 6   5677774.882 1
  20472024.032    -8704681.374 7   2513208.347 3
  22075039.009   -11529601.234 6  -8682239.275 1
  19585749.821   -26299794.958 7     64627.705 2
  19613045.649   -25185522.784 7 -18650681.997 2
 90 10 22 13 44 44.9970000  0  5 02 06 12 13 09
  22077256.993     6878729.450 6   5697934.693 1
  20477664.618    -8675031.066 7   2536312.443 3
  22065398.493   -11580260.884 6  -8721714.340 1
  19586587.907   -26295389.645 7     68060.401 2
  19610404.103   -25199398.602 7 -18661494.335 2
 90 10 22 13 44 59.9970000  0  5 02 06 12 13 09
  22082188.556     6904650.896 6   5718133.152 1
  20483332.540    -8645253.558 7   2559515.657 3
  22055770.696   -11630865.783 6  -8761146.743 1
  19587446.423   -26290876.300 7     71577.278 2
  19607792.110   -25213125.183 7 -18672190.385 2
 90 10 22 13 45 14.9970000  0  5 02 06 12 13 09
  22087132.728     6930623.876 6   5738371.763 1
  20489022.134    -8615347.415 7   2582819.110 3
  22046152.478   -11681413.860 6  -8800534.865 1
  19588326.704   -26286253.598 7     75179.370 2
  19605209.345   -25226700.527 7 -18682768.589 2
 90 10 22 13 45 29.9970000  0  5 02 06 12 13 09
  22092079.282     6956646.038 6   5758648.697 1
  20494737.610    -8585314.865 7   2606221.066 3
  22036539.993   -11731907.059 6  -8839880.232 1
  19589226.728   -26281523.967 7     78864.783 2
  19602655.470   -25240126.748 7 -18693230.594 2
 90 10 22 13 45 44.9970000  0  5 02 06 12 13 09
  22097042.251     6982716.339 6   5778963.138 1
  20500476.126    -8555157.214 7   2629720.502 3
  22026944.509   -11782345.974 6  -8879183.276 1
  19590147.118   -26276688.842 7     82632.404 2
  19600127.524   -25253404.967 7 -18703577.274 2
 90 10 22 13 45 59.9970000  0  5 02 06 12 13 09
  22102014.282     7008839.508 6   5799318.772 1
  20506239.360    -8524869.833 7   2653321.025 3
  22017357.571   -11832725.419 6  -8918440.001 1
  19591088.290   -26271743.553 7     86485.859 2
  19597629.688   -25266529.879 7 -18713804.492 2
 90 10 22 13 46 14.9970000  0  5 02 06 12 13 09
  22106996.189     7035013.418 6   5819713.944 1
  20512029.204    -8494455.232 7   2677020.681 3
  22007779.853   -11883047.389 6  -8957651.938 1
  19592048.899   -26266690.494 7     90423.298 2
  19595162.470   -25279503.400 7 -18723913.744 2
 90 10 22 13 46 29.9970000  0  5 02 06 12 13 09
  22111982.571     7061238.579 6   5840149.057 1
  20517841.368    -8463912.841 7   2700819.912 3
  21998214.892   -11933310.949 6  -8996818.360 1
  19593029.946   -26261529.325 7     94444.977 2
  19592722.345   -25292325.150 7 -18733904.735 2
 90 10 22 13 46 44.9970000  0  5 02 06 12 13 09
  22116983.024     7087515.399 6   5860624.423 1
  20523677.392    -8433242.512 7   2724718.824 3
  21988660.993   -11983515.301 6  -9035938.646 1
  19594034.821   -26256259.949 7     98550.968 2
  19590310.712   -25304994.341 7 -18743776.848 1
 90 10 22 13 46 59.9970000  0  5 02 06 12 13 09
  22121996.563     7113843.260 6   5881139.562 1
  20529537.634    -8402445.437 7   2748716.500 3
  21979121.274   -12033660.894 6  -9075013.145 1
  19595056.649   -26250883.483 7    102740.402 2
  19587928.931   -25317511.542 7 -18753530.524 1
 90 10 22 13 47 14.9970000  0  5 02 06 12 13 09
  22127014.626     7140217.758 6   5901691.036 1
  20535421.282    -8371526.090 7   2772809.452 3
  21969588.103   -12083751.872 6  -9114045.087 1
  19596100.540   -26245404.754 7    107009.528 2
  19585574.509   -25329881.319 7 -18763169.326 2
 90 10 22 13 47 29.9970000  0  5 02 06 12 13 09
  22132043.423     7166644.073 6   5922282.898 1
  20541328.524    -8340479.314 7   2797001.703 3
  21960065.165   -12133782.568 6  -9153030.052 1
  19597162.282   -26239818.612 7    111362.344 2
  19583250.056   -25342097.895 7 -18772688.754 1
 90 10 22 13 47 44.9970000  0  5 02 06 12 13 09
  22137082.071     7193121.055 6   5942914.223 1
  20547261.634    -8309306.325 7   2821292.294 3
  21950557.056   -12183753.711 6  -9191968.603 1
  19598246.563   -26234126.167 7    115798.001 2
  19580955.079   -25354162.197 7 -18782089.526 2
 90 10 22 13 47 59.9970000  0  5 02 06 12 13 09
  22142131.806     7219649.448 6   5963585.621 1
  20553217.673    -8278006.813 7   2845681.484 3
  21941059.095   -12233664.215 6  -9230859.914 1
  19599350.267   -26228327.116 7    120316.732 2
  19578688.337   -25366073.418 7 -18791371.010 2
 90 10 22 13 48 14.9970000  0  5 02 06 12 13 09
  22147189.407     7246230.550 6   5984298.085 1
  20559197.181    -8246579.564 7   2870170.210 3
  21931573.548   -12283512.368 6  -9269702.640 1
  19600474.259   -26222420.525 7    124919.256 2
  19576450.540   -25377829.953 7 -18800531.966 2
 90 10 22 13 48 29.9970000  0  5 02 06 12 13 09
  22152255.165     7272864.901 6   6005052.044 1
  20565202.220    -8215024.098 7   2894758.845 3
  21922100.696   -12333297.336 6  -9308496.131 1
  19601617.868   -26216406.041 7    129605.855 2
  19574242.821   -25389431.237 7 -18809571.940 2
 90 10 22 13 48 44.9970000  0  5 02 06 12 13 09
  22157331.993     7299551.675 6   6025846.850 1
  20571230.837    -8183341.757 7   2919446.343 3
  21912638.017   -12383019.699 6  -9347240.841 1
  19602784.282   -26210284.583 7    134375.810 2
  19572063.923   -25400878.016 7 -18818491.525 2
 90 10 22 13 48 59.9970000  0  5 02 06 12 13 09
  22162423.954     7326288.754 6   6046680.849 1
  20577284.829    -8151534.730 7   2944230.994 3
  21903189.618   -12432681.293 6  -9385938.193 1
  19603968.337   -26204058.725 7    139227.112 2
  19569915.899   -25412172.046 7 -18827292.084 2
 90 10 22 13 49 14.9970000  0  5 02 06 12 13 09
  22167517.001     7353079.911 6   6067556.996 1
  20583361.181    -8119599.548 7   2969115.502 3
  21893749.024   -12482277.962 6  -9424584.954 1
  19605172.899   -26197725.088 7    144162.398 2
  19567795.438   -25423309.555 7 -18835970.676 2
 90 10 22 13 49 29.9970000  0  5 02 06 12 13 09
  22172630.540     7379924.997 6   6088475.161 1
  20589462.501    -8087536.605 7   2994099.571 3
  21884324.548   -12531809.516 6  -9463180.982 1
  19606399.087   -26191284.310 7    149181.166 2
  19565706.298   -25434290.758 7 -18844527.473 2
 90 10 22 13 49 44.9970000  0  5 02 06 12 13 09
  22177747.532     7406817.594 6   6109430.352 1
  20595587.103    -8055352.557 7   3019178.003 3
  21874911.837   -12581282.106 6  -9501731.065 1
  19607644.165   -26184742.822 7    154278.412 2
  19563646.149   -25445121.645 7 -18852967.145 2
 90 10 22 13 49 59.9970000  0  5 02 06 12 13 09
  22182872.313     7433758.283 6   6130423.001 1
  20601735.243    -8023046.970 7   3044351.138 3
  21865509.743   -12630694.739 6  -9540234.427 1
  19608907.673   -26178100.361 7    159454.346 2
  19561613.485   -25455801.495 7 -18861289.121 2
 90 10 22 13 50 14.9970000  0  5 02 06 12 13 09
  22188008.134     7460753.366 6   6151458.051 1
  20607906.782    -7990613.485 7   3069623.941 3
  21856118.728   -12680040.651 6  -9578685.792 1
  19610192.673   -26171350.711 7    164713.793 2
  19559610.228   -25466323.917 7 -18869488.430 1
 90 10 22 13 50 29.9970000  0  5 02 06 12 13 09
  22193162.892     7487803.125 6   6172535.690 1
  20614102.267    -7958052.340 7   3094996.210 3
  21846741.970   -12729319.265 6  -9617084.725 1
  19611497.243   -26164494.188 7    170056.521 2
  19557637.931   -25476688.163 7 -18877564.488 2
 90 10 22 13 50 44.9970000  0  5 02 06 12 13 09
  22198314.024     7514904.314 6   6193653.418 1
  20620323.173    -7925366.729 7   3120465.466 2
  21837375.892   -12778533.266 6  -9655433.312 1
  19612821.040   -26157533.811 7    175480.173 2
  19555695.915   -25486897.462 7 -18885519.804 2
 90 10 22 13 50 59.9970000  0  5 02 06 12 13 09
  22203484.806     7542056.865 6   6214811.159 1
  20626565.696    -7892557.034 7   3146031.411 2
  21828020.126   -12827682.575 6  -9693731.491 1
  19614165.493   -26150469.971 7    180984.443 2
  19553783.345   -25496951.828 7 -18893354.389 2
 90 10 22 13 51 14.9970000  0  5 02 06 12 13 09
  22208661.392     7569263.503 5   6236011.041 1
  20632832.415    -7859620.976 7   3171695.822 2
  21818681.696   -12876764.295 6  -9731976.997 1
  19615529.548   -26143300.737 7    186570.840 2
  19551899.306   -25506848.577 7 -18901066.161 2
 90 10 22 13 51 29.9970000  0  5 02 06 12 13 09
  22213854.235     7596520.501 6   6257250.169 1
  20639125.071    -7826562.411 7   3197455.697 2
  21809354.438   -12925781.587 6  -9770172.306 1
  19616912.806   -26136029.713 7    192236.555 2
  19550045.829   -25516591.167 7 -18908657.810 2
 90 10 22 13 51 44.9970000  0  5 02 06 12 13 09
  22219042.688     7623829.426 5   6278529.766 1
  20645438.907    -7793379.712 7   3223312.304 2
  21800040.024   -12974732.558 6  -9808315.939 1
  19618316.782   -26128655.575 7    197982.615 2
  19548221.431   -25526177.712 7 -18916127.859 2
 90 10 22 13 51 59.9970000  0  5 02 06 12 13 09
  22224249.001     7651188.353 6   6299848.319 1
  20651776.923    -7760075.402 7   3249263.667 2
  21790737.728   -13023619.009 6  -9846409.296 1
  19619738.860   -26121180.783 7    203807.113 2
  19546426.540   -25535610.212 7 -18923477.876 2
 90 10 22 13 52 14.9970000  0  5 02 06 12 13 09
  22229471.470     7678598.724 6   6321206.957 1
  20658137.071    -7726648.086 7   3275310.879 3
  21781445.978   -13072438.887 6  -9884450.772 1
  19621181.017   -26113604.111 7    209710.989 2
  19544661.446   -25544886.897 7 -18930706.480 2
 90 10 22 13 52 29.9970000  0  5 02 06 12 13 09
  22234692.485     7706063.147 6   6342607.712 1
  20664523.603    -7693095.396 7   3301455.777 3
  21772170.993   -13121189.329 6  -9922438.141 1
  19622644.103   -26105923.155 7    215696.129 2
  19542926.173   -25554004.980 7 -18937811.500 2
 90 10 22 13 52 44.9970000  0  5 02 06 12 13 09
  22239929.001     7733580.799 6   6364049.956 1
  20670931.071    -7659418.272 7   3327697.641 3
  21762909.306   -13169870.688 6  -9960371.676 1
  19624124.345   -26098138.877 7    221761.777 2
  19541220.767   -25562965.379 7 -18944793.646 2
 90 10 22 13 52 59.9970000  0  5 02 06 12 13 09
  22245178.212     7761153.281 6   6385534.904 1
  20677364.337    -7625615.347 7   3354037.536 3
  21753654.782   -13218480.992 6  -9998249.850 1
  19625625.251   -26090250.025 7    227908.916 2
  19539546.610   -25571765.979 7 -18951651.283 2
 90 10 22 13 53 14.9970000  0  5 02 06 12 13 09
  22250427.564     7788774.820 5   6407058.090 1
  20683818.665    -7591692.746 7   3380470.675 2
  21744416.610   -13267025.896 6 -10036077.058 1
  19627145.157   -26082262.768 7    234132.735 2
  19537900.235   -25580412.674 7 -18958388.988 2
 90 10 22 13 53 29.9970000  0  5 02 06 12 13 09
  22255695.235     7816448.775 5   6428622.101 1
  20690298.290    -7557647.191 7   3406999.633 2
  21735192.353   -13315501.574 6 -10073850.330 1
  19628684.688   -26074173.723 7    240435.869 2
  19536285.392   -25588902.031 7 -18965004.092 1
 90 10 22 13 53 44.9970000  0  5 02 06 12 13 09
  22260973.345     7844174.511 6   6450226.484 1
  20696799.821    -7523479.877 7   3433623.461 2
  21725980.579   -13363908.376 6 -10111569.929 1
  19630242.579   -26065984.222 7    246817.279 2
  19534699.524   -25597234.475 7 -18971496.926 1
 90 10 22 13 53 59.9970000  0  5 02 06 12 13 09
  22266261.103     7871951.298 6   6471870.642 1
  20703323.376    -7489191.531 7   3460341.613 2
  21716785.251   -13412246.516 6 -10149236.023 1
  19631819.962   -26057695.004 7    253276.394 2
  19533143.993   -25605410.548 7 -18977867.916 1
 90 10 22 13 54 14.9970000  0  5 02 06 12 13 09
  22271557.978     7899778.196 6   6493553.838 1
  20709871.243    -7454783.129 7   3487153.307 2
  21707600.532   -13460516.622 6 -10186849.107 1
  19633416.767   -26049307.156 7    259812.354 2
  19531617.501   -25613431.021 7 -18984117.659 2
 90 10 22 13 54 29.9970000  0  5 02 06 12 13 09
  22276861.759     7927656.324 6   6515276.954 1
  20716442.251    -7420254.001 7   3514059.080 2
  21698425.790   -13508717.285 6 -10224408.081 1
  19635031.243   -26040820.152 7    266425.589 2
  19530120.579   -25621294.813 7 -18990245.308 1
 90 10 22 13 54 44.9970000  0  5 02 06 12 13 09
  22282175.907     7955588.220 6   6537041.974 1
  20723036.063    -7385601.816 6   3541060.735 2
  21689266.907   -13556845.572 6 -10261910.657 1
  19636665.954   -26032231.645 7    273117.902 2
  19528654.907   -25628999.047 7 -18996248.630 2
 90 10 22 13 54 59.9970000  0  5 02 06 12 13 09
  22287499.368     7983570.634 6   6558846.350 1
  20729653.782    -7350830.080 7   3568155.548 2
  21680122.821   -13604904.442 6 -10299359.141 1
  19638317.954   -26023544.877 7    279886.793 2
  19527217.899   -25636546.946 7 -19002130.131 2
 90 10 22 13 55 14.9970000  0  5 02 06 12 13 09
  22292838.142     8011603.281 6   6580689.877 1
  20736293.454    -7315939.065 7   3595343.299 2
  21670989.782   -13652893.641 6 -10336753.341 1
  19639989.782   -26014760.445 7    286731.780 2
  19525812.274   -25643938.558 7 -19007889.848 2
 90 10 22 13 55 29.9970000  0  5 02 06 12 13 09
  22298178.610     8039687.190 6   6602573.353 1
  20742955.774    -7280928.303 7   3622624.365 2
  21661872.243   -13700811.942 6 -10374092.300 1
  19641680.196   -26005877.776 7    293653.317 2
  19524435.212   -25651173.058 7 -19013527.144 2
 90 10 22 13 55 44.9970000  0  5 02 06 12 13 09
  22303536.423     8067821.763 6   6624496.282 1
  20749641.001    -7245798.581 7   3649998.121 2
  21652767.228   -13748659.723 6 -10411376.293 1
  19643389.564   -25996898.011 7    300650.516 2
  19523089.063   -25658250.641 7 -19019042.166 2
 90 10 22 13 55 59.9970000  0  5 02 06 12 13 09
  22308896.774     8096008.658 5   6646460.007 1
  20756349.196    -7210548.282 7   3677465.831 2
  21643676.126   -13796434.794 6 -10448603.633 1
  19645117.103   -25987819.288 7    307724.821 2
  19521771.751   -25665169.366 7 -19024433.397 2
 90 10 22 13 56 14.9970000  0  5 02 06 12 13 09
  22314273.603     8124249.229 5   6668465.546 1
  20763079.696    -7175176.471 7   3705028.229 2
  21634597.876   -13844135.550 6 -10485773.076 1
  19646863.876   -25978640.936 7    314876.759 2
  19520486.759   -25671928.108 7 -19029699.965 1
 90 10 22 13 56 29.9970000  0  5 02 06 12 13 09
  22319654.079     8152541.458 5   6690511.343 1
  20769832.470    -7139685.336 6   3732683.605 2
  21625535.579   -13891763.606 6 -10522885.863 1
  19648628.931   -25969365.237 7    322104.554 2
  19519229.853   -25678528.602 7 -19034843.230 2
 90 10 22 13 56 44.9970000  0  5 02 06 12 13 09
  22325044.618     8180883.362 5   6712595.839 1
  20776609.837    -7104077.153 6   3760430.191 2
  21616484.126   -13939320.541 6 -10559943.232 1
  19650413.267   -25959994.230 7    329406.620 2
  19518003.040   -25684972.823 7 -19039864.723 2
 90 10 22 13 56 59.9970000  0  5 02 06 12 13 09
  22330451.548     8209275.846 5   6734719.758 1
  20783407.735    -7068351.111 6   3788268.621 2
  21607448.814   -13986804.964 6 -10596944.101 1
  19652213.814   -25950527.087 7    336783.591 2
  19516807.259   -25691259.540 7 -19044763.487 2
 90 10 22 13 57 14.9970000  0  5 02 06 12 13 09
  22335864.563     8237716.298 5   6756881.043 1
  20790227.751    -7032509.934 6   3816196.768 2
  21598426.056   -14034219.176 6 -10633890.255 1
  19654032.454   -25940966.958 7    344233.020 2
  19515640.767   -25697391.362 7 -19049541.555 1
 90 10 22 13 57 29.9970000  0  5 02 06 12 13 09
  22341288.728     8266206.144 5   6779080.835 1
  20797071.415    -6996552.699 6   3844215.343 2
  21589417.853   -14081561.462 6 -10670780.370 1
  19655869.290   -25931312.701 7    351755.798 2
  19514503.243   -25703366.508 7 -19054197.536 1
 90 10 22 13 57 44.9970000  0  5 02 06 12 13 09
  22346718.837     8294746.054 5   6801319.629 1
  20803936.032    -6960478.902 6   3872324.746 2
  21580422.743   -14128830.767 6 -10707613.611 1
  19657726.110   -25921563.905 7    359352.240 2
  19513396.454   -25709184.429 7 -19058731.005 2
 90 10 22 13 57 59.9970000  0  5 02 06 12 13 09
  22352154.743     8323342.679 5   6823602.617 1
  20810823.774    -6924282.344 7   3900529.807 2
  21571444.462   -14176020.203 6 -10744384.618 1
  19659599.337   -25911714.189 7    367027.314 2
  19512320.782   -25714838.591 7 -19063136.872 2
 90 10 22 13 58 14.9970000  0  5 02 06 12 13 09
  22357607.384     8351988.316 5   6845923.790 1
  20817734.376    -6887970.580 7   3928824.636 2
  21562477.657   -14223136.891 6 -10781098.941 1
  19661492.423   -25901771.405 7    374774.917 2
  19511274.149   -25720336.188 7 -19067420.730 2
 90 10 22 13 58 29.9970000  0  5 02 06 12 13 09
  22363061.259     8380684.535 5   6868284.377 1
  20824666.634    -6851542.545 7   3957210.067 2
  21553523.204   -14270179.110 6 -10817755.225 1
  19663402.884   -25891734.221 7    382596.074 2
  19510258.720   -25725675.576 7 -19071581.315 2
 90 10 22 13 58 44.9970000  0  5 02 06 12 13 09
  22368541.509     8409435.056 5   6890687.279 1
  20831620.649    -6814994.550 7   3985688.969 2
  21544586.970   -14317142.527 6 -10854350.117 1
  19665332.103   -25881599.224 7    390493.450 2
  19509272.681   -25730853.067 7 -19075615.743 2
 90 10 22 13 58 59.9970000  0  5 02 06 12 13 09
  22374019.735     8438232.856 5   6913127.027 1
  20838597.407    -6778333.994 7   4014255.582 2
  21535664.274   -14364033.983 6 -10890888.932 1
  19667276.532   -25871373.922 7    398461.193 2
  19508316.665   -25735875.621 7 -19079529.441 2
 90 10 22 13 59 14.9970000  0  5 02 06 12 13 09
  22379510.282     8467078.535 5   6935604.078 1
  20845593.720    -6741560.335 7   4042910.322 2
  21526756.798   -14410852.290 6 -10927370.748 1
  19669238.845   -25861057.737 7    406499.759 2
  19507391.759   -25740742.271 7 -19083321.656 2
 90 10 22 13 59 29.9970000  0  5 02 06 12 13 09
  22385012.813     8495977.724 5   6958122.826 1
  20852614.681    -6704668.428 7   4071657.206 2
  21517864.064   -14457591.666 6 -10963791.063 1
  19671220.782   -25850645.363 7    414613.278 2
  19506495.407   -25745447.325 7 -19086987.953 2
 90 10 22 13 59 44.9970000  0  5 02 06 12 13 09
  22390519.681     8524926.498 5   6980680.203 1
  20859656.774    -6667662.277 6   4100493.107 2
  21508981.993   -14504255.695 6 -11000152.664 1
  19673220.368   -25840141.216 7    422798.304 2
  19505631.962   -25749994.835 7 -19090531.491 1
 90 10 22 13 59 59.9970000  0  5 02 06 12 13 09
  22396036.485     8553929.600 5   7003279.929 1
  20866720.681    -6630537.634 6   4129421.349 2
  21500117.540   -14550839.279 6 -11036451.582 1
  19675237.634   -25829540.591 7    431058.509 2
  19504796.040   -25754379.945 7 -19093948.484 2
 90 10 22 14  0 14.9970000  0  5 02 06 12 13 09
  22401571.853     8582987.338 5   7025922.209 1
  20873807.884    -6593294.309 6   4158442.063 2
  21491267.821   -14597341.768 6 -11072687.303 1
  19677272.478   -25818843.712 7    439393.715 2
  19503993.040   -25758602.126 7 -19097238.517 2
 90 10 22 14  0 29.9970000  0  5 02 06 12 13 09
  22407108.392     8612096.447 5   7048604.529 1
  20880917.470    -6555935.814 6   4187552.525 2
  21482433.923   -14643766.137 6 -11108862.148 1
  19679325.978   -25808054.122 7    447801.162 2
  19503220.665   -25762664.546 7 -19100404.067 2
 90 10 22 14  0 44.9970000  0  5 02 06 12 13 09
  22412654.212     8641256.444 5   7071326.493 1
  20888048.907    -6518462.869 6   4216752.177 2
  21473615.212   -14690112.386 6 -11144976.126 1
  19681396.923   -25797172.264 7    456280.511 2
  19502477.642   -25766567.729 7 -19103445.534 2
 90 10 22 14  0 59.9970000  0  5 02 06 12 13 09
  22418216.485     8670467.116 5   7094087.947 1
  20895201.017    -6480875.923 6   4246040.650 2
  21464810.431   -14736380.394 6 -11181029.139 1
  19683485.579   -25786198.803 7    464831.235 2
  19501764.392   -25770311.666 7 -19106362.913 2
 90 10 22 14  1 14.9970000  0  5 02 06 12 13 09
  22423781.798     8699729.988 5   7116890.082 1
  20902376.259    -6443173.770 6   4275418.903 2
  21456021.212   -14782568.365 6 -11217019.782 1
  19685590.884   -25775132.618 7    473454.219 2
  19501082.157   -25773894.637 7 -19109154.860 2
 90 10 22 14  1 29.9970000  0  5 02 06 12 13 09
  22429363.798     8729045.554 5   7139733.286 1
  20909573.173    -6405356.039 6   4304887.215 2
  21447247.524   -14828675.322 6 -11252947.297 1
  19687714.345   -25763973.332 7    482149.739 2
  19500431.688   -25777316.248 7 -19111821.072 2
 90 10 22 14  1 44.9970000  0  5 02 06 12 13 09
  22434946.790     8758410.836 5   7162615.217 1
  20916789.907    -6367426.012 6   4334443.028 2
  21438487.470   -14874703.940 6 -11288813.773 1
  19689856.548   -25752724.133 7    490915.329 2
  19499810.415   -25780579.215 7 -19114363.667 2
 90 10 22 14  1 59.9970000  0  5 02 06 12 13 09
  22440554.157     8787832.549 6   7185541.120 1
  20924029.837    -6329377.119 6   4364091.463 2
  21429742.235   -14920646.957 6 -11324613.547 1
  19692013.939   -25741378.442 7    499756.099 2
  19499220.462   -25783676.574 7 -19116777.216 2
 90 10 22 14  2 14.9970000  0  5 02 06 12 13 09
  22446160.720     8817306.068 6   7208507.383 1
  20931292.439    -6291214.263 6   4393828.700 2
  21421019.649   -14966508.636 6 -11360349.936 1
  19694189.438   -25729941.349 7    508668.096 2
  19498663.134   -25786613.110 7 -19119065.448 1
 90 10 22 14  2 29.9970000  0  5 02 06 12 13 09
  22451778.603     8846832.869 6   7231515.174 1
  20938578.228    -6252936.350 6   4423655.585 2
  21412307.501   -15012287.216 6 -11396021.572 1
  19696384.298   -25718411.693 7    517652.219 2
  19498134.345   -25789387.347 7 -19121227.214 2
 90 10 22 14  2 44.9970000  0  5 02 06 12 13 09
  22457405.274     8876414.285 6   7254565.521 1
  20945885.071    -6214542.223 6   4453573.028 2
  21403610.860   -15057981.020 6 -11431627.151 1
  19698596.118   -25706788.395 7    526709.310 2
  19497638.079   -25791997.657 7 -19123261.247 1
 90 10 22 14  2 59.9970000  0  5 02 06 12 13 09
  22463047.556     8906043.722 6   7277653.297 1
  20953211.399    -6176038.742 6   4483575.683 2
  21394933.728   -15103596.246 6 -11467171.502 1
  19700823.774   -25695078.240 7    535834.088 2
  19497170.696   -25794450.522 7 -19125172.596 2
 90 10 22 14  3 14.9970000  0  5 02 06 12 13 09
  22468694.681     8935728.592 6   7300784.263 1
  20960559.931    -6137418.878 6   4513669.024 2
  21386267.235   -15149125.285 6 -11502648.693 1
  19703070.649   -25683274.173 7    545032.033 2
  19496737.118   -25796738.679 7 -19126955.599 2
 90 10 22 14  3 29.9970000  0  5 02 06 12 13 09
  22474350.751     8965459.650 6   7323951.209 1
  20967928.845    -6098691.951 6   4543845.797 2
  21377616.774   -15194576.855 6 -11538065.515 1
  19705333.884   -25671385.752 7    554295.712 2
  19496329.806   -25798871.226 7 -19128617.349 2
 90 10 22 14  3 44.9970000  0  5 02 06 12 13 09
  22480019.157     8995244.192 6   7347159.834 1
  20975318.892    -6059850.995 6   4574111.427 2
  21368985.290   -15239943.340 6 -11573416.050 1
  19707611.517   -25659406.053 7    563630.514 2
  19495954.899   -25800840.612 7 -19130151.965 2
 90 10 22 14  3 59.9970000  0  5 02 06 12 13 09
  22485698.759     9025084.281 5   7370411.743 1
  20982733.548    -6020894.121 6   4604467.380 2
  21360368.415   -15285222.235 6 -11608698.328 1
  19709909.462   -25647333.108 7    573037.978 2
  19495612.454   -25802644.731 7 -19131557.798 1
 90 10 22 14  4 14.9970000  0  5 02 06 12 13 09
  22491378.985     9054975.878 5   7393703.791 1
  20990168.829    -5981825.885 6   4634910.108 2
  21351768.337   -15330417.354 6 -11643915.328 1
  19712224.743   -25635171.303 7    582514.680 2
  19495299.298   -25804287.861 7 -19132838.178 2
 90 10 22 14  4 29.9970000  0  5 02 06 12 13 09
  22497084.001     9084915.825 6   7417033.528 1
  20997623.954    -5942649.331 6   4665437.233 2
  21343184.017   -15375531.288 6 -11679069.066 1
  19714555.306   -25622923.855 7    592058.117 2
  19495016.837   -25805772.810 7 -19133995.310 2
 90 10 22 14  4 44.9970000  0  5 02 06 12 13 09
  22502789.360     9114904.300 5   7440401.060 1
  21005097.712    -5903364.700 6   4696048.579 2
  21334615.657   -15420563.489 6 -11714159.105 1
  19716902.095   -25610590.928 7    601668.163 2
  19494764.360   -25807099.170 7 -19135028.864 2
 90 10 22 14  4 59.9970000  0  5 02 06 12 13 09
  22508504.696     9144943.757 5   7463808.320 1
  21012595.673    -5863969.934 6   4726745.744 2
  21326063.079   -15465511.361 6 -11749183.441 2
  19719266.735   -25598170.523 7    611346.369 2
  19494542.751   -25808264.711 7 -19135937.101 2
 90 10 22 14  5 14.9970000  0  5 02 06 12 13 09
  22514229.571     9175038.193 5   7487258.427 1
  21020114.282    -5824461.228 6   4757531.696 2
  21317526.970   -15510370.446 6 -11784138.596 1
  19721646.962   -25585658.790 7    621095.745 2
  19494352.806   -25809265.226 7 -19136716.754 2
 90 10 22 14  5 29.9970000  0  5 02 06 12 13 09
  22519975.048     9205185.421 5   7510749.667 1
  21027654.298    -5784841.092 6   4788404.471 2
  21309007.548   -15555142.460 6 -11819025.898 1
  19724043.587   -25573058.472 7    630914.144 2
  19494191.392   -25810102.956 7 -19137369.553 2
 90 10 22 14  5 44.9970000  0  5 02 06 12 13 09
  22525715.829     9235381.302 5   7534278.825 1
  21035213.384    -5745113.893 6   4819360.676 2
  21300500.235   -15599831.398 6 -11853848.465 2
  19726457.954   -25560373.677 7    640798.369 2
  19494064.189   -25810782.022 7 -19137898.725 2
 90 10 22 14  5 59.9970000  0  5 02 06 12 13 09
  22531470.579     9265628.568 5   7557848.016 1
  21042795.110    -5705277.117 6   4850402.264 2
  21292013.517   -15644434.022 6 -11888603.769 2
  19728889.485   -25547602.039 7    650750.264 2
  19493964.204   -25811299.326 7 -19138301.846 2
 90 10 22 14  6 14.9970000  0  5 02 06 12 13 09
  22537237.790     9295928.314 5   7581458.097 1
  21050396.751    -5665329.758 6   4881530.014 2
  21283540.868   -15688948.761 6 -11923290.607 1
  19731335.314   -25534742.410 7    660770.720 2
  19493895.837   -25811653.832 7 -19138578.112 1
 90 10 22 14  6 29.9970000  0  5 02 06 12 13 09
  22543013.173     9326277.465 5   7605106.675 1
  21058016.689    -5625275.201 6   4912741.303 2
  21275088.095   -15733378.302 6 -11957911.045 2
  19733798.970   -25521798.324 7    670856.997 2
  19493858.571   -25811848.338 7
 90 10 22 14  6 44.9970000  0  5 02 06 12 13 09
  22548799.540     9356677.735 5   7628795.094 1
  21065660.438    -5585111.981 6   4944037.265 2
  21266650.704   -15777720.574 6 -11992463.476 2
  19736278.915   -25508768.201 7    681010.310 2
  19493853.587   -25811881.256 7
 90 10 22 14  6 59.9970000  0  5 02 06 12 13 09
  22554594.587     9387128.520 5   7652522.882 1
  21073323.720    -5544841.176 6   4975417.058 2
  21258226.228   -15821975.889 6 -12026948.152 2
  19738774.220   -25495653.165 7    691229.784 2
  19493878.196   -25811753.248 7
 90 10 22 14  7 14.9970000  0  5 02 06 12 13 09
  22560405.626     9417633.878 5   7676293.196 1
  21081008.470    -5504458.881 6   5006883.725 2
  21249824.603   -15866139.796 6 -12061361.604 2
  19741286.345   -25482449.537 7    701518.299 2
  19493934.360   -25811460.000 7
 90 10 22 14  7 29.9970000  0  5 02 06 12 13 09
  22566215.493     9448188.142 5   7700101.604 1
  21088712.173    -5463971.124 6   5038432.575 2
  21241437.665   -15910217.704 6 -12095708.038 2
  19743815.321   -25469163.298 7    711871.184 2
  19494021.978   -25811007.074 7
 90 10 22 14  7 44.9970000  0  5 02 06 12 13 09
  22572040.274     9478792.191 5   7723948.808 1
  21096437.407    -5423377.380 6   5070064.013 2
  21233066.462   -15954208.487 6 -12129986.578 2
  19746360.235   -25455793.754 7    722288.981 2
  19494137.751   -25810394.095 7        -0.15411
 90 10 22 14  7 59.9970000  0  5 02 06 12 13 09
  22577869.696     9509449.258 5   7747837.330 1
  21104183.626    -5382674.443 6   5101780.529 2
  21224712.595   -15998108.247 6 -12164194.199 2
  19748920.556   -25442337.841 7    732774.080 2
  19494285.813   -25809617.306 7       605.110 2
 90 10 22 14  8 14.9970000  0  5 02 06 12 13 09
  22583713.798     9540156.918 5   7771765.279 1
  21111948.876    -5341865.214 6   5133579.871 2
  21216376.493   -16041919.184 6 -12198332.614 2
  19751496.673   -25428798.467 7    743324.210 2
  19494465.017   -25808679.053 7      1336.189 2
 90 10 22 14  8 29.9970000  0  5 02 06 12 13 09
  22589567.767     9570919.421 5   7795735.957 1
  21119736.095    -5300945.424 6   5165465.358 2
  21208055.126   -16085636.475 6 -12232398.053 2
  19754090.032   -25415171.322 7    753942.738 2
  19494673.821   -25807574.970 7      2196.495 2
 90 10 22 14  8 44.9970000  0  5 02 06 12 13 09
  22595430.462     9601734.734 5   7819747.794 1
  21127544.728    -5259917.490 6   5197435.120 2
  21199755.610   -16129261.892 6 -12266391.902 2
  19756698.321   -25401458.897 7    764627.714 2
  19494915.923   -25806307.190 7      3184.349 2
 90 10 22 14  8 59.9970000  0  5 02 06 12 13 09
  22601302.087     9632601.929 5   7843800.050 1
  21135370.704    -5218782.685 6   5229488.150 2
  21191471.017   -16172796.010 7 -12300314.603 2
  19759324.360   -25387662.321 7    775378.263 2
  19495186.751   -25804876.730 7      4298.972 2
 90 10 22 14  9 14.9970000  0  5 02 06 12 13 09
  22607189.571     9663519.467 5   7867891.536 1
  21143218.243    -5177542.825 6   5261623.049 2
  21183203.353   -16216239.959 7 -12334167.048 2
  19761965.407   -25373783.258 7    786193.084 2
  19495490.157   -25803284.892 7      5539.336 1
 90 10 22 14  9 29.9970000  0  5 02 06 12 13 09
  22613081.204     9694488.523 5   7892023.174 1
  21151086.290    -5136196.830 6   5293840.642 2
  21174952.915   -16259592.035 7 -12367947.902 2
  19764622.696   -25359820.747 7    797072.929 2
  19495824.376   -25801530.235 7      6906.578 1
 90 10 22 14  9 44.9970000  0  5 02 06 12 13 09
  22618985.728     9725507.934 5   7916194.028 1
  21158974.665    -5094746.194 6   5326139.784 2
  21166720.009   -16302853.099 7 -12401657.841 2
  19767295.298   -25345776.442 7    808016.511 2
  19496188.931   -25799614.086 7      8399.658 1
 90 10 22 14  9 59.9970000  0  5 02 06 12 13 09
  22624895.595     9756577.757 5   7940404.155 1
  21166881.884    -5053191.257 6   5358520.192 2
  21158506.267   -16346022.781 7 -12435296.574 2
  19769981.212   -25331650.466 7    819023.736 2
  19496583.767   -25797536.408 7     10018.603 2
 90 10 22 14 10 14.9970000  0  5 02 06 12 13 09
  22630823.001     9787700.566 5   7964655.586 1
  21174810.626    -5011529.674 6   5390983.708 2
  21150308.704   -16389098.279 7 -12468861.918 2
  19772687.290   -25317440.687 7    830096.262 2
  19497012.001   -25795294.631 7     11765.417 2
 90 10 22 14 10 29.9970000  0  5 02 06 12 13 09
  22636754.673     9818873.632 5   7988946.166 1
  21182757.634    -4969764.453 6   5423527.979 2
  21142127.712   -16432081.940 7 -12502355.704 2
  19775406.657   -25303150.026 7    841231.813 2
  19497469.728   -25792891.263 7     13638.148 2
 90 10 22 14 10 44.9970000  0  5 02 06 12 13 09
  22642691.267     9850096.148 5   8013275.296 1
  21190724.110    -4927896.598 6   5456152.223 2
  21133967.024   -16474973.988 7 -12535778.098 2
  19778142.384   -25288779.384 7    852429.686 2
  19497957.001   -25790327.131 7     15636.146 2
 90 10 22 14 10 59.9970000  0  5 02 06 12 13 09
  22648645.649     9881367.265 5   8037642.292 1
  21198710.446    -4885927.253 6   5488855.559 2
  21125822.407   -16517775.020 7 -12569129.573 2
  19780890.103   -25274330.046 7    863688.881 2
  19498476.485   -25787603.159 7     17758.689 2
 90 10 22 14 11 14.9970000  0  5 02 06 12 13 09
  22654606.673     9912685.582 5   8062046.063 1
  21206715.587    -4843858.177 6   5521636.601 2
  21117695.876   -16560486.089 7 -12602410.944 2
  19783655.634   -25259803.665 7    875008.111 2
  19499023.485   -25784720.470 7     20004.919 2
 90 10 22 14 11 29.9970000  0  5 02 06 12 13 09
  22660577.384     9944059.856 5   8086493.441 1
  21214740.751    -4801680.784 6   5554502.052 2
  21109587.743   -16603098.025 7 -12635615.071 2
  19786436.048   -25245191.688 7    886394.043 2
  19499603.845   -25781670.338 7     22381.620 2
 90 10 22 14 11 44.9970000  0  5 02 06 12 13 09
  22666555.813     9975486.889 5   8110981.913 1
  21222788.814    -4759398.684 6   5587449.082 1
  21101495.610   -16645613.667 7 -12668744.166 2
  19789233.962   -25230497.694 7    897843.883 2
  19500214.923   -25778456.168 7     24886.147 2
 90 10 22 14 11 59.9970000  0  5 02 06 12 13 09
  22672546.524    10006967.347 5   8135512.028 1
  21230855.978    -4717011.263 6   5620478.183 1
  21093424.298   -16688031.995 7 -12701797.431 2
  19792043.376   -25215721.155 7    909358.041 2
  19500857.970   -25775077.094 7     27519.165 2
 90 10 22 14 12 14.9970000  0  5 02 06 12 13 09
  22678542.524    10038501.554 5   8160084.023 1
  21238942.876    -4674518.546 6   5653589.324 1
  21085370.095   -16730352.208 7 -12734774.242 2
  19794871.446   -25200861.867 7    920936.683 2
  19501532.306   -25771532.629 7     30281.064 2
 90 10 22 14 12 29.9970000  0  5 02 06 12 13 09
  22684559.462    10070083.183 5   8184692.971 1
  21247047.329    -4631927.230 6   5686777.297 1
  21077334.024   -16772580.375 7 -12767679.330 2
  19797714.360   -25185926.637 7    932574.490 2
  19502237.556   -25767829.040 7     33166.953 2
 90 10 22 14 12 44.9970000  0  5 02 06 12 13 09
  22690578.142    10101720.625 5   8209345.398 1
  21255171.603    -4589228.995 6   5720048.586 1
  21069319.181   -16814707.523 7 -12800505.707 2
  19800570.798   -25170907.235 7    944277.896 2
  19502973.853   -25763958.026 7     36183.301 2
 90 10 22 14 12 59.9970000  0  5 02 06 12 13 09
  22696608.329    10133406.300 5   8234035.415 1
  21263316.157    -4546431.939 6   5753396.883 1
  21061320.118   -16856741.073 7 -12833259.145 2
  19803444.056   -25155811.755 7    956040.573 2
  19503742.282   -25759927.372 7     39324.040 2
 90 10 22 14 13 14.9970000  0  5 02 06 12 13 09
  22702644.063    10165139.211 5   8258762.243 1
  21271479.876    -4503537.414 6   5786821.122 1
  21053338.228   -16898681.663 7 -12865940.149 2
  19806331.509   -25140641.484 7    967861.538 2
  19504538.978   -25755737.857 7     42588.570 2
 90 10 22 14 13 29.9970000  0  5 02 06 12 13 09
  22708692.845    10196921.852 5   8283527.836 1
  21279660.610    -4460542.884 6   5820323.288 1
  21045376.001   -16940526.171 7 -12898546.278 2
  19809234.040   -25125393.655 7    979742.939 2
  19505366.493   -25751386.928 7     45978.873 2
 90 10 22 14 13 44.9970000  0  5 02 06 12 13 09
  22714757.735    10228760.098 5   8308336.734 1
  21287862.915    -4417442.847 6   5853907.663 1
  21037432.431   -16982268.394 7 -12931072.707 2
  19812150.353   -25110063.058 7    991688.829 2
  19506226.978   -25746868.490 7     49499.701 2
 90 10 22 14 13 59.9970000  0  5 02 06 12 13 09
  22720817.899    10260651.976 5   8333187.437 1
  21296083.587    -4374239.676 6   5887572.411 1
  21029508.478   -17023910.155 7 -12963520.854 2
  19815082.610   -25094651.811 7   1003697.565 2
  19507118.423   -25742184.770 7     53149.327 2
 90 10 22 14 14 14.9970000  0  5 02 06 12 13 09
  22726897.634    10292594.905 5   8358077.906 1
  21304324.110    -4330936.134 6   5921315.372 1
  21021603.181   -17065453.477 7 -12995892.296 2
  19818029.579   -25079162.757 7   1015766.930 2
  19508040.743   -25737338.226 7     56925.825 2
 90 10 22 14 14 29.9970000  0  5 02 06 12 13 09
  22732986.634    10324586.064 5   8383005.955 1
  21312581.056    -4287535.295 6   5955134.146 1
  21013713.931   -17106900.785 7 -13028188.929 2
  19820991.696   -25063598.885 7   1027894.591 2
  19508993.501   -25732331.505 7     60827.138 2
 90 10 22 14 14 44.9970000  0  5 02 06 12 13 09
  22739082.056    10356630.243 5   8407975.315 1
  21320858.501    -4244032.639 6   5989032.264 1
  21005847.821   -17148247.028 7 -13060406.800 2
  19823968.165   -25047955.593 7   1040084.141 2
  19509976.493   -25727160.053 7     64856.807 2
 90 10 22 14 14 59.9970000  0  5 02 06 12 13 09
  22745193.392    10388725.041 5   8432984.138 1
  21329156.806    -4200430.977 6   6023007.525 1
  20998001.134   -17189494.194 7 -13092547.470 2
  19826961.024   -25032235.899 7   1052333.223 2
  19510991.978   -25721826.232 7     69013.004 2
 90 10 22 14 15 14.9970000  0  5 02 06 12 13 09
  22751312.360    10420869.898 5   8458031.960 1
  21337473.017    -4156731.035 6   6057059.368 1
  20990166.243   -17230642.503 7 -13124611.108 2
  19829965.829   -25016440.509 7   1064641.287 2
  19512038.118   -25716330.627 7     73295.261 2
 90 10 22 14 15 29.9970000  0  5 02 06 12 13 09
  22757441.899    10453065.757 5   8483119.512 1
  21345808.165    -4112932.237 6   6091188.245 1
  20982358.235   -17271690.560 7 -13156596.626 2
  19832986.884   -25000568.788 7   1077008.836 2
  19513114.376   -25710672.132 7     77704.447 2
 90 10 22 14 15 44.9970000  0  5 02 06 12 13 09
  22763576.087    10485314.174 5   8508248.029 1
  21354162.649    -4069033.269 6   6125395.175 1
  20974564.821   -17312636.465 7 -13188502.548 2
  19836022.228   -24984619.458 7   1089436.851 2
  19514222.767   -25704849.036 7     82241.888 2
 90 10 22 14 15 59.9970000  0  5 02 06 12 13 09
  22769719.774    10517614.068 5   8533416.646 1
  21362534.806    -4025035.548 6   6159679.048 1
  20966794.306   -17353481.031 7 -13220329.504 2
  19839070.212   -24968593.892 7   1101924.278 2
  19515363.103   -25698862.717 7     86906.520 2
 90 10 22 14 16 14.9970000  0  5 02 06 12 13 09
  22775878.423    10549967.034 5   8558626.640 1
  21370926.720    -3980937.610 6   6194041.013 1
  20959039.501   -17394222.193 7 -13252075.889 2
  19842136.103   -24952490.296 7   1114472.500 2
  19516532.274   -25692711.374 7     91699.740 2
 90 10 22 14 16 29.9970000  0  5 02 06 12 13 09
  22782043.149    10582367.695 5   8583873.786 1
  21379337.032    -3936745.344 6   6228476.480 1
  20951307.743   -17434865.100 7 -13283745.706 2
  19845213.939   -24936314.825 7   1127076.732 2
  19517733.251   -25686400.612 7     96617.185 2
 90 10 22 14 16 44.9970000  0  5 02 06 12 13 09
  22788219.501    10614823.250 5   8609163.703 1
  21387766.657    -3892451.729 6   6262990.914 1
  20943594.321   -17475402.033 7 -13315332.949 2
  19848306.126   -24920060.235 7   1139742.610 2
  19518966.642   -25679923.109 7    101664.564 2
 90 10 22 14 16 59.9970000  0  5 02 06 12 13 09
  22794408.923    10647329.895 5   8634493.445 1
  21396211.743    -3848060.717 6   6297581.246 1
  20935897.392   -17515836.298 7 -13346840.188 2
  19851415.196   -24903730.724 7   1152466.873 2
  19520228.954   -25673282.531 7    106839.010 2
 90 10 22 14 17 14.9970000  0  5 02 06 12 13 09
  22800601.892    10679885.882 5   8659861.630 1
  21404678.321    -3803574.453 6   6332245.798 1
  20928223.103   -17556169.278 7 -13378268.502 2
  19854536.532   -24887328.120 7   1165248.098 2
  19521524.579   -25666480.594 7    112139.193 2
 90 10 22 14 17 29.9970000  0  5 02 06 12 13 09
  22806808.360    10712492.450 5   8685269.227 1
  21413161.087    -3758992.097 6   6366985.227 1
  20920567.392   -17596399.543 7 -13409616.780 2
  19857671.399   -24870851.599 7   1178086.911 2
  19522849.829   -25659516.431 7    117565.783 2
 90 10 22 14 17 44.9970000  0  5 02 06 12 13 09
  22813016.368    10745147.111 5   8710714.300 1
  21421662.470    -3714316.271 6   6401797.489 1
  20912931.579   -17636529.088 7 -13440886.578 2
  19860818.978   -24854303.844 7   1190981.236 2
  19524206.095   -25652392.110 7    123117.173 2
 90 10 22 14 17 59.9970000  0  5 02 06 12 13 09
  22819245.485    10777853.232 5   8736199.461 1
  21430181.868    -3669543.842 6   6436685.035 1
  20905313.509   -17676554.110 7 -13472074.930 2
  19863982.532   -24837681.750 7   1203933.484 2
  19525593.063   -25645104.373 7    128795.902 2
 90 10 22 14 18 14.9970000  0  5 02 06 12 13 09
  22825480.493    10810607.980 5   8761722.519 1
  21438720.407    -3624677.963 6   6471645.399 1
  20897718.431   -17716477.163 7 -13503183.820 2
  19867158.509   -24820988.415 7   1216941.240 2
  19527010.829   -25637656.153 7    134599.682 2
 90 10 22 14 18 29.9970000  0  5 02 06 12 13 09
  22831719.431    10843409.348 5   8787281.904 1
  21447274.845    -3579721.062 6   6506676.673 1
  20890139.524   -17756299.907 7 -13534214.546 2
  19870348.056   -24804226.205 7   1230002.669 2
  19528457.845   -25630049.440 7    140526.959 2
 90 10 22 14 18 44.9970000  0  5 02 06 12 13 09
  22837970.939    10876262.185 5   8812881.395 1
  21455847.868    -3534668.413 6   6541782.575 1
  20882582.454   -17796017.054 7 -13565162.992 2
  19873552.563   -24787390.382 7   1243121.462 2
  19529935.564   -25622279.299 7    146581.582 2
 90 10 22 14 18 59.9970000  0  5 02 06 12 13 09
  22844229.821    10909166.510 5   8838521.010 1
  21464439.024    -3489520.364 6   6576962.814 1
  20875043.868   -17835628.211 7 -13596028.847 2
  19876771.524   -24770481.216 7   1256297.405 2
  19531444.360   -25614345.842 7    152763.474 2
 90 10 22 14 19 14.9970000  0  5 02 06 12 13 09
  22850506.985    10942126.222 5   8864203.774 1
  21473050.813    -3444273.336 6   6612220.171 1
  20867526.642   -17875129.129 7 -13626808.802 2
  19880004.462   -24753495.119 7   1269533.292 2
  19532985.712   -25606245.216 7    159075.622 2
 90 10 22 14 19 29.9970000  0  5 02 06 12 13 09
  22856782.603    10975134.215 5   8889924.188 1
  21481678.173    -3398934.592 6   6647548.997 1
  20860030.001   -17914526.501 7 -13657508.074 2
  19883249.235   -24736439.400 7   1282823.427 2
  19534559.032   -25597984.295 7    165512.675 2
 90 10 22 14 19 44.9970000  0  5 02 06 12 13 09
  22863075.032    11008189.251 5   8915681.243 1
  21490324.040    -3353505.719 6   6682948.049 1
  20852552.556   -17953821.111 7 -13688127.265 2
  19886506.978   -24719315.480 7   1296166.711 2
  19536161.306   -25589564.373 7    172073.626 2
 90 10 22 14 19 59.9970000  0  5 02 06 12 13 09
  22869377.306    11041296.100 5   8941478.671 1
  21498988.017    -3307982.276 6   6718420.794 1
  20845096.142   -17993007.897 7 -13718662.445 2
  19889780.056   -24702119.138 7   1309566.432 2
  19537793.712   -25580980.746 7    178762.140 2
 90 10 22 14 20 14.9970000  0  5 02 06 12 13 09
  22875685.892    11074455.590 5   8967317.108 1
  21507667.251    -3262363.835 6   6753967.560 1
  20837658.985   -18032085.782 7 -13749112.758 2
  19893065.118   -24684849.583 7   1323023.191 2
  19539460.423   -25572232.894 7    185578.620 2
 90 10 22 14 20 29.9970000  0  5 02 06 12 13 09
  22882007.853    11107666.065 5   8993195.287 1
  21516366.446    -3216652.117 6   6789587.011 1
  20830243.392   -18071055.797 7 -13779479.023 2
  19896366.282   -24667508.505 7   1336535.687 2
  19541154.274   -25563322.061 7    192522.101 2
 90 10 22 14 20 44.9970000  0  5 02 06 12 13 09
  22888336.157    11140930.296 5   9019115.332 1
  21525083.696    -3170844.724 6   6825281.017 1
  20822849.313   -18109914.850 7 -13809758.821 2
  19899679.767   -24650093.682 7   1350105.647 2
  19542882.517   -25554245.644 7    199594.605 2
 90 10 22 14 20 59.9970000  0  5 02 06 12 13 09
  22894678.493    11174241.982 5   9045072.358 1
  21533816.626    -3124948.194 6   6861044.469 1
  20815474.071   -18148668.876 7 -13839956.779 2
  19903006.243   -24632611.436 7   1363728.142 2
  19544640.407   -25545010.085 7    206791.116 2
 90 10 22 14 21 14.9970000  0  5 02 06 12 13 09
  22901026.415    11207604.123 5   9071068.707 1
  21542569.274    -3078959.673 6   6896879.611 1
  20808118.985   -18187314.398 7 -13870070.192 2
  19906347.196   -24615058.854 7   1377405.442 2
  19546427.579   -25535612.011 7    214114.263 2
 90 10 22 14 21 29.9970000  0  5 02 06 12 13 09
  22907379.110    11241013.523 5   9097101.889 1
  21551336.368    -3032882.924 6   6932783.502 1
  20800787.759   -18225854.525 7 -13900101.472 2
  19909699.946   -24597439.703 7   1391134.616 2
  19548246.337   -25526054.849 7    221561.377 2
 90 10 22 14 21 44.9970000  0  5 02 06 12 13 09
  22913745.915    11274470.720 5   9123172.296 1
  21560121.899    -2986717.666 6   6968756.364 1
  20793471.915   -18264288.427 7 -13930049.986 2
  19913065.126   -24579753.630 7   1404915.936 2
  19550097.009   -25516338.367 7    229132.630 2
 90 10 22 14 21 59.9970000  0  5 02 06 12 13 09
  22920119.368    11307974.858 5   9149279.291 1
  21568924.118    -2940464.915 6   7004797.392 1
  20786179.735   -18302616.278 7 -13959915.863 2
  19916443.907   -24562001.863 7   1418748.453 2
  19551975.618   -25506463.174 7    236827.561 2
 90 10 22 14 22 14.9970000  0  5 02 06 12 13 09
  22926510.087    11341527.526 5   9175424.088 1
  21577742.845    -2894123.538 6   7040907.481 1
  20778907.540   -18340836.243 7 -13989697.668 2
  19919833.478   -24544183.026 7   1432633.224 2
  19553886.149   -25496427.806 7    244647.300 2
 90 10 22 14 22 29.9970000  0  5 02 06 12 13 09
  22932899.438    11375132.562 5   9201609.697 1
  21586577.345    -2847690.106 6   7077089.313 1
  20771653.892   -18378944.270 7 -14019392.255 2
  19923239.517   -24526293.671 7   1446572.950 2
  19555825.806   -25486228.571 7    252594.726 2
 90 10 22 14 22 44.9970000  0  5 02 06 12 13 09
  22939315.181    11408787.057 5   9227833.828 1
  21595430.368    -2801167.655 6   7113340.496 1
  20764423.673   -18416942.817 7 -14049001.522 2
  19926655.446   -24508336.786 7   1460565.290 2
  19557798.321   -25475868.229 7    260667.693 2
 90 10 22 14 22 59.9970000  0  5 02 06 12 13 09
  22945717.946    11442489.665 5   9254095.472 1
  21604299.579    -2754557.579 6   7149659.966 1
  20757213.532   -18454832.602 7 -14078526.044 2
  19930085.657   -24490313.814 7   1474609.131 2
  19559800.188   -25465348.119 7    268865.148 2
 90 10 22 14 23 14.9970000  0  5 02 06 12 13 09
  22952146.962    11476236.992 5   9280391.961 1
  21613184.376    -2707863.525 6   7186044.872 1
  20750023.884   -18492616.527 7 -14107968.078 2
  19933527.517   -24472228.166 7   1488701.808 2
  19561830.329   -25454671.463 7    277184.595 2
 90 10 22 14 23 29.9970000  0  5 02 06 12 13 09
  22958575.384    11510040.382 4   9306732.120 1
  21622089.673    -2661074.650 6   7222503.662 1
  20742856.173   -18530283.133 7 -14137318.700 2
  19936983.915   -24454069.048 7   1502851.736 2
  19563894.009   -25443827.125 7    285634.700 2
 90 10 22 14 23 44.9970000  0  5 02 06 12 13 09
  22965018.103    11543892.810 4   9333110.504 1
  21631010.735    -2614198.316 6   7259030.609 1
  20735709.829   -18567839.103 7 -14166583.115 2
  19940450.095   -24435843.663 7   1517053.301 2
  19565989.884   -25432822.248 7    294209.900 2
 90 10 22 14 23 59.9970000  0  5 02 06 12 13 09
  22971471.024    11577796.337 4   9359528.704 1
  21639946.290    -2567232.598 6   7295627.202 1
  20728584.665   -18605281.926 7 -14195759.357 2
  19943932.540   -24417550.068 7   1531308.017 2
  19568112.798   -25421654.717 7    302911.849 2
 90 10 22 14 24 14.9970000  0  5 02 06 12 13 09
  22977926.985    11611744.953 4   9385982.034 1
  21648900.689    -2520183.839 6   7332288.495 1
  20721479.556   -18642617.221 7 -14224851.811 2
  19947425.126   -24399194.764 7   1545610.815 2
  19570268.642   -25410330.601 7    311735.809 2
 90 10 22 14 24 29.9970000  0  5 02 06 12 13 09
  22984397.079    11645742.318 4   9412473.346 1
  21657872.259    -2473048.836 6   7369016.991 1
  20714395.751   -18679841.005 7 -14253857.372 2
  19950929.845   -24380774.373 7   1559964.331 2
  19572455.064   -25398846.321 7    320684.572 2
 90 10 22 14 24 44.9970000  0  5 02 06 12 13 09
  22990883.728    11679790.254 4   9439004.065 1
  21666858.595    -2425825.915 6   7405813.998 1
  20707334.454   -18716950.994 7 -14282774.262 2
  19954447.407   -24362287.113 7   1574369.951 2
  19574670.696   -25387200.157 7    329759.480 2
 90 10 22 14 24 59.9970000  0  5 02 06 12 13 09
  22997367.009    11713889.471 4   9465574.758 1
  21675860.189    -2378514.792 6   7442679.737 1
  20700294.587   -18753946.284 7 -14311601.779 2
  19957979.548   -24343732.576 7   1588828.001 2
  19576917.321   -25375391.398 7    338961.082 2
 90 10 22 14 25 14.9970000  0  5 02 06 12 13 09
  23003861.970    11748037.736 4   9492183.669 1
  21684879.642    -2331117.895 6   7479612.304 1
  20693274.017   -18790828.642 7 -14340341.301 2
  19961521.118   -24325113.277 7   1603336.510 2
  19579196.548   -25363422.354 7    348287.579 2
 90 10 22 14 25 29.9970000  0  5 02 06 12 13 09
  23010379.267    11782236.258 4   9518831.728 1
  21693915.399    -2283634.264 6   7516612.457 1
  20686278.884   -18827596.371 7 -14368991.499 2
  19965076.454   -24306428.060 7   1617896.386 2
  19581505.384   -25351291.572 7    357740.102 2
 90 10 22 14 25 44.9970000  0  5 02 06 12 13 09
  23016893.556    11816484.849 4   9545518.827 1
  21702967.524    -2236064.480 6   7553679.745 1
  20679303.712   -18864249.421 7 -14397552.337 2
  19968646.962   -24287677.578 7   1632507.117 2
  19583842.454   -25338999.627 7    367318.210 2
 90 10 22 14 25 59.9970000  0  5 02 06 12 13 09
  23023415.548    11850781.666 4   9572243.516 1
  21712032.767    -2188410.597 6   7590812.576 1
  20672351.071   -18900789.145 7 -14426024.864 2
  19972226.517   -24268863.977 7   1647167.034 2
  19586211.290   -25326548.402 7    377020.429 2
 90 10 22 14 26 14.9970000  0  5 02 06 12 13 09
  23029958.759    11885126.629 4   9599005.653 1
  21721117.571    -2140672.765 6   7628010.798 1
  20665420.642   -18937215.034 7 -14454408.692 2
  19975819.251   -24249987.159 7   1661876.221 2
  19588611.290   -25313937.589 7    386847.006 2
 90 10 22 14 26 29.9970000  0  5 02 06 12 13 09
  23036500.079    11919523.492 4   9625808.281 1
  21730219.157    -2092847.889 6   7665276.856 1
  20658509.962   -18973523.386 7 -14482700.936 2
  19979424.290   -24231044.016 7   1676637.078 2
  19591041.540   -25301163.865 7    396800.524 2
 90 10 22 14 26 44.9970000  0  5 02 06 12 13 09
  23043053.360    11953967.028 4   9652647.272 1
  21739336.728    -2044941.439 6   7702606.485 1
  20651624.368   -19009719.094 7 -14510905.399 2
  19983041.548   -24212040.160 7   1691445.250 2
  19593502.118   -25288232.644 7    406876.771 2
 90 10 22 14 26 59.9970000  0  5 02 06 12 13 09
  23049618.931    11988454.414 5   9679520.431 1
  21748467.782    -1996956.468 6   7739997.287 1
  20644755.517   -19045804.529 7 -14539023.941 2
  19986666.985   -24192978.393 7   1706298.545 2
  19595991.821   -25275146.560 7    417073.694 2
 90 10 22 14 27 14.9970000  0  5 02 06 12 13 09
  23056190.548    12022992.193 5   9706432.847 1
  21757614.173    -1948886.592 6   7777454.252 1
  20637909.587   -19081772.643 7 -14567051.066 2
  19990306.704   -24173852.298 7   1721201.968 2
  19598515.282   -25261898.934 7    427396.492 2
 90 10 22 14 27 29.9970000  0  5 02 06 12 13 09
  23062770.728    12057581.645 5   9733385.529 1
  21766780.735    -1900730.801 6   7814978.161 1
  20631090.024   -19117621.659 7 -14594985.375 2
  19993957.876   -24154660.711 7   1736156.424 2
  19601067.501   -25248488.493 7    437846.151 2
 90 10 22 14 27 44.9960000  0  5 02 06 12 13 09
  23069362.496    12092219.150 4   9760375.671 1
  21775958.090    -1852494.123 6   7852565.100 1
  20624289.535   -19153350.298 7 -14622825.890 2
  19997623.668   -24135406.741 7   1751159.486 2
  19603647.895   -25234917.805 7    448420.688 2
 90 10 22 14 27 59.9960000  0  5 02 06 12 13 09
  23075961.824    12126906.763 4   9787404.810 1
  21785154.918    -1804172.847 6   7890217.962 1
  20617513.582   -19188965.560 7 -14650578.060 2
  20001297.152   -24116090.449 7   1766211.117 2
  19606261.715   -25221187.945 7    459119.253 2
 90 10 22 14 28 14.9960000  0  5 02 06 12 13 09
  23082573.949    12161639.695 4   9814469.324 1
  21794363.395    -1755773.034 6   7927932.008 1
  20610756.293   -19224467.162 7 -14678241.662 2
  20004985.613   -24096715.701 7   1781308.290 2
  19608904.738   -25207301.912 7    469939.505 2
 90 10 22 14 28 29.9960000  0  5 02 06 12 13 09
  23089192.184    12196419.356 5   9841570.227 1
  21803589.246    -1707293.580 6   7965708.113 1
  20604023.637   -19259853.258 7 -14705815.263 2
  20008684.652   -24077281.501 7   1796451.796 2
  19611575.754   -25193258.480 7    480882.413 2
 90 10 22 14 28 44.9960000  0  5 02 06 12 13 09
  23095819.137    12231250.116 5   9868710.946 1
  21812831.605    -1658730.421 6   8003549.462 1
  20597314.035   -19295119.084 7 -14733295.134 2
  20012394.199   -24057783.749 7   1811644.817 2
  19614280.356   -25179053.318 7    491951.338 2
 90 10 22 14 28 59.9960000  0  5 02 06 12 13 09
  23102455.832    12266130.706 5   9895890.490 1
  21822088.129    -1610085.123 6   8041454.786 1
  20590624.285   -19330265.645 7 -14760682.078 2
  20016115.926   -24038223.983 7   1826886.162 2
  19617013.934   -25164687.931 7    503145.115 2
 90 10 22 14 29 14.9960000  0  5 02 06 12 13 09
  23109106.785    12301061.087 5   9923108.824 1
  21831362.254    -1561357.916 6   8079423.943 1
  20583959.777   -19365292.545 7 -14787975.784 2
  20019850.941   -24018602.520 7   1842175.587 2
  19619776.395   -25150162.280 7    514463.777 2
 90 10 22 14 29 29.9960000  0  5 02 06 12 13 09
  23115760.918    12336038.344 5   9950363.701 1
  21840648.215    -1512552.013 6   8117454.423 1
  20577316.051   -19400202.275 7 -14815178.186 2
  20023596.082   -23998922.393 7   1857510.719 2
  19622571.348   -25135479.179 7    525905.124 2
 90 10 22 14 29 44.9960000  0  5 02 06 12 13 09
  23122427.684    12371059.823 5   9977653.032 1
  21849950.871    -1463670.519 6   8155543.809 1
  20570695.293   -19434997.344 7 -14842291.232 2
  20027349.731   -23979186.513 7   1872889.292 2
  19625396.770   -25120641.541 7    537466.891 2
 90 10 22 14 29 59.9960000  0  5 02 06 12 13 09
  23129101.316    12406128.876 5  10004979.429 1
  21859265.699    -1414710.348 6   8193694.493 1
  20564097.106   -19469673.832 7 -14869311.887 2
  20031116.418   -23959391.727 7   1888313.769 2
  19628251.527   -25105646.173 7    549151.565 2
 90 10 22 14 30 14.9960000  0  5 02 06 12 13 09
  23135778.090    12441246.967 5  10032344.056 1
  21868600.262    -1365670.197 6   8231907.511 1
  20557518.949   -19504229.950 7 -14896238.748 2
  20034893.707   -23939536.668 7   1903785.208 2
  19631134.676   -25090491.603 7    560960.282 2
 90 10 22 14 30 29.9960000  0  5 02 06 12 13 09
  23142474.574    12476413.701 5  10059746.557 1
  21877945.395    -1316550.836 6   8270182.248 1
  20550968.113   -19538665.765 7 -14923071.864 2
  20038682.426   -23919622.219 7   1919302.929 2
  19634048.816   -25075178.173 7    572892.799 2
 90 10 22 14 30 44.9960000  0  5 02 06 12 13 09
  23149176.324    12511628.555 5  10087186.563 1
  21887306.262    -1267352.849 5   8308518.247 1
  20544437.441   -19572981.109 7 -14949811.108 2
  20042483.559   -23899648.845 7   1934866.568 2
  19636993.426   -25059706.308 7    584948.763 2
 90 10 22 14 30 59.9960000  0  5 02 06 12 13 09
  23155886.410    12546889.378 5  10114662.405 1
  21896681.707    -1218078.811 5   8346913.516 1
  20537929.254   -19607177.815 7 -14976457.907 2
  20046298.098   -23879618.794 7   1950474.361 2
  19639966.145   -25044078.525 7    597126.227 2
 90 10 22 14 31 14.9960000  0  5 02 06 12 13 09
  23162606.856    12582200.342 5  10142177.316 1
  21906075.020    -1168724.946 5   8385370.980 1
  20531447.363   -19641251.579 7 -15003008.906 2
  20050122.879   -23859528.312 7   1966129.244 2
  19642968.910   -25028290.552 7    609428.517 2
 90 10 22 14 31 29.9960000  0  5 02 06 12 13 09
  23169333.246    12617555.859 5  10169726.917 1
  21915480.957    -1119297.070 5   8423886.121 1
  20524983.504   -19675207.568 7 -15029468.131 2
  20053955.309   -23839383.032 7   1981826.826 2
  19646001.512   -25012348.220 7    621851.078 2
 90 10 22 14 31 44.9960000  0  5 02 06 12 13 09
  23176066.324    12652956.739 5  10197311.880 1
  21924899.574    -1069794.826 5   8462459.216 1
  20518543.871   -19709044.866 7 -15055834.872 2
  20057797.504   -23819182.731 7   1997567.283 2
  19649068.191   -24996250.912 7    634394.404 2
 90 10 22 14 31 59.9960000  0  5 02 06 12 13 09
  23182816.590    12688402.932 5  10224932.145 1
  21934334.801    -1020218.407 5   8501090.106 1
  20512128.738   -19742762.993 7 -15082108.757 2
  20061653.410   -23798927.674 7   2013350.407 2
  19652157.770   -24979998.568 7    647058.544 2
 90 10 22 14 32 14.9960000  0  5 02 06 12 13 09
  23189565.746    12723896.421 5  10252589.283 1
  21943783.426     -970566.251 5   8539780.002 1
  20505736.887   -19776359.552 7 -15108287.914 2
  20065516.371   -23778616.076 7   2029177.585 2
  19655282.988   -24963589.224 7    659845.011 2
 90 10 22 14 32 29.9960000  0  5 02 06 12 13 09
  23196331.152    12759431.972 5  10280279.168 1
  21953247.238     -920843.771 5   8578524.706 1
  20499365.473   -19809839.419 7 -15134376.133 2
  20069394.645   -23758253.386 7   2045044.581 2
  19658431.348   -24947028.332 7    672749.574 2
 90 10 22 14 32 44.9960000  0  5 02 06 12 13 09
  23203101.535    12795012.114 5  10308003.805 1
  21962724.184     -871048.747 6   8617325.932 1
  20493016.285   -19843199.707 7 -15160371.179 2
  20073276.379   -23737836.976 7   2060953.435 2
  19661615.457   -24930313.614 7    685773.995 2
 90 10 22 14 32 59.9960000  0  5 02 06 12 13 09
  23209881.887    12830640.046 5  10335765.681 1
  21972213.879     -821178.253 6   8656185.965 1
  20486690.410   -19876436.746 7 -15186270.189 2
  20077175.520   -23717363.937 7   2076906.417 2
  19664823.215   -24913441.509 7    698921.057 2
 90 10 22 14 33 14.9960000  0  5 02 06 12 13 09
  23216674.004    12866316.772 5  10363565.589 1
  21981718.902     -771231.673 6   8695105.275 1
  20480392.520   -19909549.313 7 -15212072.202 2
  20081082.473   -23696833.724 7   2092903.943 2
  19668064.098   -24896411.307 7    712191.311 2
 90 10 22 14 33 29.9960000  0  5 02 06 12 13 09
  23223470.652    12902038.740 5  10391400.733 1
  21991236.973     -721212.726 6   8734080.986 1
  20474111.457   -19942540.496 7 -15237779.635 2
  20084998.551   -23676250.084 7   2108943.108 2
  19671336.762   -24879226.711 7    725581.877 2
 90 10 22 14 33 44.9960000  0  5 02 06 12 13 09
  23230274.340    12937809.379 5  10419273.833 1
  22000770.168     -671118.152 6   8773115.605 1
  20467858.707   -19975406.277 7 -15263389.350 2
  20088924.879   -23655609.479 7   2125026.655 2
  19674638.168   -24861884.279 7    739095.425 2
 90 10 22 14 33 59.9960000  0  5 02 06 12 13 09
  23237089.762    12973624.081 5  10447181.230 1
  22010315.254     -620953.056 6   8812205.198 1
  20461626.043   -20008151.106 7 -15288904.819 2
  20092862.777   -23634916.928 7   2141150.688 2
  19677967.106   -24844388.544 7    752728.433 2
 90 10 22 14 34 14.9960000  0  5 02 06 12 13 09
  23243917.371    13009482.690 5  10475122.854 1
  22019874.285     -570717.849 6   8851349.413 1
  20455418.027   -20040774.847 7 -15314325.934 2
  20096809.824   -23614172.726 7   2157314.963 2
  19681325.426   -24826739.987 7    766480.526 2
 90 10 22 14 34 29.9960000  0  5 02 06 12 13 09
  23250745.152    13045384.363 4  10503098.024 1
  22029445.754     -520413.548 6   8890547.462 1
  20449235.418   -20073277.840 7 -15339652.957 2
  20100765.520   -23593377.835 7   2173518.736 2
  19684712.168   -24808939.515 7    780350.991 2
 90 10 22 14 34 44.9960000  0  5 02 06 12 13 09
  23257590.949    13081337.134 4  10531113.035 1
  22039034.691     -470032.596 6   8929805.241 1
  20443073.949   -20105651.875 7 -15364879.496 2
  20104735.606   -23572524.887 7   2189767.752 2
  19688130.246   -24790979.046 7    794346.132 2
 90 10 22 14 34 59.9960000  0  5 02 06 12 13 09
  23264437.949    13117335.419 4  10559163.490 1
  22048635.488     -419580.764 5   8969118.264 1
  20436936.566   -20137902.091 7 -15390009.548 2
  20108714.902   -23551619.345 7   2206057.744 2
  19691575.887   -24772864.409 7    808461.402 2
 90 10 22 14 35 14.9960000  0  5 02 06 12 13 09
  23271295.871    13153380.814 4  10587250.669 1
  22058249.871     -369056.816 5   9008487.470 1
  20430823.332   -20170026.531 7 -15415041.598 2
  20112704.184   -23530659.847 7   2222389.779 2
  19695050.621   -24754594.161 7    822697.924 2
 90 10 22 14 35 29.9960000  0  5 02 06 12 13 09
  23278169.691    13189469.987 5  10615371.968 1
  22067877.121     -318464.326 5   9047910.086 1
  20424733.246   -20202028.122 7 -15439977.924 2
  20116698.652   -23509649.811 7   2238761.202 2
  19698559.441   -24736171.563 7    837053.162 2
 90 10 22 14 35 44.9960000  0  5 02 06 12 13 09
  23285041.723    13225607.617 5  10643531.005 1
  22077519.137     -267798.937 5   9087389.514 1
  20418668.270   -20233901.758 7 -15464814.540 2
  20120710.473   -23488585.098 7   2255175.224 2
  19702093.887   -24717591.957 7    851530.734 2
 90 10 22 14 35 59.9960000  0  5 02 06 12 13 09
  23291929.301    13261791.203 4  10671725.874 1
  22087170.980     -217063.369 5   9126923.611 1
  20412628.090   -20265649.452 7 -15489553.023 2
  20124727.988   -23467468.108 7   2271629.986 2
  19705658.699   -24698858.102 7    866128.505 2
 90 10 22 14 36 14.9960000  0  5 02 06 12 13 09
  23298823.129    13298018.759 4  10699954.998 1
  22096837.918     -166260.062 5   9166510.514 1
  20406608.668   -20297273.049 7 -15514194.802 2
  20128755.887   -23446301.196 7   2288123.643 2
  19709253.285   -24679972.227 7    880844.733 2
 90 10 22 14 36 29.9960000  0  5 02 06 12 13 09
  23305724.918    13334294.920 4  10728221.985 1
  22106518.223     -115384.657 5   9206153.582 1
  20400616.785   -20328767.718 7 -15538736.123 2
  20132792.910   -23425079.860 7   2304659.708 2
  19712877.402   -24660929.724 7    895683.009 2
 90 10 22 14 36 44.9960000  0  5 02 06 12 13 09
  23312640.996    13370619.666 4  10756526.835 1
  22116215.277      -64437.380 5   9245852.651 1
  20394648.215   -20360133.044 7 -15563176.653 2
  20136844.629   -23403804.447 7   2321237.914 2
  19716527.543   -24641730.628 7    910643.314 2
 90 10 22 14 36 59.9960000  0  5 02 06 12 13 09
  23319558.613    13406989.409 4  10784866.760 1
  22125923.363      -13422.023 5   9285604.780 1
  20388703.121   -20391372.067 7 -15587518.769 2
  20140900.176   -23382478.442 7   2337855.544 2
  19720213.129   -24622378.676 7    925722.722 2
 90 10 22 14 37 14.9960000  0  5 02 06 12 13 09
  23326487.129    13443407.013 4  10813243.981 1
  22135645.363       37663.864 5   9325411.859 1
  20382782.488   -20422481.570 7 -15611759.959 2
  20144968.340   -23361099.394 7   2354514.505 2
  19723926.645   -24602870.838 7    940923.599 2
 90 10 22 14 37 29.9960000  0  5 02 06 12 13 09
  23333428.527    13479866.223 4  10841653.582 1
  22145378.895       88813.757 5   9365268.816 1
  20376887.996   -20453467.600 7 -15635904.929 2
  20149045.012   -23339673.868 7   2371209.681 2
  19727666.684   -24583213.657 7    956240.848 2
 90 10 22 14 37 44.9960000  0  5 02 06 12 13 09
  23340376.238    13516371.654 3  10870099.200 1
  22155127.152      140031.986 5   9405179.009 1
  20371014.770   -20484325.172 7 -15659949.813 2
  20153132.668   -23318197.411 7   2387944.552 2
  19731434.809   -24563402.817 7    971677.832 2
 90 10 22 14 37 59.9960000  0  5 02 06 12 13 09
  23347332.262    13552922.795 4  10898580.462 1
  22164885.051      191317.672 5   9445141.775 1
  20365167.309   -20515054.471 7 -15683894.736 2
  20157230.246   -23296670.621 7   2404718.634 2
  19735233.973   -24543438.760 7    987234.203 2
 90 10 22 14 38 14.9960000  0  5 02 06 12 13 09
  23354292.379    13589518.115 3  10927096.163 1
  22174659.262      242669.155 5   9485155.807 1
  20359342.879   -20545656.579 7 -15707740.547 2
  20161335.254   -23275095.146 7   2421530.657 2
  19739062.723   -24523323.084 7   1002908.720 2
 90 10 22 14 38 29.9960000  0  5 02 06 12 13 09
  23361266.824    13626157.664 4  10955646.310 1
  22184443.527      294086.222 5   9525220.946 1
  20353546.949   -20576131.043 7 -15731486.901 2
  20165448.957   -23253471.227 7   2438380.421 2
  19742920.981   -24503055.819 7   1018701.358 2
 90 10 22 14 38 44.9960000  0  5 02 06 12 13 09
  23368245.848    13662845.051 4  10984233.757 1
  22194239.926      345572.093 5   9565339.692 1
  20347769.699   -20606473.842 7 -15755130.655 2
  20169574.848   -23231795.182 7   2455270.812 2
  19746807.199   -24482633.465 7   1034614.844 2
 90 10 22 14 38 59.9960000  0  5 02 06 12 13 09
  23375236.551    13699574.708 4  11012854.128 1
  22204049.176      397120.808 5   9605507.411 1
  20342021.215   -20636690.365 7 -15778676.015 2
  20173709.965   -23210073.073 7   2472197.082 2
  19750718.980   -24462061.944 7   1050644.563 2
 90 10 22 14 39 14.9960000  0  5 02 06 12 13 09
  23382234.840    13736346.006 3  11041506.916 1
  22213871.285      448731.560 6   9645723.464 1
  20336294.020   -20666780.772 7 -15802123.100 2
  20177851.074   -23188305.671 7   2489158.658 2
  19754660.895   -24441341.824 7   1066790.075 2
 90 10 22 14 39 29.9960000  0  5 02 06 12 13 09
  23389236.027    13773159.542 4  11070192.633 1
  22223705.668      500404.489 6   9685987.972 1
  20330591.645   -20696744.276 7 -15825471.301 2
  20182000.176   -23166492.786 7   2506155.670 2
  19758635.082   -24420472.705 7   1083051.695 2
 90 10 22 14 39 44.9960000  0  5 02 06 12 13 09
  23396251.957    13810021.018 3  11098915.732 1
  22233550.887      552145.071 5   9726305.189 1
  20324916.559   -20726574.765 7 -15848715.852 3
  20186163.816   -23144628.786 7   2523192.509 2
  19762631.754   -24399449.029 7   1099433.753 2
 90 10 22 14 39 59.9960000  0  5 02 06 12 13 09
  23403283.559    13846928.650 3  11127674.747 1
  22243409.356      603951.228 5   9766673.498 1
  20319264.988   -20756273.693 7 -15871857.889 3
  20190330.012   -23122715.711 7   2540267.602 2
  19766667.324   -24378272.694 7   1115934.759 2
 90 10 22 14 40 14.9960000  0  5 02 06 12 13 09
  23410312.676    13883880.214 3  11156468.024 1
  22253277.731      655820.539 5   9807091.030 1
  20313638.809   -20785842.781 7 -15894898.755 3
  20194511.816   -23100755.925 7   2557379.081 2
  19770721.660   -24356945.795 7   1132553.090 2
 90 10 22 14 40 29.9960000  0  5 02 06 12 13 09
  23417348.316    13920877.768 3  11185297.147 1
  22263162.863      707754.678 5   9847559.064 1
  20308035.762   -20815279.662 7 -15917836.598 3
  20198699.012   -23078747.558 7   2574528.416 2
  19774809.434   -24335466.746 7   1149289.974 2
 90 10 22 14 40 44.9960000  0  5 02 06 12 13 09
  23424398.981    13957922.448 3  11214162.947 1
  22273059.035      759754.650 5   9888078.411 1
  20302458.957   -20844582.692 7 -15940670.143 3
  20202896.199   -23056689.568 7   2591716.417 2
  19778928.809   -24313834.188 7   1166146.482 2
 90 10 22 14 40 59.9960000  0  5 02 06 12 13 09
  23431458.645    13995010.931 3  11243062.951 1
  22282964.746      811816.784 5   9928646.185 1
  20296908.605   -20873755.000 7 -15963401.829 3
  20207102.285   -23034585.364 7   2608940.431 2
  19783072.527   -24292051.864 7   1183119.686 2
 90 10 22 14 41 14.9960000  0  5 02 06 12 13 09
  23438525.512    14032142.171 4  11271996.212 1
  22292882.309      863939.765 5   9969261.385 1
  20291382.754   -20902797.293 7 -15986032.194 3
  20211318.801   -23012436.167 7   2626199.507 2
  19787244.262   -24270120.530 7   1200208.999 2
 90 10 22 14 41 29.9960000  0  5 02 06 12 13 09
  23445599.707    14069316.436 4  11300963.025 1
  22302809.238      916123.520 5  10009923.928 1
  20285881.566   -20931708.860 7 -16008560.698 3
  20215543.004   -22990242.143 7
  19791445.191   -24248040.406 7
 90 10 22 14 41 44.9960000  0  5 02 06 12 13 09
  23452675.949    14106534.294 4  11329963.812 1
  22312752.082      968368.272 5  10050634.014 1
  20280404.543   -20960488.946 7 -16030986.749 3
  20219774.387   -22968002.814 7
  19795674.355   -24225810.900 7
 90 10 22 14 41 59.9960000  0  5 02 06 12 13 09
  23459772.637    14143794.640 4  11358997.703 1
  22322707.754     1020672.754 5  10091390.629 1
  20274952.496   -20989138.134 7 -16053310.809 3
  20224013.441   -22945719.272 7   2678186.581 2
  19799933.855   -24203433.264 7   1252173.000 2
